<?xml version="1.0" encoding="UTF-8" standalone="no" ?>
<gpx xmlns="http://www.topografix.com/GPX/1/1" creator="www.plotaroute.com" version="1.1"  xmlns:xsi="http://www.w3.org/2001/XMLSchema-instance" xsi:schemaLocation="http://www.topografix.com/GPX/1/1 http://www.topografix.com/GPX/1/1/gpx.xsd">
<metadata>
<desc>Route created on plotaroute.com</desc>
</metadata>
<wpt lat="-38.5084069" lon="143.7291098">
<time>2025-07-25T00:00:00Z</time>
<name>START</name>
<cmt>START</cmt>
<desc>START</desc>
<sym>Horn</sym>
<type>Waypoint</type>
</wpt>
<wpt lat="-38.5061065" lon="143.7266207">
<time>2025-07-25T00:00:00Z</time>
<name>FINISH   </name>
<cmt>FINISH   </cmt>
<desc>FINISH   </desc>
<sym>Flag, Blue</sym>
<type>Waypoint</type>
</wpt>
<wpt lat="-38.4968286" lon="143.7175333">
<time>2025-07-25T00:00:00Z</time>
<name>Water Poin</name>
<cmt>Water Point</cmt>
<desc>Water Point</desc>
<sym>Drinking Water</sym>
<type>Waypoint</type>
</wpt>
<wpt lat="-38.5300892" lon="143.7142932">
<time>2025-07-25T00:00:00Z</time>
<name>Water Poin</name>
<cmt>Water Point</cmt>
<desc>Water Point</desc>
<sym>Flag, Blue</sym>
<type>Waypoint</type>
</wpt>
<trk>
<name>2026 75km Odyssey - Final</name>
<trkseg>
<trkpt lat="-38.508239" lon="143.7290803">
<ele>180</ele>
<time>2025-07-25T00:00:00Z</time></trkpt>
<trkpt lat="-38.5082683" lon="143.7290769">
<ele>180</ele>
<time>2025-07-25T00:00:01Z</time></trkpt>
<trkpt lat="-38.508298" lon="143.729041">
<ele>180</ele>
<time>2025-07-25T00:00:01Z</time></trkpt>
<trkpt lat="-38.50832" lon="143.729071">
<ele>180</ele>
<time>2025-07-25T00:00:02Z</time></trkpt>
<trkpt lat="-38.508929" lon="143.729318">
<ele>179</ele>
<time>2025-07-25T00:00:15Z</time></trkpt>
<trkpt lat="-38.509205" lon="143.729291">
<ele>180</ele>
<time>2025-07-25T00:00:20Z</time></trkpt>
<trkpt lat="-38.510155" lon="143.729102">
<ele>182</ele>
<time>2025-07-25T00:00:40Z</time></trkpt>
<trkpt lat="-38.510634" lon="143.728983">
<ele>183</ele>
<time>2025-07-25T00:00:49Z</time></trkpt>
<trkpt lat="-38.510634" lon="143.728983">
<ele>183</ele>
<time>2025-07-25T00:00:49Z</time></trkpt>
<trkpt lat="-38.510966" lon="143.728461">
<ele>189</ele>
<time>2025-07-25T00:01:00Z</time></trkpt>
<trkpt lat="-38.511217" lon="143.727624">
<ele>195</ele>
<time>2025-07-25T00:01:14Z</time></trkpt>
<trkpt lat="-38.511414" lon="143.726827">
<ele>197</ele>
<time>2025-07-25T00:01:27Z</time></trkpt>
<trkpt lat="-38.511754" lon="143.726449">
<ele>194</ele>
<time>2025-07-25T00:01:36Z</time></trkpt>
<trkpt lat="-38.511799" lon="143.726447">
<ele>194</ele>
<time>2025-07-25T00:01:37Z</time></trkpt>
<trkpt lat="-38.511799" lon="143.726447">
<ele>194</ele>
<time>2025-07-25T00:01:37Z</time></trkpt>
<trkpt lat="-38.512165" lon="143.72643">
<ele>194</ele>
<time>2025-07-25T00:01:44Z</time></trkpt>
<trkpt lat="-38.512857" lon="143.726719">
<ele>193</ele>
<time>2025-07-25T00:01:59Z</time></trkpt>
<trkpt lat="-38.513282" lon="143.726807">
<ele>192</ele>
<time>2025-07-25T00:02:08Z</time></trkpt>
<trkpt lat="-38.513929" lon="143.726783">
<ele>194</ele>
<time>2025-07-25T00:02:21Z</time></trkpt>
<trkpt lat="-38.51562" lon="143.726674">
<ele>198</ele>
<time>2025-07-25T00:02:55Z</time></trkpt>
<trkpt lat="-38.516615" lon="143.726524">
<ele>199</ele>
<time>2025-07-25T00:03:15Z</time></trkpt>
<trkpt lat="-38.517851" lon="143.726054">
<ele>196</ele>
<time>2025-07-25T00:03:40Z</time></trkpt>
<trkpt lat="-38.517851" lon="143.726054">
<ele>196</ele>
<time>2025-07-25T00:03:40Z</time></trkpt>
<trkpt lat="-38.518277" lon="143.725921">
<ele>196</ele>
<time>2025-07-25T00:03:49Z</time></trkpt>
<trkpt lat="-38.518939" lon="143.725819">
<ele>189</ele>
<time>2025-07-25T00:04:03Z</time></trkpt>
<trkpt lat="-38.51963" lon="143.725779">
<ele>189</ele>
<time>2025-07-25T00:04:16Z</time></trkpt>
<trkpt lat="-38.521167" lon="143.725462">
<ele>196</ele>
<time>2025-07-25T00:04:48Z</time></trkpt>
<trkpt lat="-38.5215361" lon="143.7255252">
<ele>196</ele>
<time>2025-07-25T00:04:55Z</time></trkpt>
<trkpt lat="-38.5219638" lon="143.7254107">
<ele>196</ele>
<time>2025-07-25T00:05:04Z</time></trkpt>
<trkpt lat="-38.522144" lon="143.725387">
<ele>197</ele>
<time>2025-07-25T00:05:07Z</time></trkpt>
<trkpt lat="-38.522499" lon="143.725258">
<ele>197</ele>
<time>2025-07-25T00:05:15Z</time></trkpt>
<trkpt lat="-38.522921" lon="143.725063">
<ele>202</ele>
<time>2025-07-25T00:05:24Z</time></trkpt>
<trkpt lat="-38.524085" lon="143.724448">
<ele>212</ele>
<time>2025-07-25T00:05:49Z</time></trkpt>
<trkpt lat="-38.524611" lon="143.724285">
<ele>219</ele>
<time>2025-07-25T00:06:00Z</time></trkpt>
<trkpt lat="-38.525413" lon="143.724304">
<ele>232</ele>
<time>2025-07-25T00:06:16Z</time></trkpt>
<trkpt lat="-38.525911" lon="143.724189">
<ele>235</ele>
<time>2025-07-25T00:06:26Z</time></trkpt>
<trkpt lat="-38.526147" lon="143.724208">
<ele>233</ele>
<time>2025-07-25T00:06:31Z</time></trkpt>
<trkpt lat="-38.52623" lon="143.724238">
<ele>232</ele>
<time>2025-07-25T00:06:33Z</time></trkpt>
<trkpt lat="-38.526463" lon="143.724372">
<ele>233</ele>
<time>2025-07-25T00:06:38Z</time></trkpt>
<trkpt lat="-38.5267" lon="143.724618">
<ele>235</ele>
<time>2025-07-25T00:06:44Z</time></trkpt>
<trkpt lat="-38.527204" lon="143.725492">
<ele>243</ele>
<time>2025-07-25T00:07:01Z</time></trkpt>
<trkpt lat="-38.527558" lon="143.726027">
<ele>248</ele>
<time>2025-07-25T00:07:12Z</time></trkpt>
<trkpt lat="-38.527993" lon="143.726996">
<ele>250</ele>
<time>2025-07-25T00:07:29Z</time></trkpt>
<trkpt lat="-38.528266" lon="143.727478">
<ele>249</ele>
<time>2025-07-25T00:07:39Z</time></trkpt>
<trkpt lat="-38.528662" lon="143.727939">
<ele>248</ele>
<time>2025-07-25T00:07:49Z</time></trkpt>
<trkpt lat="-38.529049" lon="143.728">
<ele>246</ele>
<time>2025-07-25T00:07:57Z</time></trkpt>
<trkpt lat="-38.530161" lon="143.727842">
<ele>246</ele>
<time>2025-07-25T00:08:20Z</time></trkpt>
<trkpt lat="-38.530662" lon="143.727814">
<ele>246</ele>
<time>2025-07-25T00:08:30Z</time></trkpt>
<trkpt lat="-38.530784" lon="143.727846">
<ele>246</ele>
<time>2025-07-25T00:08:32Z</time></trkpt>
<trkpt lat="-38.531304" lon="143.728087">
<ele>245</ele>
<time>2025-07-25T00:08:43Z</time></trkpt>
<trkpt lat="-38.532192" lon="143.728417">
<ele>244</ele>
<time>2025-07-25T00:09:02Z</time></trkpt>
<trkpt lat="-38.532765" lon="143.728398">
<ele>246</ele>
<time>2025-07-25T00:09:13Z</time></trkpt>
<trkpt lat="-38.533426" lon="143.728319">
<ele>251</ele>
<time>2025-07-25T00:09:27Z</time></trkpt>
<trkpt lat="-38.533426" lon="143.728319">
<ele>251</ele>
<time>2025-07-25T00:09:27Z</time></trkpt>
<trkpt lat="-38.533884" lon="143.728282">
<ele>253</ele>
<time>2025-07-25T00:09:36Z</time></trkpt>
<trkpt lat="-38.53432" lon="143.728445">
<ele>256</ele>
<time>2025-07-25T00:09:45Z</time></trkpt>
<trkpt lat="-38.535137" lon="143.729289">
<ele>258</ele>
<time>2025-07-25T00:10:06Z</time></trkpt>
<trkpt lat="-38.535572" lon="143.729684">
<ele>247</ele>
<time>2025-07-25T00:10:17Z</time></trkpt>
<trkpt lat="-38.53574" lon="143.729692">
<ele>247</ele>
<time>2025-07-25T00:10:20Z</time></trkpt>
<trkpt lat="-38.536333" lon="143.729535">
<ele>247</ele>
<time>2025-07-25T00:10:32Z</time></trkpt>
<trkpt lat="-38.536712" lon="143.729484">
<ele>245</ele>
<time>2025-07-25T00:10:40Z</time></trkpt>
<trkpt lat="-38.537129" lon="143.729489">
<ele>241</ele>
<time>2025-07-25T00:10:48Z</time></trkpt>
<trkpt lat="-38.537597" lon="143.729541">
<ele>236</ele>
<time>2025-07-25T00:10:58Z</time></trkpt>
<trkpt lat="-38.53868" lon="143.72971">
<ele>237</ele>
<time>2025-07-25T00:11:19Z</time></trkpt>
<trkpt lat="-38.539827" lon="143.729776">
<ele>234</ele>
<time>2025-07-25T00:11:42Z</time></trkpt>
<trkpt lat="-38.540232" lon="143.729818">
<ele>232</ele>
<time>2025-07-25T00:11:51Z</time></trkpt>
<trkpt lat="-38.541203" lon="143.730108">
<ele>230</ele>
<time>2025-07-25T00:12:11Z</time></trkpt>
<trkpt lat="-38.54189" lon="143.730393">
<ele>229</ele>
<time>2025-07-25T00:12:25Z</time></trkpt>
<trkpt lat="-38.54189" lon="143.730393">
<ele>229</ele>
<time>2025-07-25T00:12:25Z</time></trkpt>
<trkpt lat="-38.542556" lon="143.730741">
<ele>245</ele>
<time>2025-07-25T00:12:39Z</time></trkpt>
<trkpt lat="-38.543343" lon="143.731275">
<ele>256</ele>
<time>2025-07-25T00:12:57Z</time></trkpt>
<trkpt lat="-38.543775" lon="143.731481">
<ele>261</ele>
<time>2025-07-25T00:13:07Z</time></trkpt>
<trkpt lat="-38.544353" lon="143.731625">
<ele>264</ele>
<time>2025-07-25T00:13:18Z</time></trkpt>
<trkpt lat="-38.544985" lon="143.731699">
<ele>265</ele>
<time>2025-07-25T00:13:31Z</time></trkpt>
<trkpt lat="-38.545317" lon="143.731877">
<ele>264</ele>
<time>2025-07-25T00:13:38Z</time></trkpt>
<trkpt lat="-38.545708" lon="143.73241">
<ele>274</ele>
<time>2025-07-25T00:13:50Z</time></trkpt>
<trkpt lat="-38.546055" lon="143.733197">
<ele>287</ele>
<time>2025-07-25T00:14:04Z</time></trkpt>
<trkpt lat="-38.546165" lon="143.73335">
<ele>289</ele>
<time>2025-07-25T00:14:07Z</time></trkpt>
<trkpt lat="-38.546408" lon="143.733553">
<ele>292</ele>
<time>2025-07-25T00:14:13Z</time></trkpt>
<trkpt lat="-38.546792" lon="143.733656">
<ele>295</ele>
<time>2025-07-25T00:14:21Z</time></trkpt>
<trkpt lat="-38.547301" lon="143.733209">
<ele>286</ele>
<time>2025-07-25T00:14:33Z</time></trkpt>
<trkpt lat="-38.54757" lon="143.733019">
<ele>281</ele>
<time>2025-07-25T00:14:39Z</time></trkpt>
<trkpt lat="-38.547926" lon="143.733101">
<ele>279</ele>
<time>2025-07-25T00:14:47Z</time></trkpt>
<trkpt lat="-38.548191" lon="143.733457">
<ele>286</ele>
<time>2025-07-25T00:14:54Z</time></trkpt>
<trkpt lat="-38.548593" lon="143.734845">
<ele>306</ele>
<time>2025-07-25T00:15:18Z</time></trkpt>
<trkpt lat="-38.548695" lon="143.735024">
<ele>309</ele>
<time>2025-07-25T00:15:21Z</time></trkpt>
<trkpt lat="-38.548963" lon="143.735348">
<ele>314</ele>
<time>2025-07-25T00:15:28Z</time></trkpt>
<trkpt lat="-38.549485" lon="143.735346">
<ele>310</ele>
<time>2025-07-25T00:15:39Z</time></trkpt>
<trkpt lat="-38.549835" lon="143.7355">
<ele>312</ele>
<time>2025-07-25T00:15:46Z</time></trkpt>
<trkpt lat="-38.550219" lon="143.736007">
<ele>321</ele>
<time>2025-07-25T00:15:57Z</time></trkpt>
<trkpt lat="-38.550663" lon="143.736404">
<ele>323</ele>
<time>2025-07-25T00:16:08Z</time></trkpt>
<trkpt lat="-38.55089" lon="143.736764">
<ele>326</ele>
<time>2025-07-25T00:16:15Z</time></trkpt>
<trkpt lat="-38.55089" lon="143.736764">
<ele>326</ele>
<time>2025-07-25T00:16:15Z</time></trkpt>
<trkpt lat="-38.550907" lon="143.73679">
<ele>327</ele>
<time>2025-07-25T00:16:16Z</time></trkpt>
<trkpt lat="-38.551427" lon="143.737044">
<ele>323</ele>
<time>2025-07-25T00:16:27Z</time></trkpt>
<trkpt lat="-38.551772" lon="143.737364">
<ele>325</ele>
<time>2025-07-25T00:16:36Z</time></trkpt>
<trkpt lat="-38.55222" lon="143.73797">
<ele>325</ele>
<time>2025-07-25T00:16:49Z</time></trkpt>
<trkpt lat="-38.55228" lon="143.738093">
<ele>326</ele>
<time>2025-07-25T00:16:51Z</time></trkpt>
<trkpt lat="-38.552443" lon="143.738187">
<ele>326</ele>
<time>2025-07-25T00:16:55Z</time></trkpt>
<trkpt lat="-38.552551" lon="143.738309">
<ele>326</ele>
<time>2025-07-25T00:16:57Z</time></trkpt>
<trkpt lat="-38.552791" lon="143.738668">
<ele>324</ele>
<time>2025-07-25T00:17:05Z</time></trkpt>
<trkpt lat="-38.552865" lon="143.738823">
<ele>323</ele>
<time>2025-07-25T00:17:08Z</time></trkpt>
<trkpt lat="-38.553493" lon="143.740377">
<ele>320</ele>
<time>2025-07-25T00:17:35Z</time></trkpt>
<trkpt lat="-38.553771" lon="143.740879">
<ele>318</ele>
<time>2025-07-25T00:17:45Z</time></trkpt>
<trkpt lat="-38.554101" lon="143.741297">
<ele>317</ele>
<time>2025-07-25T00:17:54Z</time></trkpt>
<trkpt lat="-38.554578" lon="143.741828">
<ele>313</ele>
<time>2025-07-25T00:18:07Z</time></trkpt>
<trkpt lat="-38.555326" lon="143.74232">
<ele>309</ele>
<time>2025-07-25T00:18:24Z</time></trkpt>
<trkpt lat="-38.555615" lon="143.742482">
<ele>312</ele>
<time>2025-07-25T00:18:30Z</time></trkpt>
<trkpt lat="-38.555861" lon="143.742662">
<ele>312</ele>
<time>2025-07-25T00:18:36Z</time></trkpt>
<trkpt lat="-38.556148" lon="143.742968">
<ele>317</ele>
<time>2025-07-25T00:18:43Z</time></trkpt>
<trkpt lat="-38.556305" lon="143.743189">
<ele>321</ele>
<time>2025-07-25T00:18:48Z</time></trkpt>
<trkpt lat="-38.556437" lon="143.743561">
<ele>324</ele>
<time>2025-07-25T00:18:54Z</time></trkpt>
<trkpt lat="-38.556558" lon="143.743981">
<ele>324</ele>
<time>2025-07-25T00:19:01Z</time></trkpt>
<trkpt lat="-38.556898" lon="143.744368">
<ele>329</ele>
<time>2025-07-25T00:19:10Z</time></trkpt>
<trkpt lat="-38.557346" lon="143.744566">
<ele>338</ele>
<time>2025-07-25T00:19:20Z</time></trkpt>
<trkpt lat="-38.557868" lon="143.744947">
<ele>348</ele>
<time>2025-07-25T00:19:32Z</time></trkpt>
<trkpt lat="-38.558328" lon="143.745502">
<ele>359</ele>
<time>2025-07-25T00:19:44Z</time></trkpt>
<trkpt lat="-38.558422" lon="143.745796">
<ele>358</ele>
<time>2025-07-25T00:19:49Z</time></trkpt>
<trkpt lat="-38.558419" lon="143.745901">
<ele>358</ele>
<time>2025-07-25T00:19:51Z</time></trkpt>
<trkpt lat="-38.558261" lon="143.746269">
<ele>357</ele>
<time>2025-07-25T00:19:58Z</time></trkpt>
<trkpt lat="-38.558194" lon="143.746341">
<ele>356</ele>
<time>2025-07-25T00:19:59Z</time></trkpt>
<trkpt lat="-38.557812" lon="143.746929">
<ele>357</ele>
<time>2025-07-25T00:20:11Z</time></trkpt>
<trkpt lat="-38.557541" lon="143.747112">
<ele>355</ele>
<time>2025-07-25T00:20:18Z</time></trkpt>
<trkpt lat="-38.55728" lon="143.747112">
<ele>350</ele>
<time>2025-07-25T00:20:23Z</time></trkpt>
<trkpt lat="-38.556909" lon="143.747744">
<ele>354</ele>
<time>2025-07-25T00:20:35Z</time></trkpt>
<trkpt lat="-38.556846" lon="143.747916">
<ele>355</ele>
<time>2025-07-25T00:20:38Z</time></trkpt>
<trkpt lat="-38.556875" lon="143.748166">
<ele>358</ele>
<time>2025-07-25T00:20:42Z</time></trkpt>
<trkpt lat="-38.557058" lon="143.74824">
<ele>360</ele>
<time>2025-07-25T00:20:46Z</time></trkpt>
<trkpt lat="-38.557479" lon="143.748213">
<ele>363</ele>
<time>2025-07-25T00:20:54Z</time></trkpt>
<trkpt lat="-38.558063" lon="143.748008">
<ele>375</ele>
<time>2025-07-25T00:21:07Z</time></trkpt>
<trkpt lat="-38.558367" lon="143.747676">
<ele>379</ele>
<time>2025-07-25T00:21:15Z</time></trkpt>
<trkpt lat="-38.559327" lon="143.746071">
<ele>388</ele>
<time>2025-07-25T00:21:46Z</time></trkpt>
<trkpt lat="-38.559586" lon="143.745251">
<ele>384</ele>
<time>2025-07-25T00:22:00Z</time></trkpt>
<trkpt lat="-38.559759" lon="143.745139">
<ele>384</ele>
<time>2025-07-25T00:22:04Z</time></trkpt>
<trkpt lat="-38.560238" lon="143.74511">
<ele>383</ele>
<time>2025-07-25T00:22:14Z</time></trkpt>
<trkpt lat="-38.560413" lon="143.745367">
<ele>384</ele>
<time>2025-07-25T00:22:19Z</time></trkpt>
<trkpt lat="-38.560427" lon="143.745978">
<ele>389</ele>
<time>2025-07-25T00:22:28Z</time></trkpt>
<trkpt lat="-38.560392" lon="143.746417">
<ele>392</ele>
<time>2025-07-25T00:22:35Z</time></trkpt>
<trkpt lat="-38.560164" lon="143.747023">
<ele>401</ele>
<time>2025-07-25T00:22:46Z</time></trkpt>
<trkpt lat="-38.560158" lon="143.747396">
<ele>403</ele>
<time>2025-07-25T00:22:52Z</time></trkpt>
<trkpt lat="-38.56028" lon="143.747877">
<ele>408</ele>
<time>2025-07-25T00:23:00Z</time></trkpt>
<trkpt lat="-38.560546" lon="143.748354">
<ele>415</ele>
<time>2025-07-25T00:23:09Z</time></trkpt>
<trkpt lat="-38.560801" lon="143.748873">
<ele>422</ele>
<time>2025-07-25T00:23:18Z</time></trkpt>
<trkpt lat="-38.560906" lon="143.749206">
<ele>427</ele>
<time>2025-07-25T00:23:24Z</time></trkpt>
<trkpt lat="-38.561153" lon="143.749476">
<ele>431</ele>
<time>2025-07-25T00:23:31Z</time></trkpt>
<trkpt lat="-38.561518" lon="143.749469">
<ele>430</ele>
<time>2025-07-25T00:23:38Z</time></trkpt>
<trkpt lat="-38.56174" lon="143.749442">
<ele>428</ele>
<time>2025-07-25T00:23:42Z</time></trkpt>
<trkpt lat="-38.561956" lon="143.749463">
<ele>423</ele>
<time>2025-07-25T00:23:47Z</time></trkpt>
<trkpt lat="-38.56214" lon="143.749863">
<ele>424</ele>
<time>2025-07-25T00:23:54Z</time></trkpt>
<trkpt lat="-38.562088" lon="143.750423">
<ele>433</ele>
<time>2025-07-25T00:24:03Z</time></trkpt>
<trkpt lat="-38.561987" lon="143.751111">
<ele>443</ele>
<time>2025-07-25T00:24:14Z</time></trkpt>
<trkpt lat="-38.561938" lon="143.7516">
<ele>447</ele>
<time>2025-07-25T00:24:22Z</time></trkpt>
<trkpt lat="-38.562167" lon="143.752172">
<ele>448</ele>
<time>2025-07-25T00:24:32Z</time></trkpt>
<trkpt lat="-38.562322" lon="143.752268">
<ele>447</ele>
<time>2025-07-25T00:24:35Z</time></trkpt>
<trkpt lat="-38.562322" lon="143.752268">
<ele>447</ele>
<time>2025-07-25T00:24:35Z</time></trkpt>
<trkpt lat="-38.562525" lon="143.752393">
<ele>445</ele>
<time>2025-07-25T00:24:40Z</time></trkpt>
<trkpt lat="-38.562646" lon="143.752419">
<ele>446</ele>
<time>2025-07-25T00:24:42Z</time></trkpt>
<trkpt lat="-38.562637" lon="143.752476">
<ele>446</ele>
<time>2025-07-25T00:24:43Z</time></trkpt>
<trkpt lat="-38.562621" lon="143.752587">
<ele>446</ele>
<time>2025-07-25T00:24:45Z</time></trkpt>
<trkpt lat="-38.562582" lon="143.752672">
<ele>445</ele>
<time>2025-07-25T00:24:46Z</time></trkpt>
<trkpt lat="-38.562386" lon="143.752889">
<ele>444</ele>
<time>2025-07-25T00:24:51Z</time></trkpt>
<trkpt lat="-38.562226" lon="143.753111">
<ele>444</ele>
<time>2025-07-25T00:24:56Z</time></trkpt>
<trkpt lat="-38.561995" lon="143.753354">
<ele>442</ele>
<time>2025-07-25T00:25:02Z</time></trkpt>
<trkpt lat="-38.561932" lon="143.753393">
<ele>442</ele>
<time>2025-07-25T00:25:04Z</time></trkpt>
<trkpt lat="-38.561819" lon="143.753415">
<ele>442</ele>
<time>2025-07-25T00:25:06Z</time></trkpt>
<trkpt lat="-38.561639" lon="143.753394">
<ele>443</ele>
<time>2025-07-25T00:25:09Z</time></trkpt>
<trkpt lat="-38.561417" lon="143.753421">
<ele>442</ele>
<time>2025-07-25T00:25:14Z</time></trkpt>
<trkpt lat="-38.560974" lon="143.753593">
<ele>436</ele>
<time>2025-07-25T00:25:23Z</time></trkpt>
<trkpt lat="-38.560847" lon="143.753667">
<ele>434</ele>
<time>2025-07-25T00:25:26Z</time></trkpt>
<trkpt lat="-38.560739" lon="143.753769">
<ele>431</ele>
<time>2025-07-25T00:25:29Z</time></trkpt>
<trkpt lat="-38.560631" lon="143.753906">
<ele>427</ele>
<time>2025-07-25T00:25:32Z</time></trkpt>
<trkpt lat="-38.560595" lon="143.75398">
<ele>426</ele>
<time>2025-07-25T00:25:33Z</time></trkpt>
<trkpt lat="-38.560502" lon="143.754279">
<ele>421</ele>
<time>2025-07-25T00:25:38Z</time></trkpt>
<trkpt lat="-38.560413" lon="143.754641">
<ele>416</ele>
<time>2025-07-25T00:25:44Z</time></trkpt>
<trkpt lat="-38.560143" lon="143.755065">
<ele>414</ele>
<time>2025-07-25T00:25:53Z</time></trkpt>
<trkpt lat="-38.560022" lon="143.755159">
<ele>413</ele>
<time>2025-07-25T00:25:56Z</time></trkpt>
<trkpt lat="-38.55964" lon="143.755341">
<ele>407</ele>
<time>2025-07-25T00:26:04Z</time></trkpt>
<trkpt lat="-38.559166" lon="143.755618">
<ele>401</ele>
<time>2025-07-25T00:26:14Z</time></trkpt>
<trkpt lat="-38.558967" lon="143.755712">
<ele>397</ele>
<time>2025-07-25T00:26:18Z</time></trkpt>
<trkpt lat="-38.558643" lon="143.755946">
<ele>390</ele>
<time>2025-07-25T00:26:26Z</time></trkpt>
<trkpt lat="-38.558204" lon="143.756328">
<ele>383</ele>
<time>2025-07-25T00:26:36Z</time></trkpt>
<trkpt lat="-38.557812" lon="143.75659">
<ele>379</ele>
<time>2025-07-25T00:26:45Z</time></trkpt>
<trkpt lat="-38.557572" lon="143.756675">
<ele>377</ele>
<time>2025-07-25T00:26:50Z</time></trkpt>
<trkpt lat="-38.557523" lon="143.756671">
<ele>377</ele>
<time>2025-07-25T00:26:51Z</time></trkpt>
<trkpt lat="-38.557427" lon="143.756605">
<ele>376</ele>
<time>2025-07-25T00:26:54Z</time></trkpt>
<trkpt lat="-38.557388" lon="143.756549">
<ele>375</ele>
<time>2025-07-25T00:26:55Z</time></trkpt>
<trkpt lat="-38.557361" lon="143.756431">
<ele>374</ele>
<time>2025-07-25T00:26:57Z</time></trkpt>
<trkpt lat="-38.557396" lon="143.756259">
<ele>374</ele>
<time>2025-07-25T00:26:59Z</time></trkpt>
<trkpt lat="-38.557511" lon="143.755869">
<ele>373</ele>
<time>2025-07-25T00:27:06Z</time></trkpt>
<trkpt lat="-38.557593" lon="143.755294">
<ele>371</ele>
<time>2025-07-25T00:27:15Z</time></trkpt>
<trkpt lat="-38.55772" lon="143.755037">
<ele>371</ele>
<time>2025-07-25T00:27:20Z</time></trkpt>
<trkpt lat="-38.557783" lon="143.754867">
<ele>372</ele>
<time>2025-07-25T00:27:23Z</time></trkpt>
<trkpt lat="-38.557809" lon="143.754712">
<ele>374</ele>
<time>2025-07-25T00:27:25Z</time></trkpt>
<trkpt lat="-38.557867" lon="143.754562">
<ele>376</ele>
<time>2025-07-25T00:27:28Z</time></trkpt>
<trkpt lat="-38.55801" lon="143.754331">
<ele>379</ele>
<time>2025-07-25T00:27:33Z</time></trkpt>
<trkpt lat="-38.558208" lon="143.754072">
<ele>383</ele>
<time>2025-07-25T00:27:38Z</time></trkpt>
<trkpt lat="-38.55825" lon="143.753968">
<ele>385</ele>
<time>2025-07-25T00:27:40Z</time></trkpt>
<trkpt lat="-38.55825" lon="143.753968">
<ele>385</ele>
<time>2025-07-25T00:27:40Z</time></trkpt>
<trkpt lat="-38.558277" lon="143.753831">
<ele>387</ele>
<time>2025-07-25T00:27:42Z</time></trkpt>
<trkpt lat="-38.558255" lon="143.753633">
<ele>389</ele>
<time>2025-07-25T00:27:45Z</time></trkpt>
<trkpt lat="-38.558199" lon="143.753494">
<ele>390</ele>
<time>2025-07-25T00:27:48Z</time></trkpt>
<trkpt lat="-38.558102" lon="143.753319">
<ele>390</ele>
<time>2025-07-25T00:27:51Z</time></trkpt>
<trkpt lat="-38.55802" lon="143.752912">
<ele>389</ele>
<time>2025-07-25T00:27:58Z</time></trkpt>
<trkpt lat="-38.557984" lon="143.752547">
<ele>388</ele>
<time>2025-07-25T00:28:04Z</time></trkpt>
<trkpt lat="-38.557988" lon="143.752126">
<ele>388</ele>
<time>2025-07-25T00:28:10Z</time></trkpt>
<trkpt lat="-38.558037" lon="143.751799">
<ele>389</ele>
<time>2025-07-25T00:28:15Z</time></trkpt>
<trkpt lat="-38.558187" lon="143.751353">
<ele>391</ele>
<time>2025-07-25T00:28:23Z</time></trkpt>
<trkpt lat="-38.558341" lon="143.750785">
<ele>390</ele>
<time>2025-07-25T00:28:32Z</time></trkpt>
<trkpt lat="-38.558418" lon="143.750203">
<ele>387</ele>
<time>2025-07-25T00:28:42Z</time></trkpt>
<trkpt lat="-38.558532" lon="143.749739">
<ele>388</ele>
<time>2025-07-25T00:28:49Z</time></trkpt>
<trkpt lat="-38.558555" lon="143.749543">
<ele>389</ele>
<time>2025-07-25T00:28:52Z</time></trkpt>
<trkpt lat="-38.558538" lon="143.74939">
<ele>388</ele>
<time>2025-07-25T00:28:55Z</time></trkpt>
<trkpt lat="-38.558496" lon="143.749232">
<ele>387</ele>
<time>2025-07-25T00:28:57Z</time></trkpt>
<trkpt lat="-38.558248" lon="143.74884">
<ele>381</ele>
<time>2025-07-25T00:29:05Z</time></trkpt>
<trkpt lat="-38.558178" lon="143.748584">
<ele>381</ele>
<time>2025-07-25T00:29:10Z</time></trkpt>
<trkpt lat="-38.558156" lon="143.748257">
<ele>380</ele>
<time>2025-07-25T00:29:15Z</time></trkpt>
<trkpt lat="-38.558133" lon="143.748153">
<ele>378</ele>
<time>2025-07-25T00:29:16Z</time></trkpt>
<trkpt lat="-38.558063" lon="143.748008">
<ele>375</ele>
<time>2025-07-25T00:29:19Z</time></trkpt>
<trkpt lat="-38.557479" lon="143.748213">
<ele>363</ele>
<time>2025-07-25T00:29:31Z</time></trkpt>
<trkpt lat="-38.557058" lon="143.74824">
<ele>360</ele>
<time>2025-07-25T00:29:40Z</time></trkpt>
<trkpt lat="-38.556875" lon="143.748166">
<ele>358</ele>
<time>2025-07-25T00:29:43Z</time></trkpt>
<trkpt lat="-38.556846" lon="143.747916">
<ele>355</ele>
<time>2025-07-25T00:29:47Z</time></trkpt>
<trkpt lat="-38.556909" lon="143.747744">
<ele>354</ele>
<time>2025-07-25T00:29:50Z</time></trkpt>
<trkpt lat="-38.55728" lon="143.747112">
<ele>350</ele>
<time>2025-07-25T00:30:03Z</time></trkpt>
<trkpt lat="-38.557541" lon="143.747112">
<ele>355</ele>
<time>2025-07-25T00:30:08Z</time></trkpt>
<trkpt lat="-38.557812" lon="143.746929">
<ele>357</ele>
<time>2025-07-25T00:30:14Z</time></trkpt>
<trkpt lat="-38.558194" lon="143.746341">
<ele>356</ele>
<time>2025-07-25T00:30:26Z</time></trkpt>
<trkpt lat="-38.558261" lon="143.746269">
<ele>357</ele>
<time>2025-07-25T00:30:28Z</time></trkpt>
<trkpt lat="-38.558419" lon="143.745901">
<ele>358</ele>
<time>2025-07-25T00:30:34Z</time></trkpt>
<trkpt lat="-38.558422" lon="143.745796">
<ele>358</ele>
<time>2025-07-25T00:30:36Z</time></trkpt>
<trkpt lat="-38.558328" lon="143.745502">
<ele>359</ele>
<time>2025-07-25T00:30:41Z</time></trkpt>
<trkpt lat="-38.557868" lon="143.744947">
<ele>348</ele>
<time>2025-07-25T00:30:54Z</time></trkpt>
<trkpt lat="-38.557346" lon="143.744566">
<ele>338</ele>
<time>2025-07-25T00:31:06Z</time></trkpt>
<trkpt lat="-38.556898" lon="143.744368">
<ele>329</ele>
<time>2025-07-25T00:31:15Z</time></trkpt>
<trkpt lat="-38.556558" lon="143.743981">
<ele>324</ele>
<time>2025-07-25T00:31:24Z</time></trkpt>
<trkpt lat="-38.556437" lon="143.743561">
<ele>324</ele>
<time>2025-07-25T00:31:31Z</time></trkpt>
<trkpt lat="-38.556305" lon="143.743189">
<ele>321</ele>
<time>2025-07-25T00:31:38Z</time></trkpt>
<trkpt lat="-38.556148" lon="143.742968">
<ele>317</ele>
<time>2025-07-25T00:31:43Z</time></trkpt>
<trkpt lat="-38.555861" lon="143.742662">
<ele>312</ele>
<time>2025-07-25T00:31:50Z</time></trkpt>
<trkpt lat="-38.555615" lon="143.742482">
<ele>312</ele>
<time>2025-07-25T00:31:56Z</time></trkpt>
<trkpt lat="-38.555326" lon="143.74232">
<ele>309</ele>
<time>2025-07-25T00:32:02Z</time></trkpt>
<trkpt lat="-38.554578" lon="143.741828">
<ele>313</ele>
<time>2025-07-25T00:32:19Z</time></trkpt>
<trkpt lat="-38.554101" lon="143.741297">
<ele>317</ele>
<time>2025-07-25T00:32:32Z</time></trkpt>
<trkpt lat="-38.553771" lon="143.740879">
<ele>318</ele>
<time>2025-07-25T00:32:41Z</time></trkpt>
<trkpt lat="-38.553493" lon="143.740377">
<ele>320</ele>
<time>2025-07-25T00:32:50Z</time></trkpt>
<trkpt lat="-38.553111" lon="143.739432">
<ele>321</ele>
<time>2025-07-25T00:33:07Z</time></trkpt>
<trkpt lat="-38.553111" lon="143.739432">
<ele>321</ele>
<time>2025-07-25T00:33:07Z</time></trkpt>
<trkpt lat="-38.552791" lon="143.738668">
<ele>324</ele>
<time>2025-07-25T00:33:21Z</time></trkpt>
<trkpt lat="-38.552551" lon="143.738309">
<ele>326</ele>
<time>2025-07-25T00:33:28Z</time></trkpt>
<trkpt lat="-38.552555" lon="143.738424">
<ele>326</ele>
<time>2025-07-25T00:33:30Z</time></trkpt>
<trkpt lat="-38.552466" lon="143.738561">
<ele>327</ele>
<time>2025-07-25T00:33:33Z</time></trkpt>
<trkpt lat="-38.552363" lon="143.738626">
<ele>328</ele>
<time>2025-07-25T00:33:35Z</time></trkpt>
<trkpt lat="-38.552058" lon="143.738696">
<ele>328</ele>
<time>2025-07-25T00:33:41Z</time></trkpt>
<trkpt lat="-38.551813" lon="143.738882">
<ele>328</ele>
<time>2025-07-25T00:33:47Z</time></trkpt>
<trkpt lat="-38.551689" lon="143.738923">
<ele>328</ele>
<time>2025-07-25T00:33:50Z</time></trkpt>
<trkpt lat="-38.551427" lon="143.738951">
<ele>328</ele>
<time>2025-07-25T00:33:55Z</time></trkpt>
<trkpt lat="-38.551345" lon="143.738939">
<ele>328</ele>
<time>2025-07-25T00:33:56Z</time></trkpt>
<trkpt lat="-38.551062" lon="143.738951">
<ele>328</ele>
<time>2025-07-25T00:34:02Z</time></trkpt>
<trkpt lat="-38.550931" lon="143.739007">
<ele>327</ele>
<time>2025-07-25T00:34:05Z</time></trkpt>
<trkpt lat="-38.550767" lon="143.739151">
<ele>324</ele>
<time>2025-07-25T00:34:09Z</time></trkpt>
<trkpt lat="-38.550529" lon="143.739288">
<ele>321</ele>
<time>2025-07-25T00:34:14Z</time></trkpt>
<trkpt lat="-38.550529" lon="143.739288">
<ele>321</ele>
<time>2025-07-25T00:34:14Z</time></trkpt>
<trkpt lat="-38.550193" lon="143.739599">
<ele>314</ele>
<time>2025-07-25T00:34:22Z</time></trkpt>
<trkpt lat="-38.549856" lon="143.739719">
<ele>308</ele>
<time>2025-07-25T00:34:29Z</time></trkpt>
<trkpt lat="-38.549751" lon="143.739736">
<ele>306</ele>
<time>2025-07-25T00:34:32Z</time></trkpt>
<trkpt lat="-38.5495" lon="143.739679">
<ele>304</ele>
<time>2025-07-25T00:34:37Z</time></trkpt>
<trkpt lat="-38.549362" lon="143.739606">
<ele>304</ele>
<time>2025-07-25T00:34:40Z</time></trkpt>
<trkpt lat="-38.54916" lon="143.739434">
<ele>304</ele>
<time>2025-07-25T00:34:44Z</time></trkpt>
<trkpt lat="-38.548921" lon="143.739408">
<ele>300</ele>
<time>2025-07-25T00:34:49Z</time></trkpt>
<trkpt lat="-38.54873" lon="143.739411">
<ele>296</ele>
<time>2025-07-25T00:34:53Z</time></trkpt>
<trkpt lat="-38.548667" lon="143.739382">
<ele>296</ele>
<time>2025-07-25T00:34:54Z</time></trkpt>
<trkpt lat="-38.548434" lon="143.739106">
<ele>295</ele>
<time>2025-07-25T00:35:01Z</time></trkpt>
<trkpt lat="-38.548368" lon="143.739107">
<ele>294</ele>
<time>2025-07-25T00:35:02Z</time></trkpt>
<trkpt lat="-38.54836" lon="143.739217">
<ele>292</ele>
<time>2025-07-25T00:35:04Z</time></trkpt>
<trkpt lat="-38.548422" lon="143.739485">
<ele>290</ele>
<time>2025-07-25T00:35:08Z</time></trkpt>
<trkpt lat="-38.548511" lon="143.739767">
<ele>288</ele>
<time>2025-07-25T00:35:13Z</time></trkpt>
<trkpt lat="-38.548589" lon="143.739904">
<ele>287</ele>
<time>2025-07-25T00:35:16Z</time></trkpt>
<trkpt lat="-38.548656" lon="143.739994">
<ele>287</ele>
<time>2025-07-25T00:35:18Z</time></trkpt>
<trkpt lat="-38.548836" lon="143.740171">
<ele>286</ele>
<time>2025-07-25T00:35:22Z</time></trkpt>
<trkpt lat="-38.548965" lon="143.740357">
<ele>283</ele>
<time>2025-07-25T00:35:26Z</time></trkpt>
<trkpt lat="-38.549186" lon="143.740628">
<ele>280</ele>
<time>2025-07-25T00:35:32Z</time></trkpt>
<trkpt lat="-38.549291" lon="143.74071">
<ele>279</ele>
<time>2025-07-25T00:35:35Z</time></trkpt>
<trkpt lat="-38.549472" lon="143.740738">
<ele>280</ele>
<time>2025-07-25T00:35:38Z</time></trkpt>
<trkpt lat="-38.549464" lon="143.740802">
<ele>279</ele>
<time>2025-07-25T00:35:39Z</time></trkpt>
<trkpt lat="-38.549363" lon="143.74085">
<ele>277</ele>
<time>2025-07-25T00:35:42Z</time></trkpt>
<trkpt lat="-38.549363" lon="143.740918">
<ele>275</ele>
<time>2025-07-25T00:35:43Z</time></trkpt>
<trkpt lat="-38.549399" lon="143.74099">
<ele>274</ele>
<time>2025-07-25T00:35:44Z</time></trkpt>
<trkpt lat="-38.549605" lon="143.741166">
<ele>272</ele>
<time>2025-07-25T00:35:49Z</time></trkpt>
<trkpt lat="-38.549726" lon="143.74136">
<ele>269</ele>
<time>2025-07-25T00:35:53Z</time></trkpt>
<trkpt lat="-38.549737" lon="143.741431">
<ele>268</ele>
<time>2025-07-25T00:35:54Z</time></trkpt>
<trkpt lat="-38.549718" lon="143.741472">
<ele>267</ele>
<time>2025-07-25T00:35:55Z</time></trkpt>
<trkpt lat="-38.549641" lon="143.741553">
<ele>265</ele>
<time>2025-07-25T00:35:57Z</time></trkpt>
<trkpt lat="-38.549625" lon="143.741617">
<ele>263</ele>
<time>2025-07-25T00:35:58Z</time></trkpt>
<trkpt lat="-38.549639" lon="143.741702">
<ele>261</ele>
<time>2025-07-25T00:35:59Z</time></trkpt>
<trkpt lat="-38.549739" lon="143.741875">
<ele>259</ele>
<time>2025-07-25T00:36:02Z</time></trkpt>
<trkpt lat="-38.549858" lon="143.741995">
<ele>258</ele>
<time>2025-07-25T00:36:05Z</time></trkpt>
<trkpt lat="-38.549894" lon="143.742053">
<ele>258</ele>
<time>2025-07-25T00:36:07Z</time></trkpt>
<trkpt lat="-38.549914" lon="143.742126">
<ele>257</ele>
<time>2025-07-25T00:36:08Z</time></trkpt>
<trkpt lat="-38.549909" lon="143.742348">
<ele>253</ele>
<time>2025-07-25T00:36:11Z</time></trkpt>
<trkpt lat="-38.549922" lon="143.742432">
<ele>251</ele>
<time>2025-07-25T00:36:13Z</time></trkpt>
<trkpt lat="-38.550039" lon="143.742693">
<ele>249</ele>
<time>2025-07-25T00:36:17Z</time></trkpt>
<trkpt lat="-38.550064" lon="143.742973">
<ele>245</ele>
<time>2025-07-25T00:36:22Z</time></trkpt>
<trkpt lat="-38.550153" lon="143.743153">
<ele>245</ele>
<time>2025-07-25T00:36:25Z</time></trkpt>
<trkpt lat="-38.550205" lon="143.743346">
<ele>243</ele>
<time>2025-07-25T00:36:28Z</time></trkpt>
<trkpt lat="-38.550268" lon="143.743627">
<ele>241</ele>
<time>2025-07-25T00:36:33Z</time></trkpt>
<trkpt lat="-38.550305" lon="143.743928">
<ele>238</ele>
<time>2025-07-25T00:36:38Z</time></trkpt>
<trkpt lat="-38.550337" lon="143.744054">
<ele>237</ele>
<time>2025-07-25T00:36:40Z</time></trkpt>
<trkpt lat="-38.550391" lon="143.744197">
<ele>237</ele>
<time>2025-07-25T00:36:42Z</time></trkpt>
<trkpt lat="-38.550619" lon="143.744509">
<ele>240</ele>
<time>2025-07-25T00:36:49Z</time></trkpt>
<trkpt lat="-38.550635" lon="143.744583">
<ele>240</ele>
<time>2025-07-25T00:36:50Z</time></trkpt>
<trkpt lat="-38.550624" lon="143.744805">
<ele>238</ele>
<time>2025-07-25T00:36:54Z</time></trkpt>
<trkpt lat="-38.550663" lon="143.745006">
<ele>238</ele>
<time>2025-07-25T00:36:57Z</time></trkpt>
<trkpt lat="-38.550646" lon="143.745106">
<ele>236</ele>
<time>2025-07-25T00:36:58Z</time></trkpt>
<trkpt lat="-38.550595" lon="143.745161">
<ele>235</ele>
<time>2025-07-25T00:37:00Z</time></trkpt>
<trkpt lat="-38.5505" lon="143.7452">
<ele>233</ele>
<time>2025-07-25T00:37:02Z</time></trkpt>
<trkpt lat="-38.550462" lon="143.7451">
<ele>233</ele>
<time>2025-07-25T00:37:04Z</time></trkpt>
<trkpt lat="-38.55027" lon="143.744742">
<ele>231</ele>
<time>2025-07-25T00:37:10Z</time></trkpt>
<trkpt lat="-38.550256" lon="143.74472">
<ele>231</ele>
<time>2025-07-25T00:37:11Z</time></trkpt>
<trkpt lat="-38.550256" lon="143.74472">
<ele>231</ele>
<time>2025-07-25T00:37:11Z</time></trkpt>
<trkpt lat="-38.550197" lon="143.744625">
<ele>230</ele>
<time>2025-07-25T00:37:13Z</time></trkpt>
<trkpt lat="-38.550046" lon="143.744278">
<ele>228</ele>
<time>2025-07-25T00:37:19Z</time></trkpt>
<trkpt lat="-38.55003" lon="143.743793">
<ele>233</ele>
<time>2025-07-25T00:37:27Z</time></trkpt>
<trkpt lat="-38.549957" lon="143.743282">
<ele>238</ele>
<time>2025-07-25T00:37:35Z</time></trkpt>
<trkpt lat="-38.549831" lon="143.742888">
<ele>242</ele>
<time>2025-07-25T00:37:41Z</time></trkpt>
<trkpt lat="-38.549729" lon="143.742662">
<ele>245</ele>
<time>2025-07-25T00:37:45Z</time></trkpt>
<trkpt lat="-38.549624" lon="143.742501">
<ele>246</ele>
<time>2025-07-25T00:37:49Z</time></trkpt>
<trkpt lat="-38.54931" lon="143.742147">
<ele>249</ele>
<time>2025-07-25T00:37:57Z</time></trkpt>
<trkpt lat="-38.54914" lon="143.742004">
<ele>250</ele>
<time>2025-07-25T00:38:01Z</time></trkpt>
<trkpt lat="-38.548988" lon="143.74192">
<ele>250</ele>
<time>2025-07-25T00:38:05Z</time></trkpt>
<trkpt lat="-38.548785" lon="143.741764">
<ele>250</ele>
<time>2025-07-25T00:38:09Z</time></trkpt>
<trkpt lat="-38.548653" lon="143.741558">
<ele>253</ele>
<time>2025-07-25T00:38:13Z</time></trkpt>
<trkpt lat="-38.548529" lon="143.7412">
<ele>260</ele>
<time>2025-07-25T00:38:20Z</time></trkpt>
<trkpt lat="-38.548254" lon="143.740784">
<ele>267</ele>
<time>2025-07-25T00:38:28Z</time></trkpt>
<trkpt lat="-38.548094" lon="143.74049">
<ele>269</ele>
<time>2025-07-25T00:38:34Z</time></trkpt>
<trkpt lat="-38.547957" lon="143.740137">
<ele>272</ele>
<time>2025-07-25T00:38:40Z</time></trkpt>
<trkpt lat="-38.547938" lon="143.740029">
<ele>273</ele>
<time>2025-07-25T00:38:42Z</time></trkpt>
<trkpt lat="-38.547942" lon="143.739841">
<ele>276</ele>
<time>2025-07-25T00:38:45Z</time></trkpt>
<trkpt lat="-38.548056" lon="143.739471">
<ele>282</ele>
<time>2025-07-25T00:38:51Z</time></trkpt>
<trkpt lat="-38.548054" lon="143.739003">
<ele>288</ele>
<time>2025-07-25T00:38:58Z</time></trkpt>
<trkpt lat="-38.548112" lon="143.738569">
<ele>296</ele>
<time>2025-07-25T00:39:05Z</time></trkpt>
<trkpt lat="-38.54818" lon="143.738241">
<ele>302</ele>
<time>2025-07-25T00:39:10Z</time></trkpt>
<trkpt lat="-38.548182" lon="143.737914">
<ele>306</ele>
<time>2025-07-25T00:39:15Z</time></trkpt>
<trkpt lat="-38.547997" lon="143.737245">
<ele>313</ele>
<time>2025-07-25T00:39:27Z</time></trkpt>
<trkpt lat="-38.547872" lon="143.737036">
<ele>314</ele>
<time>2025-07-25T00:39:31Z</time></trkpt>
<trkpt lat="-38.547793" lon="143.73695">
<ele>314</ele>
<time>2025-07-25T00:39:33Z</time></trkpt>
<trkpt lat="-38.54723" lon="143.736524">
<ele>312</ele>
<time>2025-07-25T00:39:46Z</time></trkpt>
<trkpt lat="-38.54665" lon="143.73582">
<ele>314</ele>
<time>2025-07-25T00:40:02Z</time></trkpt>
<trkpt lat="-38.546583" lon="143.735774">
<ele>313</ele>
<time>2025-07-25T00:40:03Z</time></trkpt>
<trkpt lat="-38.546543" lon="143.735722">
<ele>312</ele>
<time>2025-07-25T00:40:05Z</time></trkpt>
<trkpt lat="-38.546524" lon="143.735663">
<ele>312</ele>
<time>2025-07-25T00:40:06Z</time></trkpt>
<trkpt lat="-38.546544" lon="143.735614">
<ele>313</ele>
<time>2025-07-25T00:40:06Z</time></trkpt>
<trkpt lat="-38.546663" lon="143.735559">
<ele>316</ele>
<time>2025-07-25T00:40:09Z</time></trkpt>
<trkpt lat="-38.547278" lon="143.735537">
<ele>323</ele>
<time>2025-07-25T00:40:21Z</time></trkpt>
<trkpt lat="-38.547278" lon="143.735537">
<ele>323</ele>
<time>2025-07-25T00:40:21Z</time></trkpt>
<trkpt lat="-38.547672" lon="143.735567">
<ele>324</ele>
<time>2025-07-25T00:40:29Z</time></trkpt>
<trkpt lat="-38.548184" lon="143.735651">
<ele>324</ele>
<time>2025-07-25T00:40:40Z</time></trkpt>
<trkpt lat="-38.548312" lon="143.735733">
<ele>326</ele>
<time>2025-07-25T00:40:42Z</time></trkpt>
<trkpt lat="-38.548606" lon="143.736087">
<ele>328</ele>
<time>2025-07-25T00:40:51Z</time></trkpt>
<trkpt lat="-38.548748" lon="143.736175">
<ele>330</ele>
<time>2025-07-25T00:40:54Z</time></trkpt>
<trkpt lat="-38.548565" lon="143.735889">
<ele>328</ele>
<time>2025-07-25T00:40:59Z</time></trkpt>
<trkpt lat="-38.548272" lon="143.735493">
<ele>322</ele>
<time>2025-07-25T00:41:08Z</time></trkpt>
<trkpt lat="-38.548132" lon="143.735416">
<ele>322</ele>
<time>2025-07-25T00:41:11Z</time></trkpt>
<trkpt lat="-38.547837" lon="143.735379">
<ele>324</ele>
<time>2025-07-25T00:41:17Z</time></trkpt>
<trkpt lat="-38.547596" lon="143.735246">
<ele>326</ele>
<time>2025-07-25T00:41:22Z</time></trkpt>
<trkpt lat="-38.54733" lon="143.735136">
<ele>326</ele>
<time>2025-07-25T00:41:28Z</time></trkpt>
<trkpt lat="-38.54715" lon="143.734907">
<ele>324</ele>
<time>2025-07-25T00:41:33Z</time></trkpt>
<trkpt lat="-38.547001" lon="143.734784">
<ele>321</ele>
<time>2025-07-25T00:41:37Z</time></trkpt>
<trkpt lat="-38.546919" lon="143.734771">
<ele>320</ele>
<time>2025-07-25T00:41:38Z</time></trkpt>
<trkpt lat="-38.546795" lon="143.734815">
<ele>319</ele>
<time>2025-07-25T00:41:41Z</time></trkpt>
<trkpt lat="-38.546751" lon="143.734802">
<ele>319</ele>
<time>2025-07-25T00:41:42Z</time></trkpt>
<trkpt lat="-38.546663" lon="143.734612">
<ele>315</ele>
<time>2025-07-25T00:41:45Z</time></trkpt>
<trkpt lat="-38.546518" lon="143.734537">
<ele>311</ele>
<time>2025-07-25T00:41:48Z</time></trkpt>
<trkpt lat="-38.546496" lon="143.734506">
<ele>311</ele>
<time>2025-07-25T00:41:49Z</time></trkpt>
<trkpt lat="-38.546475" lon="143.73436">
<ele>308</ele>
<time>2025-07-25T00:41:51Z</time></trkpt>
<trkpt lat="-38.54645" lon="143.73433">
<ele>308</ele>
<time>2025-07-25T00:41:52Z</time></trkpt>
<trkpt lat="-38.546358" lon="143.734302">
<ele>306</ele>
<time>2025-07-25T00:41:54Z</time></trkpt>
<trkpt lat="-38.546307" lon="143.734265">
<ele>305</ele>
<time>2025-07-25T00:41:55Z</time></trkpt>
<trkpt lat="-38.546297" lon="143.734225">
<ele>305</ele>
<time>2025-07-25T00:41:56Z</time></trkpt>
<trkpt lat="-38.54631" lon="143.734096">
<ele>303</ele>
<time>2025-07-25T00:41:58Z</time></trkpt>
<trkpt lat="-38.546297" lon="143.734058">
<ele>302</ele>
<time>2025-07-25T00:41:58Z</time></trkpt>
<trkpt lat="-38.546233" lon="143.734006">
<ele>301</ele>
<time>2025-07-25T00:42:00Z</time></trkpt>
<trkpt lat="-38.545948" lon="143.733865">
<ele>297</ele>
<time>2025-07-25T00:42:06Z</time></trkpt>
<trkpt lat="-38.545831" lon="143.733782">
<ele>296</ele>
<time>2025-07-25T00:42:09Z</time></trkpt>
<trkpt lat="-38.545767" lon="143.7337">
<ele>295</ele>
<time>2025-07-25T00:42:10Z</time></trkpt>
<trkpt lat="-38.545767" lon="143.7337">
<ele>295</ele>
<time>2025-07-25T00:42:10Z</time></trkpt>
<trkpt lat="-38.545733" lon="143.733657">
<ele>294</ele>
<time>2025-07-25T00:42:11Z</time></trkpt>
<trkpt lat="-38.545608" lon="143.733357">
<ele>293</ele>
<time>2025-07-25T00:42:17Z</time></trkpt>
<trkpt lat="-38.54553" lon="143.733097">
<ele>290</ele>
<time>2025-07-25T00:42:21Z</time></trkpt>
<trkpt lat="-38.545409" lon="143.732822">
<ele>288</ele>
<time>2025-07-25T00:42:26Z</time></trkpt>
<trkpt lat="-38.545259" lon="143.732575">
<ele>287</ele>
<time>2025-07-25T00:42:31Z</time></trkpt>
<trkpt lat="-38.545157" lon="143.732508">
<ele>288</ele>
<time>2025-07-25T00:42:33Z</time></trkpt>
<trkpt lat="-38.544616" lon="143.732293">
<ele>283</ele>
<time>2025-07-25T00:42:45Z</time></trkpt>
<trkpt lat="-38.544278" lon="143.732076">
<ele>276</ele>
<time>2025-07-25T00:42:52Z</time></trkpt>
<trkpt lat="-38.543859" lon="143.731926">
<ele>270</ele>
<time>2025-07-25T00:43:01Z</time></trkpt>
<trkpt lat="-38.54366" lon="143.731775">
<ele>267</ele>
<time>2025-07-25T00:43:06Z</time></trkpt>
<trkpt lat="-38.543305" lon="143.731584">
<ele>263</ele>
<time>2025-07-25T00:43:13Z</time></trkpt>
<trkpt lat="-38.542975" lon="143.731244">
<ele>251</ele>
<time>2025-07-25T00:43:22Z</time></trkpt>
<trkpt lat="-38.542564" lon="143.730887">
<ele>248</ele>
<time>2025-07-25T00:43:32Z</time></trkpt>
<trkpt lat="-38.542162" lon="143.730621">
<ele>236</ele>
<time>2025-07-25T00:43:41Z</time></trkpt>
<trkpt lat="-38.541993" lon="143.730435">
<ele>230</ele>
<time>2025-07-25T00:43:45Z</time></trkpt>
<trkpt lat="-38.541998" lon="143.730308">
<ele>229</ele>
<time>2025-07-25T00:43:47Z</time></trkpt>
<trkpt lat="-38.542038" lon="143.730308">
<ele>229</ele>
<time>2025-07-25T00:43:48Z</time></trkpt>
<trkpt lat="-38.542052" lon="143.73026">
<ele>228</ele>
<time>2025-07-25T00:43:49Z</time></trkpt>
<trkpt lat="-38.541851" lon="143.730096">
<ele>226</ele>
<time>2025-07-25T00:43:54Z</time></trkpt>
<trkpt lat="-38.541466" lon="143.729908">
<ele>225</ele>
<time>2025-07-25T00:44:02Z</time></trkpt>
<trkpt lat="-38.541254" lon="143.729847">
<ele>225</ele>
<time>2025-07-25T00:44:06Z</time></trkpt>
<trkpt lat="-38.541254" lon="143.729847">
<ele>225</ele>
<time>2025-07-25T00:44:06Z</time></trkpt>
<trkpt lat="-38.540805" lon="143.72972">
<ele>226</ele>
<time>2025-07-25T00:44:15Z</time></trkpt>
<trkpt lat="-38.540069" lon="143.729444">
<ele>230</ele>
<time>2025-07-25T00:44:31Z</time></trkpt>
<trkpt lat="-38.538905" lon="143.729257">
<ele>236</ele>
<time>2025-07-25T00:44:54Z</time></trkpt>
<trkpt lat="-38.538183" lon="143.729452">
<ele>236</ele>
<time>2025-07-25T00:45:09Z</time></trkpt>
<trkpt lat="-38.536997" lon="143.729422">
<ele>243</ele>
<time>2025-07-25T00:45:33Z</time></trkpt>
<trkpt lat="-38.53678" lon="143.729065">
<ele>250</ele>
<time>2025-07-25T00:45:40Z</time></trkpt>
<trkpt lat="-38.536598" lon="143.729041">
<ele>253</ele>
<time>2025-07-25T00:45:44Z</time></trkpt>
<trkpt lat="-38.536413" lon="143.729052">
<ele>255</ele>
<time>2025-07-25T00:45:47Z</time></trkpt>
<trkpt lat="-38.536324" lon="143.729008">
<ele>256</ele>
<time>2025-07-25T00:45:49Z</time></trkpt>
<trkpt lat="-38.536086" lon="143.728803">
<ele>257</ele>
<time>2025-07-25T00:45:55Z</time></trkpt>
<trkpt lat="-38.535945" lon="143.728717">
<ele>259</ele>
<time>2025-07-25T00:45:58Z</time></trkpt>
<trkpt lat="-38.535256" lon="143.728621">
<ele>261</ele>
<time>2025-07-25T00:46:12Z</time></trkpt>
<trkpt lat="-38.534823" lon="143.728474">
<ele>260</ele>
<time>2025-07-25T00:46:21Z</time></trkpt>
<trkpt lat="-38.534745" lon="143.728379">
<ele>260</ele>
<time>2025-07-25T00:46:23Z</time></trkpt>
<trkpt lat="-38.534662" lon="143.728162">
<ele>256</ele>
<time>2025-07-25T00:46:27Z</time></trkpt>
<trkpt lat="-38.534581" lon="143.728024">
<ele>253</ele>
<time>2025-07-25T00:46:30Z</time></trkpt>
<trkpt lat="-38.534581" lon="143.728024">
<ele>253</ele>
<time>2025-07-25T00:46:30Z</time></trkpt>
<trkpt lat="-38.534495" lon="143.727942">
<ele>251</ele>
<time>2025-07-25T00:46:32Z</time></trkpt>
<trkpt lat="-38.534415" lon="143.727897">
<ele>250</ele>
<time>2025-07-25T00:46:34Z</time></trkpt>
<trkpt lat="-38.534225" lon="143.727851">
<ele>248</ele>
<time>2025-07-25T00:46:37Z</time></trkpt>
<trkpt lat="-38.534059" lon="143.727843">
<ele>247</ele>
<time>2025-07-25T00:46:41Z</time></trkpt>
<trkpt lat="-38.533879" lon="143.727878">
<ele>247</ele>
<time>2025-07-25T00:46:44Z</time></trkpt>
<trkpt lat="-38.533473" lon="143.727912">
<ele>246</ele>
<time>2025-07-25T00:46:53Z</time></trkpt>
<trkpt lat="-38.533407" lon="143.7279">
<ele>245</ele>
<time>2025-07-25T00:46:54Z</time></trkpt>
<trkpt lat="-38.533321" lon="143.727825">
<ele>244</ele>
<time>2025-07-25T00:46:56Z</time></trkpt>
<trkpt lat="-38.53318" lon="143.727643">
<ele>241</ele>
<time>2025-07-25T00:47:00Z</time></trkpt>
<trkpt lat="-38.533085" lon="143.727628">
<ele>241</ele>
<time>2025-07-25T00:47:02Z</time></trkpt>
<trkpt lat="-38.533036" lon="143.727664">
<ele>241</ele>
<time>2025-07-25T00:47:03Z</time></trkpt>
<trkpt lat="-38.532941" lon="143.727791">
<ele>243</ele>
<time>2025-07-25T00:47:06Z</time></trkpt>
<trkpt lat="-38.532892" lon="143.727894">
<ele>243</ele>
<time>2025-07-25T00:47:08Z</time></trkpt>
<trkpt lat="-38.532868" lon="143.728119">
<ele>246</ele>
<time>2025-07-25T00:47:11Z</time></trkpt>
<trkpt lat="-38.532727" lon="143.728107">
<ele>245</ele>
<time>2025-07-25T00:47:14Z</time></trkpt>
<trkpt lat="-38.532359" lon="143.728172">
<ele>244</ele>
<time>2025-07-25T00:47:22Z</time></trkpt>
<trkpt lat="-38.532219" lon="143.72817">
<ele>244</ele>
<time>2025-07-25T00:47:24Z</time></trkpt>
<trkpt lat="-38.531978" lon="143.728097">
<ele>245</ele>
<time>2025-07-25T00:47:29Z</time></trkpt>
<trkpt lat="-38.531796" lon="143.728002">
<ele>245</ele>
<time>2025-07-25T00:47:33Z</time></trkpt>
<trkpt lat="-38.531627" lon="143.727849">
<ele>246</ele>
<time>2025-07-25T00:47:37Z</time></trkpt>
<trkpt lat="-38.531627" lon="143.727849">
<ele>246</ele>
<time>2025-07-25T00:47:37Z</time></trkpt>
<trkpt lat="-38.531546" lon="143.727775">
<ele>246</ele>
<time>2025-07-25T00:47:39Z</time></trkpt>
<trkpt lat="-38.53123" lon="143.72736">
<ele>245</ele>
<time>2025-07-25T00:47:48Z</time></trkpt>
<trkpt lat="-38.531042" lon="143.727169">
<ele>244</ele>
<time>2025-07-25T00:47:53Z</time></trkpt>
<trkpt lat="-38.530919" lon="143.727229">
<ele>245</ele>
<time>2025-07-25T00:47:56Z</time></trkpt>
<trkpt lat="-38.53065" lon="143.727319">
<ele>246</ele>
<time>2025-07-25T00:48:01Z</time></trkpt>
<trkpt lat="-38.530361" lon="143.72735">
<ele>247</ele>
<time>2025-07-25T00:48:07Z</time></trkpt>
<trkpt lat="-38.530264" lon="143.727342">
<ele>247</ele>
<time>2025-07-25T00:48:09Z</time></trkpt>
<trkpt lat="-38.530069" lon="143.727386">
<ele>248</ele>
<time>2025-07-25T00:48:13Z</time></trkpt>
<trkpt lat="-38.529585" lon="143.727408">
<ele>247</ele>
<time>2025-07-25T00:48:23Z</time></trkpt>
<trkpt lat="-38.529472" lon="143.727449">
<ele>247</ele>
<time>2025-07-25T00:48:25Z</time></trkpt>
<trkpt lat="-38.529266" lon="143.727484">
<ele>247</ele>
<time>2025-07-25T00:48:29Z</time></trkpt>
<trkpt lat="-38.529148" lon="143.727485">
<ele>247</ele>
<time>2025-07-25T00:48:32Z</time></trkpt>
<trkpt lat="-38.52894" lon="143.727366">
<ele>247</ele>
<time>2025-07-25T00:48:36Z</time></trkpt>
<trkpt lat="-38.528746" lon="143.727215">
<ele>247</ele>
<time>2025-07-25T00:48:41Z</time></trkpt>
<trkpt lat="-38.528463" lon="143.726941">
<ele>247</ele>
<time>2025-07-25T00:48:48Z</time></trkpt>
<trkpt lat="-38.52836" lon="143.726819">
<ele>247</ele>
<time>2025-07-25T00:48:51Z</time></trkpt>
<trkpt lat="-38.52832" lon="143.726747">
<ele>247</ele>
<time>2025-07-25T00:48:52Z</time></trkpt>
<trkpt lat="-38.52832" lon="143.726747">
<ele>247</ele>
<time>2025-07-25T00:48:52Z</time></trkpt>
<trkpt lat="-38.528094" lon="143.726338">
<ele>245</ele>
<time>2025-07-25T00:49:00Z</time></trkpt>
<trkpt lat="-38.527951" lon="143.725969">
<ele>242</ele>
<time>2025-07-25T00:49:07Z</time></trkpt>
<trkpt lat="-38.527888" lon="143.725854">
<ele>242</ele>
<time>2025-07-25T00:49:09Z</time></trkpt>
<trkpt lat="-38.527813" lon="143.72575">
<ele>241</ele>
<time>2025-07-25T00:49:11Z</time></trkpt>
<trkpt lat="-38.527576" lon="143.725583">
<ele>240</ele>
<time>2025-07-25T00:49:16Z</time></trkpt>
<trkpt lat="-38.527182" lon="143.725234">
<ele>239</ele>
<time>2025-07-25T00:49:26Z</time></trkpt>
<trkpt lat="-38.526983" lon="143.724863">
<ele>235</ele>
<time>2025-07-25T00:49:33Z</time></trkpt>
<trkpt lat="-38.526884" lon="143.724623">
<ele>231</ele>
<time>2025-07-25T00:49:37Z</time></trkpt>
<trkpt lat="-38.526826" lon="143.724533">
<ele>230</ele>
<time>2025-07-25T00:49:39Z</time></trkpt>
<trkpt lat="-38.526602" lon="143.724328">
<ele>231</ele>
<time>2025-07-25T00:49:45Z</time></trkpt>
<trkpt lat="-38.526289" lon="143.724188">
<ele>231</ele>
<time>2025-07-25T00:49:51Z</time></trkpt>
<trkpt lat="-38.525738" lon="143.724085">
<ele>232</ele>
<time>2025-07-25T00:50:02Z</time></trkpt>
<trkpt lat="-38.525403" lon="143.724052">
<ele>227</ele>
<time>2025-07-25T00:50:09Z</time></trkpt>
<trkpt lat="-38.525158" lon="143.724093">
<ele>225</ele>
<time>2025-07-25T00:50:14Z</time></trkpt>
<trkpt lat="-38.524894" lon="143.724081">
<ele>221</ele>
<time>2025-07-25T00:50:19Z</time></trkpt>
<trkpt lat="-38.524459" lon="143.724041">
<ele>211</ele>
<time>2025-07-25T00:50:28Z</time></trkpt>
<trkpt lat="-38.524156" lon="143.723978">
<ele>204</ele>
<time>2025-07-25T00:50:34Z</time></trkpt>
<trkpt lat="-38.523924" lon="143.723994">
<ele>202</ele>
<time>2025-07-25T00:50:39Z</time></trkpt>
<trkpt lat="-38.523606" lon="143.72408">
<ele>199</ele>
<time>2025-07-25T00:50:45Z</time></trkpt>
<trkpt lat="-38.52357" lon="143.723921">
<ele>197</ele>
<time>2025-07-25T00:50:48Z</time></trkpt>
<trkpt lat="-38.523631" lon="143.723669">
<ele>195</ele>
<time>2025-07-25T00:50:52Z</time></trkpt>
<trkpt lat="-38.523594" lon="143.723546">
<ele>193</ele>
<time>2025-07-25T00:50:54Z</time></trkpt>
<trkpt lat="-38.523543" lon="143.723491">
<ele>192</ele>
<time>2025-07-25T00:50:56Z</time></trkpt>
<trkpt lat="-38.523426" lon="143.723413">
<ele>191</ele>
<time>2025-07-25T00:50:58Z</time></trkpt>
<trkpt lat="-38.523213" lon="143.723433">
<ele>190</ele>
<time>2025-07-25T00:51:03Z</time></trkpt>
<trkpt lat="-38.523094" lon="143.723413">
<ele>190</ele>
<time>2025-07-25T00:51:05Z</time></trkpt>
<trkpt lat="-38.522646" lon="143.723224">
<ele>187</ele>
<time>2025-07-25T00:51:14Z</time></trkpt>
<trkpt lat="-38.522216" lon="143.722974">
<ele>184</ele>
<time>2025-07-25T00:51:24Z</time></trkpt>
<trkpt lat="-38.522085" lon="143.722993">
<ele>185</ele>
<time>2025-07-25T00:51:26Z</time></trkpt>
<trkpt lat="-38.521755" lon="143.722981">
<ele>185</ele>
<time>2025-07-25T00:51:33Z</time></trkpt>
<trkpt lat="-38.521608" lon="143.72291">
<ele>185</ele>
<time>2025-07-25T00:51:36Z</time></trkpt>
<trkpt lat="-38.521535" lon="143.722804">
<ele>184</ele>
<time>2025-07-25T00:51:38Z</time></trkpt>
<trkpt lat="-38.52152" lon="143.722681">
<ele>183</ele>
<time>2025-07-25T00:51:40Z</time></trkpt>
<trkpt lat="-38.521713" lon="143.722455">
<ele>182</ele>
<time>2025-07-25T00:51:46Z</time></trkpt>
<trkpt lat="-38.521853" lon="143.722195">
<ele>180</ele>
<time>2025-07-25T00:51:51Z</time></trkpt>
<trkpt lat="-38.522069" lon="143.722069">
<ele>178</ele>
<time>2025-07-25T00:51:55Z</time></trkpt>
<trkpt lat="-38.522087" lon="143.72192">
<ele>176</ele>
<time>2025-07-25T00:51:58Z</time></trkpt>
<trkpt lat="-38.521901" lon="143.721703">
<ele>177</ele>
<time>2025-07-25T00:52:03Z</time></trkpt>
<trkpt lat="-38.52194" lon="143.721551">
<ele>175</ele>
<time>2025-07-25T00:52:05Z</time></trkpt>
<trkpt lat="-38.522044" lon="143.721466">
<ele>174</ele>
<time>2025-07-25T00:52:08Z</time></trkpt>
<trkpt lat="-38.522007" lon="143.721322">
<ele>174</ele>
<time>2025-07-25T00:52:10Z</time></trkpt>
<trkpt lat="-38.521945" lon="143.721244">
<ele>174</ele>
<time>2025-07-25T00:52:12Z</time></trkpt>
<trkpt lat="-38.521945" lon="143.721244">
<ele>174</ele>
<time>2025-07-25T00:52:12Z</time></trkpt>
<trkpt lat="-38.521878" lon="143.721162">
<ele>174</ele>
<time>2025-07-25T00:52:14Z</time></trkpt>
<trkpt lat="-38.521869" lon="143.721079">
<ele>174</ele>
<time>2025-07-25T00:52:15Z</time></trkpt>
<trkpt lat="-38.521889" lon="143.720982">
<ele>173</ele>
<time>2025-07-25T00:52:17Z</time></trkpt>
<trkpt lat="-38.521924" lon="143.720907">
<ele>172</ele>
<time>2025-07-25T00:52:18Z</time></trkpt>
<trkpt lat="-38.522013" lon="143.720821">
<ele>171</ele>
<time>2025-07-25T00:52:20Z</time></trkpt>
<trkpt lat="-38.522125" lon="143.720755">
<ele>170</ele>
<time>2025-07-25T00:52:23Z</time></trkpt>
<trkpt lat="-38.522204" lon="143.72066">
<ele>170</ele>
<time>2025-07-25T00:52:25Z</time></trkpt>
<trkpt lat="-38.522287" lon="143.720597">
<ele>170</ele>
<time>2025-07-25T00:52:27Z</time></trkpt>
<trkpt lat="-38.522357" lon="143.720919">
<ele>169</ele>
<time>2025-07-25T00:52:32Z</time></trkpt>
<trkpt lat="-38.522411" lon="143.721037">
<ele>169</ele>
<time>2025-07-25T00:52:34Z</time></trkpt>
<trkpt lat="-38.522478" lon="143.721112">
<ele>168</ele>
<time>2025-07-25T00:52:36Z</time></trkpt>
<trkpt lat="-38.522644" lon="143.721203">
<ele>169</ele>
<time>2025-07-25T00:52:40Z</time></trkpt>
<trkpt lat="-38.52285" lon="143.721196">
<ele>169</ele>
<time>2025-07-25T00:52:44Z</time></trkpt>
<trkpt lat="-38.523071" lon="143.721217">
<ele>170</ele>
<time>2025-07-25T00:52:48Z</time></trkpt>
<trkpt lat="-38.523452" lon="143.721306">
<ele>170</ele>
<time>2025-07-25T00:52:56Z</time></trkpt>
<trkpt lat="-38.523913" lon="143.721264">
<ele>170</ele>
<time>2025-07-25T00:53:05Z</time></trkpt>
<trkpt lat="-38.524047" lon="143.721268">
<ele>170</ele>
<time>2025-07-25T00:53:08Z</time></trkpt>
<trkpt lat="-38.524856" lon="143.721507">
<ele>172</ele>
<time>2025-07-25T00:53:25Z</time></trkpt>
<trkpt lat="-38.524856" lon="143.721507">
<ele>172</ele>
<time>2025-07-25T00:53:25Z</time></trkpt>
<trkpt lat="-38.524975" lon="143.721542">
<ele>173</ele>
<time>2025-07-25T00:53:27Z</time></trkpt>
<trkpt lat="-38.525166" lon="143.721637">
<ele>173</ele>
<time>2025-07-25T00:53:31Z</time></trkpt>
<trkpt lat="-38.525727" lon="143.721969">
<ele>180</ele>
<time>2025-07-25T00:53:43Z</time></trkpt>
<trkpt lat="-38.526003" lon="143.722219">
<ele>184</ele>
<time>2025-07-25T00:53:50Z</time></trkpt>
<trkpt lat="-38.527406" lon="143.723911">
<ele>192</ele>
<time>2025-07-25T00:54:29Z</time></trkpt>
<trkpt lat="-38.527722" lon="143.72426">
<ele>195</ele>
<time>2025-07-25T00:54:37Z</time></trkpt>
<trkpt lat="-38.527796" lon="143.724306">
<ele>196</ele>
<time>2025-07-25T00:54:39Z</time></trkpt>
<trkpt lat="-38.527991" lon="143.72429">
<ele>191</ele>
<time>2025-07-25T00:54:43Z</time></trkpt>
<trkpt lat="-38.528278" lon="143.724405">
<ele>191</ele>
<time>2025-07-25T00:54:49Z</time></trkpt>
<trkpt lat="-38.528724" lon="143.724507">
<ele>192</ele>
<time>2025-07-25T00:54:58Z</time></trkpt>
<trkpt lat="-38.528969" lon="143.724626">
<ele>195</ele>
<time>2025-07-25T00:55:03Z</time></trkpt>
<trkpt lat="-38.529235" lon="143.724712">
<ele>196</ele>
<time>2025-07-25T00:55:09Z</time></trkpt>
<trkpt lat="-38.529395" lon="143.724714">
<ele>196</ele>
<time>2025-07-25T00:55:12Z</time></trkpt>
<trkpt lat="-38.529395" lon="143.724714">
<ele>196</ele>
<time>2025-07-25T00:55:12Z</time></trkpt>
<trkpt lat="-38.529494" lon="143.724715">
<ele>195</ele>
<time>2025-07-25T00:55:14Z</time></trkpt>
<trkpt lat="-38.529663" lon="143.72453">
<ele>188</ele>
<time>2025-07-25T00:55:18Z</time></trkpt>
<trkpt lat="-38.529923" lon="143.724123">
<ele>175</ele>
<time>2025-07-25T00:55:27Z</time></trkpt>
<trkpt lat="-38.529982" lon="143.723981">
<ele>174</ele>
<time>2025-07-25T00:55:29Z</time></trkpt>
<trkpt lat="-38.530003" lon="143.723652">
<ele>173</ele>
<time>2025-07-25T00:55:34Z</time></trkpt>
<trkpt lat="-38.530036" lon="143.723421">
<ele>171</ele>
<time>2025-07-25T00:55:38Z</time></trkpt>
<trkpt lat="-38.530262" lon="143.723421">
<ele>172</ele>
<time>2025-07-25T00:55:42Z</time></trkpt>
<trkpt lat="-38.530383" lon="143.723398">
<ele>172</ele>
<time>2025-07-25T00:55:45Z</time></trkpt>
<trkpt lat="-38.530408" lon="143.723367">
<ele>172</ele>
<time>2025-07-25T00:55:46Z</time></trkpt>
<trkpt lat="-38.530444" lon="143.723316">
<ele>172</ele>
<time>2025-07-25T00:55:47Z</time></trkpt>
<trkpt lat="-38.530465" lon="143.723195">
<ele>172</ele>
<time>2025-07-25T00:55:49Z</time></trkpt>
<trkpt lat="-38.530328" lon="143.722726">
<ele>175</ele>
<time>2025-07-25T00:55:56Z</time></trkpt>
<trkpt lat="-38.530333" lon="143.722607">
<ele>176</ele>
<time>2025-07-25T00:55:58Z</time></trkpt>
<trkpt lat="-38.530357" lon="143.722521">
<ele>176</ele>
<time>2025-07-25T00:56:00Z</time></trkpt>
<trkpt lat="-38.530516" lon="143.722211">
<ele>178</ele>
<time>2025-07-25T00:56:06Z</time></trkpt>
<trkpt lat="-38.530543" lon="143.722111">
<ele>179</ele>
<time>2025-07-25T00:56:07Z</time></trkpt>
<trkpt lat="-38.530562" lon="143.721916">
<ele>181</ele>
<time>2025-07-25T00:56:10Z</time></trkpt>
<trkpt lat="-38.530562" lon="143.721916">
<ele>181</ele>
<time>2025-07-25T00:56:10Z</time></trkpt>
<trkpt lat="-38.530577" lon="143.721763">
<ele>182</ele>
<time>2025-07-25T00:56:13Z</time></trkpt>
<trkpt lat="-38.530588" lon="143.72103">
<ele>190</ele>
<time>2025-07-25T00:56:24Z</time></trkpt>
<trkpt lat="-38.530589" lon="143.720974">
<ele>190</ele>
<time>2025-07-25T00:56:25Z</time></trkpt>
<trkpt lat="-38.530589" lon="143.720974">
<ele>190</ele>
<time>2025-07-25T00:56:25Z</time></trkpt>
<trkpt lat="-38.530585" lon="143.720932">
<ele>191</ele>
<time>2025-07-25T00:56:26Z</time></trkpt>
<trkpt lat="-38.53058" lon="143.72087">
<ele>191</ele>
<time>2025-07-25T00:56:27Z</time></trkpt>
<trkpt lat="-38.530416" lon="143.719545">
<ele>207</ele>
<time>2025-07-25T00:56:48Z</time></trkpt>
<trkpt lat="-38.530417" lon="143.719357">
<ele>210</ele>
<time>2025-07-25T00:56:51Z</time></trkpt>
<trkpt lat="-38.530503" lon="143.718998">
<ele>217</ele>
<time>2025-07-25T00:56:57Z</time></trkpt>
<trkpt lat="-38.530576" lon="143.718834">
<ele>220</ele>
<time>2025-07-25T00:57:00Z</time></trkpt>
<trkpt lat="-38.530664" lon="143.71869">
<ele>224</ele>
<time>2025-07-25T00:57:02Z</time></trkpt>
<trkpt lat="-38.530692" lon="143.718603">
<ele>225</ele>
<time>2025-07-25T00:57:04Z</time></trkpt>
<trkpt lat="-38.530752" lon="143.718376">
<ele>230</ele>
<time>2025-07-25T00:57:08Z</time></trkpt>
<trkpt lat="-38.531205" lon="143.715634">
<ele>248</ele>
<time>2025-07-25T00:57:52Z</time></trkpt>
<trkpt lat="-38.531264" lon="143.715095">
<ele>249</ele>
<time>2025-07-25T00:58:00Z</time></trkpt>
<trkpt lat="-38.53123" lon="143.714971">
<ele>249</ele>
<time>2025-07-25T00:58:02Z</time></trkpt>
<trkpt lat="-38.531168" lon="143.714864">
<ele>248</ele>
<time>2025-07-25T00:58:04Z</time></trkpt>
<trkpt lat="-38.530493" lon="143.714505">
<ele>243</ele>
<time>2025-07-25T00:58:19Z</time></trkpt>
<trkpt lat="-38.530493" lon="143.714505">
<ele>243</ele>
<time>2025-07-25T00:58:19Z</time></trkpt>
<trkpt lat="-38.530198" lon="143.714348">
<ele>240</ele>
<time>2025-07-25T00:58:25Z</time></trkpt>
<trkpt lat="-38.529977" lon="143.714233">
<ele>238</ele>
<time>2025-07-25T00:58:30Z</time></trkpt>
<trkpt lat="-38.529936" lon="143.71418">
<ele>239</ele>
<time>2025-07-25T00:58:31Z</time></trkpt>
<trkpt lat="-38.529934" lon="143.714098">
<ele>239</ele>
<time>2025-07-25T00:58:33Z</time></trkpt>
<trkpt lat="-38.530017" lon="143.713935">
<ele>240</ele>
<time>2025-07-25T00:58:36Z</time></trkpt>
<trkpt lat="-38.529733" lon="143.713851">
<ele>242</ele>
<time>2025-07-25T00:58:41Z</time></trkpt>
<trkpt lat="-38.529459" lon="143.713742">
<ele>244</ele>
<time>2025-07-25T00:58:47Z</time></trkpt>
<trkpt lat="-38.529688" lon="143.713744">
<ele>242</ele>
<time>2025-07-25T00:58:52Z</time></trkpt>
<trkpt lat="-38.529909" lon="143.713718">
<ele>241</ele>
<time>2025-07-25T00:58:56Z</time></trkpt>
<trkpt lat="-38.530162" lon="143.713617">
<ele>243</ele>
<time>2025-07-25T00:59:02Z</time></trkpt>
<trkpt lat="-38.530243" lon="143.71352">
<ele>245</ele>
<time>2025-07-25T00:59:04Z</time></trkpt>
<trkpt lat="-38.530324" lon="143.713279">
<ele>247</ele>
<time>2025-07-25T00:59:08Z</time></trkpt>
<trkpt lat="-38.530324" lon="143.713279">
<ele>247</ele>
<time>2025-07-25T00:59:08Z</time></trkpt>
<trkpt lat="-38.530351" lon="143.713186">
<ele>249</ele>
<time>2025-07-25T00:59:09Z</time></trkpt>
<trkpt lat="-38.530435" lon="143.713239">
<ele>249</ele>
<time>2025-07-25T00:59:11Z</time></trkpt>
<trkpt lat="-38.530468" lon="143.713329">
<ele>249</ele>
<time>2025-07-25T00:59:13Z</time></trkpt>
<trkpt lat="-38.530491" lon="143.713351">
<ele>249</ele>
<time>2025-07-25T00:59:13Z</time></trkpt>
<trkpt lat="-38.530517" lon="143.713323">
<ele>249</ele>
<time>2025-07-25T00:59:14Z</time></trkpt>
<trkpt lat="-38.530542" lon="143.713161">
<ele>251</ele>
<time>2025-07-25T00:59:17Z</time></trkpt>
<trkpt lat="-38.530513" lon="143.712908">
<ele>254</ele>
<time>2025-07-25T00:59:21Z</time></trkpt>
<trkpt lat="-38.530469" lon="143.712781">
<ele>255</ele>
<time>2025-07-25T00:59:23Z</time></trkpt>
<trkpt lat="-38.530412" lon="143.712476">
<ele>257</ele>
<time>2025-07-25T00:59:28Z</time></trkpt>
<trkpt lat="-38.530345" lon="143.712312">
<ele>257</ele>
<time>2025-07-25T00:59:31Z</time></trkpt>
<trkpt lat="-38.530359" lon="143.712271">
<ele>257</ele>
<time>2025-07-25T00:59:31Z</time></trkpt>
<trkpt lat="-38.530414" lon="143.7124">
<ele>257</ele>
<time>2025-07-25T00:59:34Z</time></trkpt>
<trkpt lat="-38.530548" lon="143.712641">
<ele>257</ele>
<time>2025-07-25T00:59:38Z</time></trkpt>
<trkpt lat="-38.530739" lon="143.712814">
<ele>257</ele>
<time>2025-07-25T00:59:43Z</time></trkpt>
<trkpt lat="-38.530867" lon="143.712972">
<ele>257</ele>
<time>2025-07-25T00:59:47Z</time></trkpt>
<trkpt lat="-38.530959" lon="143.713126">
<ele>256</ele>
<time>2025-07-25T00:59:50Z</time></trkpt>
<trkpt lat="-38.531011" lon="143.713143">
<ele>256</ele>
<time>2025-07-25T00:59:51Z</time></trkpt>
<trkpt lat="-38.531024" lon="143.713118">
<ele>256</ele>
<time>2025-07-25T00:59:51Z</time></trkpt>
<trkpt lat="-38.53098" lon="143.712947">
<ele>257</ele>
<time>2025-07-25T00:59:54Z</time></trkpt>
<trkpt lat="-38.530983" lon="143.712843">
<ele>258</ele>
<time>2025-07-25T00:59:56Z</time></trkpt>
<trkpt lat="-38.530955" lon="143.712748">
<ele>259</ele>
<time>2025-07-25T00:59:57Z</time></trkpt>
<trkpt lat="-38.530953" lon="143.712548">
<ele>261</ele>
<time>2025-07-25T01:00:00Z</time></trkpt>
<trkpt lat="-38.53097" lon="143.712527">
<ele>261</ele>
<time>2025-07-25T01:00:01Z</time></trkpt>
<trkpt lat="-38.530989" lon="143.712533">
<ele>261</ele>
<time>2025-07-25T01:00:01Z</time></trkpt>
<trkpt lat="-38.531102" lon="143.712685">
<ele>261</ele>
<time>2025-07-25T01:00:05Z</time></trkpt>
<trkpt lat="-38.53113" lon="143.712753">
<ele>260</ele>
<time>2025-07-25T01:00:06Z</time></trkpt>
<trkpt lat="-38.531198" lon="143.712827">
<ele>260</ele>
<time>2025-07-25T01:00:08Z</time></trkpt>
<trkpt lat="-38.531224" lon="143.712814">
<ele>260</ele>
<time>2025-07-25T01:00:08Z</time></trkpt>
<trkpt lat="-38.531206" lon="143.712732">
<ele>261</ele>
<time>2025-07-25T01:00:09Z</time></trkpt>
<trkpt lat="-38.531222" lon="143.712488">
<ele>263</ele>
<time>2025-07-25T01:00:13Z</time></trkpt>
<trkpt lat="-38.531247" lon="143.712444">
<ele>263</ele>
<time>2025-07-25T01:00:14Z</time></trkpt>
<trkpt lat="-38.53127" lon="143.712444">
<ele>263</ele>
<time>2025-07-25T01:00:15Z</time></trkpt>
<trkpt lat="-38.531624" lon="143.712667">
<ele>263</ele>
<time>2025-07-25T01:00:22Z</time></trkpt>
<trkpt lat="-38.531914" lon="143.712919">
<ele>262</ele>
<time>2025-07-25T01:00:30Z</time></trkpt>
<trkpt lat="-38.531972" lon="143.712924">
<ele>262</ele>
<time>2025-07-25T01:00:31Z</time></trkpt>
<trkpt lat="-38.532082" lon="143.712871">
<ele>263</ele>
<time>2025-07-25T01:00:33Z</time></trkpt>
<trkpt lat="-38.53217" lon="143.712779">
<ele>264</ele>
<time>2025-07-25T01:00:35Z</time></trkpt>
<trkpt lat="-38.53222" lon="143.712756">
<ele>264</ele>
<time>2025-07-25T01:00:36Z</time></trkpt>
<trkpt lat="-38.532355" lon="143.712772">
<ele>265</ele>
<time>2025-07-25T01:00:39Z</time></trkpt>
<trkpt lat="-38.532438" lon="143.712762">
<ele>265</ele>
<time>2025-07-25T01:00:41Z</time></trkpt>
<trkpt lat="-38.532438" lon="143.712761">
<ele>265</ele>
<time>2025-07-25T01:00:41Z</time></trkpt>
<trkpt lat="-38.532663" lon="143.712765">
<ele>265</ele>
<time>2025-07-25T01:00:45Z</time></trkpt>
<trkpt lat="-38.53285" lon="143.712808">
<ele>265</ele>
<time>2025-07-25T01:00:49Z</time></trkpt>
<trkpt lat="-38.532981" lon="143.712772">
<ele>265</ele>
<time>2025-07-25T01:00:52Z</time></trkpt>
<trkpt lat="-38.533" lon="143.712748">
<ele>265</ele>
<time>2025-07-25T01:00:52Z</time></trkpt>
<trkpt lat="-38.53301" lon="143.712685">
<ele>265</ele>
<time>2025-07-25T01:00:53Z</time></trkpt>
<trkpt lat="-38.532983" lon="143.712634">
<ele>265</ele>
<time>2025-07-25T01:00:54Z</time></trkpt>
<trkpt lat="-38.532848" lon="143.712584">
<ele>265</ele>
<time>2025-07-25T01:00:57Z</time></trkpt>
<trkpt lat="-38.532712" lon="143.712592">
<ele>266</ele>
<time>2025-07-25T01:01:00Z</time></trkpt>
<trkpt lat="-38.532672" lon="143.712566">
<ele>266</ele>
<time>2025-07-25T01:01:01Z</time></trkpt>
<trkpt lat="-38.532634" lon="143.712439">
<ele>266</ele>
<time>2025-07-25T01:01:03Z</time></trkpt>
<trkpt lat="-38.532638" lon="143.712378">
<ele>266</ele>
<time>2025-07-25T01:01:04Z</time></trkpt>
<trkpt lat="-38.532659" lon="143.712315">
<ele>265</ele>
<time>2025-07-25T01:01:05Z</time></trkpt>
<trkpt lat="-38.532771" lon="143.712195">
<ele>263</ele>
<time>2025-07-25T01:01:08Z</time></trkpt>
<trkpt lat="-38.532761" lon="143.712161">
<ele>263</ele>
<time>2025-07-25T01:01:08Z</time></trkpt>
<trkpt lat="-38.532605" lon="143.712119">
<ele>265</ele>
<time>2025-07-25T01:01:12Z</time></trkpt>
<trkpt lat="-38.532556" lon="143.712066">
<ele>265</ele>
<time>2025-07-25T01:01:13Z</time></trkpt>
<trkpt lat="-38.532531" lon="143.71201">
<ele>265</ele>
<time>2025-07-25T01:01:14Z</time></trkpt>
<trkpt lat="-38.532288" lon="143.711978">
<ele>266</ele>
<time>2025-07-25T01:01:19Z</time></trkpt>
<trkpt lat="-38.532288" lon="143.711978">
<ele>266</ele>
<time>2025-07-25T01:01:19Z</time></trkpt>
<trkpt lat="-38.532242" lon="143.711977">
<ele>266</ele>
<time>2025-07-25T01:01:20Z</time></trkpt>
<trkpt lat="-38.532223" lon="143.711952">
<ele>266</ele>
<time>2025-07-25T01:01:20Z</time></trkpt>
<trkpt lat="-38.532229" lon="143.711922">
<ele>266</ele>
<time>2025-07-25T01:01:21Z</time></trkpt>
<trkpt lat="-38.532322" lon="143.711817">
<ele>265</ele>
<time>2025-07-25T01:01:23Z</time></trkpt>
<trkpt lat="-38.532438" lon="143.711737">
<ele>265</ele>
<time>2025-07-25T01:01:26Z</time></trkpt>
<trkpt lat="-38.532594" lon="143.711718">
<ele>263</ele>
<time>2025-07-25T01:01:29Z</time></trkpt>
<trkpt lat="-38.53262" lon="143.711701">
<ele>262</ele>
<time>2025-07-25T01:01:30Z</time></trkpt>
<trkpt lat="-38.532616" lon="143.711655">
<ele>262</ele>
<time>2025-07-25T01:01:30Z</time></trkpt>
<trkpt lat="-38.532559" lon="143.71164">
<ele>263</ele>
<time>2025-07-25T01:01:31Z</time></trkpt>
<trkpt lat="-38.532382" lon="143.711649">
<ele>264</ele>
<time>2025-07-25T01:01:35Z</time></trkpt>
<trkpt lat="-38.532164" lon="143.711614">
<ele>265</ele>
<time>2025-07-25T01:01:39Z</time></trkpt>
<trkpt lat="-38.531955" lon="143.711523">
<ele>266</ele>
<time>2025-07-25T01:01:44Z</time></trkpt>
<trkpt lat="-38.531916" lon="143.711526">
<ele>266</ele>
<time>2025-07-25T01:01:45Z</time></trkpt>
<trkpt lat="-38.532003" lon="143.71163">
<ele>266</ele>
<time>2025-07-25T01:01:47Z</time></trkpt>
<trkpt lat="-38.53212" lon="143.711709">
<ele>266</ele>
<time>2025-07-25T01:01:50Z</time></trkpt>
<trkpt lat="-38.532131" lon="143.711752">
<ele>266</ele>
<time>2025-07-25T01:01:50Z</time></trkpt>
<trkpt lat="-38.532103" lon="143.71178">
<ele>266</ele>
<time>2025-07-25T01:01:51Z</time></trkpt>
<trkpt lat="-38.531822" lon="143.71176">
<ele>267</ele>
<time>2025-07-25T01:01:57Z</time></trkpt>
<trkpt lat="-38.531684" lon="143.711782">
<ele>268</ele>
<time>2025-07-25T01:02:00Z</time></trkpt>
<trkpt lat="-38.531575" lon="143.711696">
<ele>267</ele>
<time>2025-07-25T01:02:02Z</time></trkpt>
<trkpt lat="-38.531436" lon="143.711652">
<ele>267</ele>
<time>2025-07-25T01:02:05Z</time></trkpt>
<trkpt lat="-38.531272" lon="143.711648">
<ele>266</ele>
<time>2025-07-25T01:02:08Z</time></trkpt>
<trkpt lat="-38.531169" lon="143.711679">
<ele>265</ele>
<time>2025-07-25T01:02:10Z</time></trkpt>
<trkpt lat="-38.531155" lon="143.711744">
<ele>265</ele>
<time>2025-07-25T01:02:11Z</time></trkpt>
<trkpt lat="-38.531087" lon="143.711824">
<ele>264</ele>
<time>2025-07-25T01:02:13Z</time></trkpt>
<trkpt lat="-38.531077" lon="143.711993">
<ele>264</ele>
<time>2025-07-25T01:02:16Z</time></trkpt>
<trkpt lat="-38.531041" lon="143.712025">
<ele>263</ele>
<time>2025-07-25T01:02:17Z</time></trkpt>
<trkpt lat="-38.530936" lon="143.712012">
<ele>263</ele>
<time>2025-07-25T01:02:19Z</time></trkpt>
<trkpt lat="-38.530673" lon="143.711867">
<ele>261</ele>
<time>2025-07-25T01:02:25Z</time></trkpt>
<trkpt lat="-38.530605" lon="143.711858">
<ele>261</ele>
<time>2025-07-25T01:02:26Z</time></trkpt>
<trkpt lat="-38.530574" lon="143.711944">
<ele>260</ele>
<time>2025-07-25T01:02:28Z</time></trkpt>
<trkpt lat="-38.530607" lon="143.7121">
<ele>260</ele>
<time>2025-07-25T01:02:30Z</time></trkpt>
<trkpt lat="-38.530598" lon="143.712138">
<ele>260</ele>
<time>2025-07-25T01:02:31Z</time></trkpt>
<trkpt lat="-38.53058" lon="143.712146">
<ele>260</ele>
<time>2025-07-25T01:02:31Z</time></trkpt>
<trkpt lat="-38.530555" lon="143.712127">
<ele>260</ele>
<time>2025-07-25T01:02:32Z</time></trkpt>
<trkpt lat="-38.530555" lon="143.712127">
<ele>260</ele>
<time>2025-07-25T01:02:32Z</time></trkpt>
<trkpt lat="-38.530434" lon="143.712005">
<ele>259</ele>
<time>2025-07-25T01:02:35Z</time></trkpt>
<trkpt lat="-38.530338" lon="143.711867">
<ele>259</ele>
<time>2025-07-25T01:02:38Z</time></trkpt>
<trkpt lat="-38.530257" lon="143.711675">
<ele>260</ele>
<time>2025-07-25T01:02:41Z</time></trkpt>
<trkpt lat="-38.530227" lon="143.711656">
<ele>259</ele>
<time>2025-07-25T01:02:42Z</time></trkpt>
<trkpt lat="-38.530181" lon="143.71168">
<ele>259</ele>
<time>2025-07-25T01:02:43Z</time></trkpt>
<trkpt lat="-38.530141" lon="143.71178">
<ele>258</ele>
<time>2025-07-25T01:02:44Z</time></trkpt>
<trkpt lat="-38.530069" lon="143.711864">
<ele>257</ele>
<time>2025-07-25T01:02:46Z</time></trkpt>
<trkpt lat="-38.530056" lon="143.7119">
<ele>257</ele>
<time>2025-07-25T01:02:47Z</time></trkpt>
<trkpt lat="-38.530061" lon="143.712009">
<ele>256</ele>
<time>2025-07-25T01:02:49Z</time></trkpt>
<trkpt lat="-38.52997" lon="143.711775">
<ele>257</ele>
<time>2025-07-25T01:02:53Z</time></trkpt>
<trkpt lat="-38.529864" lon="143.711288">
<ele>259</ele>
<time>2025-07-25T01:03:01Z</time></trkpt>
<trkpt lat="-38.529864" lon="143.711288">
<ele>259</ele>
<time>2025-07-25T01:03:01Z</time></trkpt>
<trkpt lat="-38.529798" lon="143.711042">
<ele>259</ele>
<time>2025-07-25T01:03:05Z</time></trkpt>
<trkpt lat="-38.529662" lon="143.71086">
<ele>258</ele>
<time>2025-07-25T01:03:09Z</time></trkpt>
<trkpt lat="-38.52948" lon="143.7107">
<ele>257</ele>
<time>2025-07-25T01:03:13Z</time></trkpt>
<trkpt lat="-38.529553" lon="143.710613">
<ele>258</ele>
<time>2025-07-25T01:03:15Z</time></trkpt>
<trkpt lat="-38.529672" lon="143.710671">
<ele>259</ele>
<time>2025-07-25T01:03:18Z</time></trkpt>
<trkpt lat="-38.529672" lon="143.710671">
<ele>259</ele>
<time>2025-07-25T01:03:18Z</time></trkpt>
<trkpt lat="-38.529916" lon="143.71079">
<ele>261</ele>
<time>2025-07-25T01:03:23Z</time></trkpt>
<trkpt lat="-38.530381" lon="143.710624">
<ele>262</ele>
<time>2025-07-25T01:03:33Z</time></trkpt>
<trkpt lat="-38.530575" lon="143.710772">
<ele>263</ele>
<time>2025-07-25T01:03:37Z</time></trkpt>
<trkpt lat="-38.530709" lon="143.710783">
<ele>263</ele>
<time>2025-07-25T01:03:40Z</time></trkpt>
<trkpt lat="-38.530831" lon="143.71087">
<ele>264</ele>
<time>2025-07-25T01:03:43Z</time></trkpt>
<trkpt lat="-38.531035" lon="143.711086">
<ele>264</ele>
<time>2025-07-25T01:03:48Z</time></trkpt>
<trkpt lat="-38.531387" lon="143.711213">
<ele>265</ele>
<time>2025-07-25T01:03:55Z</time></trkpt>
<trkpt lat="-38.531537" lon="143.711154">
<ele>265</ele>
<time>2025-07-25T01:03:58Z</time></trkpt>
<trkpt lat="-38.531649" lon="143.711199">
<ele>265</ele>
<time>2025-07-25T01:04:01Z</time></trkpt>
<trkpt lat="-38.532009" lon="143.711281">
<ele>264</ele>
<time>2025-07-25T01:04:08Z</time></trkpt>
<trkpt lat="-38.532083" lon="143.7112">
<ele>263</ele>
<time>2025-07-25T01:04:10Z</time></trkpt>
<trkpt lat="-38.532087" lon="143.711083">
<ele>262</ele>
<time>2025-07-25T01:04:12Z</time></trkpt>
<trkpt lat="-38.532036" lon="143.71099">
<ele>261</ele>
<time>2025-07-25T01:04:14Z</time></trkpt>
<trkpt lat="-38.532036" lon="143.71099">
<ele>261</ele>
<time>2025-07-25T01:04:14Z</time></trkpt>
<trkpt lat="-38.532001" lon="143.710926">
<ele>261</ele>
<time>2025-07-25T01:04:15Z</time></trkpt>
<trkpt lat="-38.531877" lon="143.710813">
<ele>261</ele>
<time>2025-07-25T01:04:18Z</time></trkpt>
<trkpt lat="-38.53174" lon="143.710773">
<ele>262</ele>
<time>2025-07-25T01:04:21Z</time></trkpt>
<trkpt lat="-38.531339" lon="143.710587">
<ele>261</ele>
<time>2025-07-25T01:04:29Z</time></trkpt>
<trkpt lat="-38.531342" lon="143.710522">
<ele>261</ele>
<time>2025-07-25T01:04:30Z</time></trkpt>
<trkpt lat="-38.531456" lon="143.710531">
<ele>261</ele>
<time>2025-07-25T01:04:33Z</time></trkpt>
<trkpt lat="-38.531477" lon="143.710422">
<ele>260</ele>
<time>2025-07-25T01:04:34Z</time></trkpt>
<trkpt lat="-38.531122" lon="143.710097">
<ele>258</ele>
<time>2025-07-25T01:04:43Z</time></trkpt>
<trkpt lat="-38.530429" lon="143.709285">
<ele>251</ele>
<time>2025-07-25T01:05:02Z</time></trkpt>
<trkpt lat="-38.530275" lon="143.709127">
<ele>250</ele>
<time>2025-07-25T01:05:06Z</time></trkpt>
<trkpt lat="-38.530275" lon="143.709127">
<ele>250</ele>
<time>2025-07-25T01:05:06Z</time></trkpt>
<trkpt lat="-38.529696" lon="143.708528">
<ele>246</ele>
<time>2025-07-25T01:05:21Z</time></trkpt>
<trkpt lat="-38.529804" lon="143.708485">
<ele>245</ele>
<time>2025-07-25T01:05:23Z</time></trkpt>
<trkpt lat="-38.529752" lon="143.708383">
<ele>244</ele>
<time>2025-07-25T01:05:25Z</time></trkpt>
<trkpt lat="-38.529285" lon="143.708291">
<ele>245</ele>
<time>2025-07-25T01:05:35Z</time></trkpt>
<trkpt lat="-38.529668" lon="143.708567">
<ele>247</ele>
<time>2025-07-25T01:05:43Z</time></trkpt>
<trkpt lat="-38.530061" lon="143.709017">
<ele>250</ele>
<time>2025-07-25T01:05:54Z</time></trkpt>
<trkpt lat="-38.529704" lon="143.708911">
<ele>251</ele>
<time>2025-07-25T01:06:01Z</time></trkpt>
<trkpt lat="-38.529505" lon="143.708809">
<ele>251</ele>
<time>2025-07-25T01:06:06Z</time></trkpt>
<trkpt lat="-38.528774" lon="143.70864">
<ele>250</ele>
<time>2025-07-25T01:06:20Z</time></trkpt>
<trkpt lat="-38.528218" lon="143.708376">
<ele>246</ele>
<time>2025-07-25T01:06:32Z</time></trkpt>
<trkpt lat="-38.527576" lon="143.707835">
<ele>242</ele>
<time>2025-07-25T01:06:48Z</time></trkpt>
<trkpt lat="-38.527563" lon="143.707762">
<ele>241</ele>
<time>2025-07-25T01:06:49Z</time></trkpt>
<trkpt lat="-38.527681" lon="143.707727">
<ele>240</ele>
<time>2025-07-25T01:06:51Z</time></trkpt>
<trkpt lat="-38.52764" lon="143.707183">
<ele>235</ele>
<time>2025-07-25T01:07:00Z</time></trkpt>
<trkpt lat="-38.527601" lon="143.707062">
<ele>234</ele>
<time>2025-07-25T01:07:02Z</time></trkpt>
<trkpt lat="-38.527601" lon="143.707062">
<ele>234</ele>
<time>2025-07-25T01:07:02Z</time></trkpt>
<trkpt lat="-38.527549" lon="143.706902">
<ele>232</ele>
<time>2025-07-25T01:07:05Z</time></trkpt>
<trkpt lat="-38.5274" lon="143.706689">
<ele>229</ele>
<time>2025-07-25T01:07:09Z</time></trkpt>
<trkpt lat="-38.527279" lon="143.706629">
<ele>228</ele>
<time>2025-07-25T01:07:12Z</time></trkpt>
<trkpt lat="-38.527178" lon="143.706514">
<ele>228</ele>
<time>2025-07-25T01:07:14Z</time></trkpt>
<trkpt lat="-38.527226" lon="143.706394">
<ele>228</ele>
<time>2025-07-25T01:07:17Z</time></trkpt>
<trkpt lat="-38.527053" lon="143.705919">
<ele>224</ele>
<time>2025-07-25T01:07:25Z</time></trkpt>
<trkpt lat="-38.527004" lon="143.705486">
<ele>222</ele>
<time>2025-07-25T01:07:32Z</time></trkpt>
<trkpt lat="-38.527302" lon="143.705327">
<ele>226</ele>
<time>2025-07-25T01:07:38Z</time></trkpt>
<trkpt lat="-38.527382" lon="143.705163">
<ele>226</ele>
<time>2025-07-25T01:07:41Z</time></trkpt>
<trkpt lat="-38.528245" lon="143.704905">
<ele>235</ele>
<time>2025-07-25T01:07:59Z</time></trkpt>
<trkpt lat="-38.528562" lon="143.704872">
<ele>237</ele>
<time>2025-07-25T01:08:05Z</time></trkpt>
<trkpt lat="-38.528926" lon="143.704903">
<ele>239</ele>
<time>2025-07-25T01:08:13Z</time></trkpt>
<trkpt lat="-38.529102" lon="143.705061">
<ele>240</ele>
<time>2025-07-25T01:08:17Z</time></trkpt>
<trkpt lat="-38.529213" lon="143.705115">
<ele>241</ele>
<time>2025-07-25T01:08:19Z</time></trkpt>
<trkpt lat="-38.529443" lon="143.705135">
<ele>241</ele>
<time>2025-07-25T01:08:24Z</time></trkpt>
<trkpt lat="-38.529834" lon="143.70535">
<ele>242</ele>
<time>2025-07-25T01:08:32Z</time></trkpt>
<trkpt lat="-38.530328" lon="143.705791">
<ele>248</ele>
<time>2025-07-25T01:08:44Z</time></trkpt>
<trkpt lat="-38.530767" lon="143.705893">
<ele>249</ele>
<time>2025-07-25T01:08:53Z</time></trkpt>
<trkpt lat="-38.530885" lon="143.705982">
<ele>250</ele>
<time>2025-07-25T01:08:56Z</time></trkpt>
<trkpt lat="-38.531766" lon="143.706511">
<ele>251</ele>
<time>2025-07-25T01:09:16Z</time></trkpt>
<trkpt lat="-38.531776" lon="143.706663">
<ele>253</ele>
<time>2025-07-25T01:09:18Z</time></trkpt>
<trkpt lat="-38.531914" lon="143.706762">
<ele>252</ele>
<time>2025-07-25T01:09:21Z</time></trkpt>
<trkpt lat="-38.532171" lon="143.707113">
<ele>253</ele>
<time>2025-07-25T01:09:29Z</time></trkpt>
<trkpt lat="-38.532136" lon="143.707261">
<ele>256</ele>
<time>2025-07-25T01:09:31Z</time></trkpt>
<trkpt lat="-38.532175" lon="143.707407">
<ele>258</ele>
<time>2025-07-25T01:09:34Z</time></trkpt>
<trkpt lat="-38.53215" lon="143.707523">
<ele>260</ele>
<time>2025-07-25T01:09:36Z</time></trkpt>
<trkpt lat="-38.53209" lon="143.707676">
<ele>261</ele>
<time>2025-07-25T01:09:38Z</time></trkpt>
<trkpt lat="-38.532183" lon="143.707869">
<ele>262</ele>
<time>2025-07-25T01:09:42Z</time></trkpt>
<trkpt lat="-38.532167" lon="143.708028">
<ele>263</ele>
<time>2025-07-25T01:09:44Z</time></trkpt>
<trkpt lat="-38.532206" lon="143.708468">
<ele>266</ele>
<time>2025-07-25T01:09:51Z</time></trkpt>
<trkpt lat="-38.532133" lon="143.708418">
<ele>266</ele>
<time>2025-07-25T01:09:53Z</time></trkpt>
<trkpt lat="-38.532087" lon="143.708331">
<ele>266</ele>
<time>2025-07-25T01:09:54Z</time></trkpt>
<trkpt lat="-38.532073" lon="143.708267">
<ele>266</ele>
<time>2025-07-25T01:09:56Z</time></trkpt>
<trkpt lat="-38.532035" lon="143.708235">
<ele>265</ele>
<time>2025-07-25T01:09:56Z</time></trkpt>
<trkpt lat="-38.531934" lon="143.70824">
<ele>266</ele>
<time>2025-07-25T01:09:58Z</time></trkpt>
<trkpt lat="-38.53179" lon="143.708128">
<ele>266</ele>
<time>2025-07-25T01:10:02Z</time></trkpt>
<trkpt lat="-38.531639" lon="143.707984">
<ele>265</ele>
<time>2025-07-25T01:10:06Z</time></trkpt>
<trkpt lat="-38.531556" lon="143.707833">
<ele>264</ele>
<time>2025-07-25T01:10:09Z</time></trkpt>
<trkpt lat="-38.531506" lon="143.707629">
<ele>263</ele>
<time>2025-07-25T01:10:12Z</time></trkpt>
<trkpt lat="-38.531511" lon="143.707444">
<ele>263</ele>
<time>2025-07-25T01:10:15Z</time></trkpt>
<trkpt lat="-38.531598" lon="143.707358">
<ele>262</ele>
<time>2025-07-25T01:10:17Z</time></trkpt>
<trkpt lat="-38.53169" lon="143.707326">
<ele>262</ele>
<time>2025-07-25T01:10:19Z</time></trkpt>
<trkpt lat="-38.531731" lon="143.707187">
<ele>260</ele>
<time>2025-07-25T01:10:21Z</time></trkpt>
<trkpt lat="-38.531718" lon="143.707058">
<ele>259</ele>
<time>2025-07-25T01:10:23Z</time></trkpt>
<trkpt lat="-38.531682" lon="143.707031">
<ele>259</ele>
<time>2025-07-25T01:10:24Z</time></trkpt>
<trkpt lat="-38.531545" lon="143.707015">
<ele>259</ele>
<time>2025-07-25T01:10:27Z</time></trkpt>
<trkpt lat="-38.53144" lon="143.70695">
<ele>258</ele>
<time>2025-07-25T01:10:29Z</time></trkpt>
<trkpt lat="-38.531433" lon="143.706856">
<ele>257</ele>
<time>2025-07-25T01:10:31Z</time></trkpt>
<trkpt lat="-38.531373" lon="143.706683">
<ele>255</ele>
<time>2025-07-25T01:10:34Z</time></trkpt>
<trkpt lat="-38.531293" lon="143.706656">
<ele>255</ele>
<time>2025-07-25T01:10:35Z</time></trkpt>
<trkpt lat="-38.531103" lon="143.706818">
<ele>257</ele>
<time>2025-07-25T01:10:40Z</time></trkpt>
<trkpt lat="-38.531089" lon="143.706921">
<ele>257</ele>
<time>2025-07-25T01:10:42Z</time></trkpt>
<trkpt lat="-38.531089" lon="143.706921">
<ele>257</ele>
<time>2025-07-25T01:10:42Z</time></trkpt>
<trkpt lat="-38.531067" lon="143.707072">
<ele>258</ele>
<time>2025-07-25T01:10:44Z</time></trkpt>
<trkpt lat="-38.531077" lon="143.70725">
<ele>259</ele>
<time>2025-07-25T01:10:47Z</time></trkpt>
<trkpt lat="-38.53128" lon="143.707309">
<ele>260</ele>
<time>2025-07-25T01:10:51Z</time></trkpt>
<trkpt lat="-38.531351" lon="143.707446">
<ele>262</ele>
<time>2025-07-25T01:10:53Z</time></trkpt>
<trkpt lat="-38.531382" lon="143.707603">
<ele>262</ele>
<time>2025-07-25T01:10:56Z</time></trkpt>
<trkpt lat="-38.531437" lon="143.707758">
<ele>263</ele>
<time>2025-07-25T01:10:59Z</time></trkpt>
<trkpt lat="-38.531445" lon="143.707914">
<ele>263</ele>
<time>2025-07-25T01:11:01Z</time></trkpt>
<trkpt lat="-38.531489" lon="143.70804">
<ele>263</ele>
<time>2025-07-25T01:11:03Z</time></trkpt>
<trkpt lat="-38.531621" lon="143.708208">
<ele>266</ele>
<time>2025-07-25T01:11:07Z</time></trkpt>
<trkpt lat="-38.531711" lon="143.708266">
<ele>267</ele>
<time>2025-07-25T01:11:09Z</time></trkpt>
<trkpt lat="-38.531769" lon="143.708353">
<ele>267</ele>
<time>2025-07-25T01:11:11Z</time></trkpt>
<trkpt lat="-38.531913" lon="143.708452">
<ele>266</ele>
<time>2025-07-25T01:11:14Z</time></trkpt>
<trkpt lat="-38.532007" lon="143.708645">
<ele>265</ele>
<time>2025-07-25T01:11:18Z</time></trkpt>
<trkpt lat="-38.532089" lon="143.708705">
<ele>265</ele>
<time>2025-07-25T01:11:20Z</time></trkpt>
<trkpt lat="-38.532089" lon="143.708705">
<ele>265</ele>
<time>2025-07-25T01:11:20Z</time></trkpt>
<trkpt lat="-38.532149" lon="143.708749">
<ele>265</ele>
<time>2025-07-25T01:11:21Z</time></trkpt>
<trkpt lat="-38.532323" lon="143.708792">
<ele>265</ele>
<time>2025-07-25T01:11:24Z</time></trkpt>
<trkpt lat="-38.532351" lon="143.708843">
<ele>265</ele>
<time>2025-07-25T01:11:25Z</time></trkpt>
<trkpt lat="-38.532351" lon="143.708948">
<ele>265</ele>
<time>2025-07-25T01:11:27Z</time></trkpt>
<trkpt lat="-38.532161" lon="143.708939">
<ele>265</ele>
<time>2025-07-25T01:11:31Z</time></trkpt>
<trkpt lat="-38.53189" lon="143.708796">
<ele>265</ele>
<time>2025-07-25T01:11:37Z</time></trkpt>
<trkpt lat="-38.531802" lon="143.708852">
<ele>265</ele>
<time>2025-07-25T01:11:39Z</time></trkpt>
<trkpt lat="-38.531688" lon="143.708824">
<ele>265</ele>
<time>2025-07-25T01:11:41Z</time></trkpt>
<trkpt lat="-38.53151" lon="143.70853">
<ele>263</ele>
<time>2025-07-25T01:11:47Z</time></trkpt>
<trkpt lat="-38.53143" lon="143.708162">
<ele>263</ele>
<time>2025-07-25T01:11:53Z</time></trkpt>
<trkpt lat="-38.531416" lon="143.707969">
<ele>262</ele>
<time>2025-07-25T01:11:56Z</time></trkpt>
<trkpt lat="-38.531366" lon="143.70781">
<ele>262</ele>
<time>2025-07-25T01:11:59Z</time></trkpt>
<trkpt lat="-38.53093" lon="143.707288">
<ele>259</ele>
<time>2025-07-25T01:12:11Z</time></trkpt>
<trkpt lat="-38.530852" lon="143.707056">
<ele>257</ele>
<time>2025-07-25T01:12:15Z</time></trkpt>
<trkpt lat="-38.530792" lon="143.706796">
<ele>256</ele>
<time>2025-07-25T01:12:19Z</time></trkpt>
<trkpt lat="-38.530883" lon="143.706556">
<ele>255</ele>
<time>2025-07-25T01:12:23Z</time></trkpt>
<trkpt lat="-38.530842" lon="143.706495">
<ele>255</ele>
<time>2025-07-25T01:12:24Z</time></trkpt>
<trkpt lat="-38.530759" lon="143.706495">
<ele>254</ele>
<time>2025-07-25T01:12:26Z</time></trkpt>
<trkpt lat="-38.53069" lon="143.706461">
<ele>254</ele>
<time>2025-07-25T01:12:27Z</time></trkpt>
<trkpt lat="-38.530748" lon="143.706434">
<ele>254</ele>
<time>2025-07-25T01:12:29Z</time></trkpt>
<trkpt lat="-38.530758" lon="143.706386">
<ele>254</ele>
<time>2025-07-25T01:12:29Z</time></trkpt>
<trkpt lat="-38.530703" lon="143.706325">
<ele>253</ele>
<time>2025-07-25T01:12:31Z</time></trkpt>
<trkpt lat="-38.530545" lon="143.70628">
<ele>253</ele>
<time>2025-07-25T01:12:34Z</time></trkpt>
<trkpt lat="-38.530484" lon="143.706381">
<ele>253</ele>
<time>2025-07-25T01:12:36Z</time></trkpt>
<trkpt lat="-38.530385" lon="143.706383">
<ele>253</ele>
<time>2025-07-25T01:12:38Z</time></trkpt>
<trkpt lat="-38.530278" lon="143.706296">
<ele>253</ele>
<time>2025-07-25T01:12:41Z</time></trkpt>
<trkpt lat="-38.530204" lon="143.706021">
<ele>250</ele>
<time>2025-07-25T01:12:45Z</time></trkpt>
<trkpt lat="-38.530057" lon="143.705847">
<ele>249</ele>
<time>2025-07-25T01:12:49Z</time></trkpt>
<trkpt lat="-38.529799" lon="143.705774">
<ele>248</ele>
<time>2025-07-25T01:12:55Z</time></trkpt>
<trkpt lat="-38.529705" lon="143.705778">
<ele>248</ele>
<time>2025-07-25T01:12:56Z</time></trkpt>
<trkpt lat="-38.529462" lon="143.705856">
<ele>249</ele>
<time>2025-07-25T01:13:01Z</time></trkpt>
<trkpt lat="-38.529432" lon="143.705914">
<ele>249</ele>
<time>2025-07-25T01:13:02Z</time></trkpt>
<trkpt lat="-38.529499" lon="143.706008">
<ele>250</ele>
<time>2025-07-25T01:13:04Z</time></trkpt>
<trkpt lat="-38.529752" lon="143.706037">
<ele>250</ele>
<time>2025-07-25T01:13:10Z</time></trkpt>
<trkpt lat="-38.529867" lon="143.706076">
<ele>251</ele>
<time>2025-07-25T01:13:12Z</time></trkpt>
<trkpt lat="-38.529921" lon="143.706151">
<ele>251</ele>
<time>2025-07-25T01:13:14Z</time></trkpt>
<trkpt lat="-38.529668" lon="143.706241">
<ele>251</ele>
<time>2025-07-25T01:13:19Z</time></trkpt>
<trkpt lat="-38.529552" lon="143.706202">
<ele>250</ele>
<time>2025-07-25T01:13:21Z</time></trkpt>
<trkpt lat="-38.529225" lon="143.705896">
<ele>249</ele>
<time>2025-07-25T01:13:29Z</time></trkpt>
<trkpt lat="-38.52924" lon="143.70569">
<ele>247</ele>
<time>2025-07-25T01:13:33Z</time></trkpt>
<trkpt lat="-38.529195" lon="143.705521">
<ele>246</ele>
<time>2025-07-25T01:13:35Z</time></trkpt>
<trkpt lat="-38.529127" lon="143.705343">
<ele>243</ele>
<time>2025-07-25T01:13:38Z</time></trkpt>
<trkpt lat="-38.528943" lon="143.705222">
<ele>241</ele>
<time>2025-07-25T01:13:43Z</time></trkpt>
<trkpt lat="-38.528457" lon="143.705241">
<ele>239</ele>
<time>2025-07-25T01:13:52Z</time></trkpt>
<trkpt lat="-38.52851" lon="143.705615">
<ele>241</ele>
<time>2025-07-25T01:13:58Z</time></trkpt>
<trkpt lat="-38.528486" lon="143.705651">
<ele>241</ele>
<time>2025-07-25T01:13:59Z</time></trkpt>
<trkpt lat="-38.528368" lon="143.705513">
<ele>240</ele>
<time>2025-07-25T01:14:02Z</time></trkpt>
<trkpt lat="-38.528246" lon="143.70566">
<ele>239</ele>
<time>2025-07-25T01:14:06Z</time></trkpt>
<trkpt lat="-38.528069" lon="143.705695">
<ele>237</ele>
<time>2025-07-25T01:14:09Z</time></trkpt>
<trkpt lat="-38.528069" lon="143.705862">
<ele>237</ele>
<time>2025-07-25T01:14:12Z</time></trkpt>
<trkpt lat="-38.528318" lon="143.705955">
<ele>240</ele>
<time>2025-07-25T01:14:17Z</time></trkpt>
<trkpt lat="-38.528489" lon="143.706165">
<ele>241</ele>
<time>2025-07-25T01:14:22Z</time></trkpt>
<trkpt lat="-38.528684" lon="143.706291">
<ele>243</ele>
<time>2025-07-25T01:14:26Z</time></trkpt>
<trkpt lat="-38.528706" lon="143.70619">
<ele>244</ele>
<time>2025-07-25T01:14:28Z</time></trkpt>
<trkpt lat="-38.528892" lon="143.70629">
<ele>246</ele>
<time>2025-07-25T01:14:32Z</time></trkpt>
<trkpt lat="-38.529207" lon="143.706389">
<ele>250</ele>
<time>2025-07-25T01:14:38Z</time></trkpt>
<trkpt lat="-38.529518" lon="143.70653">
<ele>252</ele>
<time>2025-07-25T01:14:45Z</time></trkpt>
<trkpt lat="-38.529557" lon="143.706436">
<ele>251</ele>
<time>2025-07-25T01:14:47Z</time></trkpt>
<trkpt lat="-38.529609" lon="143.706454">
<ele>252</ele>
<time>2025-07-25T01:14:48Z</time></trkpt>
<trkpt lat="-38.5298" lon="143.706619">
<ele>254</ele>
<time>2025-07-25T01:14:52Z</time></trkpt>
<trkpt lat="-38.53011" lon="143.706733">
<ele>255</ele>
<time>2025-07-25T01:14:59Z</time></trkpt>
<trkpt lat="-38.530416" lon="143.706768">
<ele>255</ele>
<time>2025-07-25T01:15:05Z</time></trkpt>
<trkpt lat="-38.530505" lon="143.70685">
<ele>256</ele>
<time>2025-07-25T01:15:07Z</time></trkpt>
<trkpt lat="-38.530633" lon="143.707029">
<ele>256</ele>
<time>2025-07-25T01:15:11Z</time></trkpt>
<trkpt lat="-38.531236" lon="143.707762">
<ele>261</ele>
<time>2025-07-25T01:15:28Z</time></trkpt>
<trkpt lat="-38.531342" lon="143.707979">
<ele>262</ele>
<time>2025-07-25T01:15:32Z</time></trkpt>
<trkpt lat="-38.531413" lon="143.708352">
<ele>262</ele>
<time>2025-07-25T01:15:38Z</time></trkpt>
<trkpt lat="-38.531603" lon="143.708855">
<ele>263</ele>
<time>2025-07-25T01:15:46Z</time></trkpt>
<trkpt lat="-38.531957" lon="143.708985">
<ele>265</ele>
<time>2025-07-25T01:15:54Z</time></trkpt>
<trkpt lat="-38.532239" lon="143.709065">
<ele>265</ele>
<time>2025-07-25T01:16:00Z</time></trkpt>
<trkpt lat="-38.532263" lon="143.709101">
<ele>265</ele>
<time>2025-07-25T01:16:00Z</time></trkpt>
<trkpt lat="-38.532312" lon="143.709286">
<ele>264</ele>
<time>2025-07-25T01:16:03Z</time></trkpt>
<trkpt lat="-38.532402" lon="143.709451">
<ele>263</ele>
<time>2025-07-25T01:16:07Z</time></trkpt>
<trkpt lat="-38.532438" lon="143.709598">
<ele>262</ele>
<time>2025-07-25T01:16:09Z</time></trkpt>
<trkpt lat="-38.532381" lon="143.709749">
<ele>261</ele>
<time>2025-07-25T01:16:12Z</time></trkpt>
<trkpt lat="-38.532333" lon="143.709803">
<ele>260</ele>
<time>2025-07-25T01:16:13Z</time></trkpt>
<trkpt lat="-38.532351" lon="143.709856">
<ele>260</ele>
<time>2025-07-25T01:16:14Z</time></trkpt>
<trkpt lat="-38.532421" lon="143.70995">
<ele>259</ele>
<time>2025-07-25T01:16:16Z</time></trkpt>
<trkpt lat="-38.532504" lon="143.709999">
<ele>259</ele>
<time>2025-07-25T01:16:18Z</time></trkpt>
<trkpt lat="-38.532603" lon="143.710128">
<ele>257</ele>
<time>2025-07-25T01:16:20Z</time></trkpt>
<trkpt lat="-38.532652" lon="143.710223">
<ele>256</ele>
<time>2025-07-25T01:16:22Z</time></trkpt>
<trkpt lat="-38.53264" lon="143.710305">
<ele>256</ele>
<time>2025-07-25T01:16:24Z</time></trkpt>
<trkpt lat="-38.532591" lon="143.710402">
<ele>257</ele>
<time>2025-07-25T01:16:25Z</time></trkpt>
<trkpt lat="-38.532507" lon="143.710485">
<ele>258</ele>
<time>2025-07-25T01:16:28Z</time></trkpt>
<trkpt lat="-38.532434" lon="143.710517">
<ele>258</ele>
<time>2025-07-25T01:16:29Z</time></trkpt>
<trkpt lat="-38.53207" lon="143.71057">
<ele>259</ele>
<time>2025-07-25T01:16:36Z</time></trkpt>
<trkpt lat="-38.53207" lon="143.71057">
<ele>259</ele>
<time>2025-07-25T01:16:36Z</time></trkpt>
<trkpt lat="-38.531857" lon="143.710601">
<ele>260</ele>
<time>2025-07-25T01:16:41Z</time></trkpt>
<trkpt lat="-38.531801" lon="143.710626">
<ele>260</ele>
<time>2025-07-25T01:16:42Z</time></trkpt>
<trkpt lat="-38.531787" lon="143.710725">
<ele>261</ele>
<time>2025-07-25T01:16:43Z</time></trkpt>
<trkpt lat="-38.53174" lon="143.710773">
<ele>262</ele>
<time>2025-07-25T01:16:45Z</time></trkpt>
<trkpt lat="-38.531687" lon="143.710779">
<ele>262</ele>
<time>2025-07-25T01:16:46Z</time></trkpt>
<trkpt lat="-38.531552" lon="143.710738">
<ele>262</ele>
<time>2025-07-25T01:16:49Z</time></trkpt>
<trkpt lat="-38.531372" lon="143.710654">
<ele>262</ele>
<time>2025-07-25T01:16:52Z</time></trkpt>
<trkpt lat="-38.531118" lon="143.710583">
<ele>262</ele>
<time>2025-07-25T01:16:58Z</time></trkpt>
<trkpt lat="-38.531057" lon="143.710543">
<ele>261</ele>
<time>2025-07-25T01:16:59Z</time></trkpt>
<trkpt lat="-38.530896" lon="143.710373">
<ele>261</ele>
<time>2025-07-25T01:17:03Z</time></trkpt>
<trkpt lat="-38.530745" lon="143.710308">
<ele>261</ele>
<time>2025-07-25T01:17:06Z</time></trkpt>
<trkpt lat="-38.530745" lon="143.710308">
<ele>261</ele>
<time>2025-07-25T01:17:06Z</time></trkpt>
<trkpt lat="-38.52986" lon="143.7095">
<ele>257</ele>
<time>2025-07-25T01:17:28Z</time></trkpt>
<trkpt lat="-38.529792" lon="143.709114">
<ele>253</ele>
<time>2025-07-25T01:17:34Z</time></trkpt>
<trkpt lat="-38.529707" lon="143.709034">
<ele>253</ele>
<time>2025-07-25T01:17:36Z</time></trkpt>
<trkpt lat="-38.529478" lon="143.708881">
<ele>252</ele>
<time>2025-07-25T01:17:42Z</time></trkpt>
<trkpt lat="-38.529178" lon="143.708791">
<ele>253</ele>
<time>2025-07-25T01:17:48Z</time></trkpt>
<trkpt lat="-38.528951" lon="143.708773">
<ele>252</ele>
<time>2025-07-25T01:17:52Z</time></trkpt>
<trkpt lat="-38.528652" lon="143.708811">
<ele>252</ele>
<time>2025-07-25T01:17:58Z</time></trkpt>
<trkpt lat="-38.528348" lon="143.708713">
<ele>250</ele>
<time>2025-07-25T01:18:05Z</time></trkpt>
<trkpt lat="-38.528078" lon="143.7085">
<ele>248</ele>
<time>2025-07-25T01:18:11Z</time></trkpt>
<trkpt lat="-38.527708" lon="143.708143">
<ele>246</ele>
<time>2025-07-25T01:18:20Z</time></trkpt>
<trkpt lat="-38.527434" lon="143.707993">
<ele>245</ele>
<time>2025-07-25T01:18:26Z</time></trkpt>
<trkpt lat="-38.526997" lon="143.707902">
<ele>245</ele>
<time>2025-07-25T01:18:35Z</time></trkpt>
<trkpt lat="-38.527687" lon="143.708507">
<ele>249</ele>
<time>2025-07-25T01:18:52Z</time></trkpt>
<trkpt lat="-38.527032" lon="143.708445">
<ele>250</ele>
<time>2025-07-25T01:19:05Z</time></trkpt>
<trkpt lat="-38.526802" lon="143.708715">
<ele>249</ele>
<time>2025-07-25T01:19:11Z</time></trkpt>
<trkpt lat="-38.52716" lon="143.708889">
<ele>250</ele>
<time>2025-07-25T01:19:19Z</time></trkpt>
<trkpt lat="-38.527224" lon="143.709445">
<ele>250</ele>
<time>2025-07-25T01:19:28Z</time></trkpt>
<trkpt lat="-38.527409" lon="143.709713">
<ele>250</ele>
<time>2025-07-25T01:19:33Z</time></trkpt>
<trkpt lat="-38.527319" lon="143.70981">
<ele>249</ele>
<time>2025-07-25T01:19:36Z</time></trkpt>
<trkpt lat="-38.527122" lon="143.709674">
<ele>248</ele>
<time>2025-07-25T01:19:40Z</time></trkpt>
<trkpt lat="-38.526998" lon="143.709775">
<ele>247</ele>
<time>2025-07-25T01:19:43Z</time></trkpt>
<trkpt lat="-38.526875" lon="143.71007">
<ele>246</ele>
<time>2025-07-25T01:19:48Z</time></trkpt>
<trkpt lat="-38.527063" lon="143.710439">
<ele>245</ele>
<time>2025-07-25T01:19:55Z</time></trkpt>
<trkpt lat="-38.526999" lon="143.710624">
<ele>244</ele>
<time>2025-07-25T01:19:58Z</time></trkpt>
<trkpt lat="-38.526999" lon="143.710624">
<ele>244</ele>
<time>2025-07-25T01:19:58Z</time></trkpt>
<trkpt lat="-38.526986" lon="143.710662">
<ele>244</ele>
<time>2025-07-25T01:19:59Z</time></trkpt>
<trkpt lat="-38.52722" lon="143.710935">
<ele>245</ele>
<time>2025-07-25T01:20:05Z</time></trkpt>
<trkpt lat="-38.52758" lon="143.71104">
<ele>247</ele>
<time>2025-07-25T01:20:13Z</time></trkpt>
<trkpt lat="-38.52791" lon="143.710979">
<ele>248</ele>
<time>2025-07-25T01:20:20Z</time></trkpt>
<trkpt lat="-38.528238" lon="143.710869">
<ele>249</ele>
<time>2025-07-25T01:20:26Z</time></trkpt>
<trkpt lat="-38.52868" lon="143.710914">
<ele>251</ele>
<time>2025-07-25T01:20:35Z</time></trkpt>
<trkpt lat="-38.528727" lon="143.711014">
<ele>251</ele>
<time>2025-07-25T01:20:37Z</time></trkpt>
<trkpt lat="-38.52869" lon="143.711093">
<ele>250</ele>
<time>2025-07-25T01:20:39Z</time></trkpt>
<trkpt lat="-38.528606" lon="143.711118">
<ele>250</ele>
<time>2025-07-25T01:20:40Z</time></trkpt>
<trkpt lat="-38.527896" lon="143.711274">
<ele>247</ele>
<time>2025-07-25T01:20:55Z</time></trkpt>
<trkpt lat="-38.527548" lon="143.711399">
<ele>246</ele>
<time>2025-07-25T01:21:02Z</time></trkpt>
<trkpt lat="-38.527258" lon="143.711465">
<ele>243</ele>
<time>2025-07-25T01:21:08Z</time></trkpt>
<trkpt lat="-38.526768" lon="143.711264">
<ele>239</ele>
<time>2025-07-25T01:21:18Z</time></trkpt>
<trkpt lat="-38.526376" lon="143.711294">
<ele>235</ele>
<time>2025-07-25T01:21:26Z</time></trkpt>
<trkpt lat="-38.526162" lon="143.711362">
<ele>233</ele>
<time>2025-07-25T01:21:30Z</time></trkpt>
<trkpt lat="-38.525842" lon="143.711375">
<ele>230</ele>
<time>2025-07-25T01:21:37Z</time></trkpt>
<trkpt lat="-38.525842" lon="143.711375">
<ele>230</ele>
<time>2025-07-25T01:21:37Z</time></trkpt>
<trkpt lat="-38.52564" lon="143.711405">
<ele>228</ele>
<time>2025-07-25T01:21:41Z</time></trkpt>
<trkpt lat="-38.525528" lon="143.711488">
<ele>226</ele>
<time>2025-07-25T01:21:44Z</time></trkpt>
<trkpt lat="-38.525293" lon="143.711509">
<ele>224</ele>
<time>2025-07-25T01:21:48Z</time></trkpt>
<trkpt lat="-38.525165" lon="143.711494">
<ele>223</ele>
<time>2025-07-25T01:21:51Z</time></trkpt>
<trkpt lat="-38.524902" lon="143.711353">
<ele>223</ele>
<time>2025-07-25T01:21:57Z</time></trkpt>
<trkpt lat="-38.524697" lon="143.711333">
<ele>221</ele>
<time>2025-07-25T01:22:01Z</time></trkpt>
<trkpt lat="-38.524581" lon="143.711242">
<ele>221</ele>
<time>2025-07-25T01:22:03Z</time></trkpt>
<trkpt lat="-38.523655" lon="143.711263">
<ele>213</ele>
<time>2025-07-25T01:22:22Z</time></trkpt>
<trkpt lat="-38.523471" lon="143.711147">
<ele>214</ele>
<time>2025-07-25T01:22:26Z</time></trkpt>
<trkpt lat="-38.523278" lon="143.71113">
<ele>212</ele>
<time>2025-07-25T01:22:30Z</time></trkpt>
<trkpt lat="-38.523032" lon="143.711078">
<ele>211</ele>
<time>2025-07-25T01:22:35Z</time></trkpt>
<trkpt lat="-38.522797" lon="143.711106">
<ele>209</ele>
<time>2025-07-25T01:22:40Z</time></trkpt>
<trkpt lat="-38.522635" lon="143.711095">
<ele>207</ele>
<time>2025-07-25T01:22:43Z</time></trkpt>
<trkpt lat="-38.522425" lon="143.711053">
<ele>206</ele>
<time>2025-07-25T01:22:47Z</time></trkpt>
<trkpt lat="-38.522193" lon="143.710978">
<ele>204</ele>
<time>2025-07-25T01:22:52Z</time></trkpt>
<trkpt lat="-38.522612" lon="143.711365">
<ele>206</ele>
<time>2025-07-25T01:23:02Z</time></trkpt>
<trkpt lat="-38.522856" lon="143.711637">
<ele>205</ele>
<time>2025-07-25T01:23:09Z</time></trkpt>
<trkpt lat="-38.523107" lon="143.711865">
<ele>206</ele>
<time>2025-07-25T01:23:15Z</time></trkpt>
<trkpt lat="-38.523206" lon="143.712009">
<ele>207</ele>
<time>2025-07-25T01:23:18Z</time></trkpt>
<trkpt lat="-38.523077" lon="143.712076">
<ele>207</ele>
<time>2025-07-25T01:23:21Z</time></trkpt>
<trkpt lat="-38.523493" lon="143.712471">
<ele>208</ele>
<time>2025-07-25T01:23:31Z</time></trkpt>
<trkpt lat="-38.523493" lon="143.712471">
<ele>208</ele>
<time>2025-07-25T01:23:31Z</time></trkpt>
<trkpt lat="-38.523518" lon="143.712494">
<ele>208</ele>
<time>2025-07-25T01:23:32Z</time></trkpt>
<trkpt lat="-38.523634" lon="143.713242">
<ele>209</ele>
<time>2025-07-25T01:23:44Z</time></trkpt>
<trkpt lat="-38.524551" lon="143.712978">
<ele>211</ele>
<time>2025-07-25T01:24:03Z</time></trkpt>
<trkpt lat="-38.526216" lon="143.713094">
<ele>227</ele>
<time>2025-07-25T01:24:36Z</time></trkpt>
<trkpt lat="-38.526763" lon="143.71304">
<ele>234</ele>
<time>2025-07-25T01:24:47Z</time></trkpt>
<trkpt lat="-38.526763" lon="143.71304">
<ele>234</ele>
<time>2025-07-25T01:24:47Z</time></trkpt>
<trkpt lat="-38.528244" lon="143.712895">
<ele>245</ele>
<time>2025-07-25T01:25:17Z</time></trkpt>
<trkpt lat="-38.528706" lon="143.712986">
<ele>246</ele>
<time>2025-07-25T01:25:26Z</time></trkpt>
<trkpt lat="-38.529328" lon="143.713333">
<ele>245</ele>
<time>2025-07-25T01:25:40Z</time></trkpt>
<trkpt lat="-38.529455" lon="143.713338">
<ele>245</ele>
<time>2025-07-25T01:25:42Z</time></trkpt>
<trkpt lat="-38.529662" lon="143.713583">
<ele>243</ele>
<time>2025-07-25T01:25:48Z</time></trkpt>
<trkpt lat="-38.529662" lon="143.713583">
<ele>243</ele>
<time>2025-07-25T01:25:48Z</time></trkpt>
<trkpt lat="-38.529724" lon="143.713656">
<ele>243</ele>
<time>2025-07-25T01:25:50Z</time></trkpt>
<trkpt lat="-38.529688" lon="143.713744">
<ele>242</ele>
<time>2025-07-25T01:25:51Z</time></trkpt>
<trkpt lat="-38.529459" lon="143.713742">
<ele>244</ele>
<time>2025-07-25T01:25:56Z</time></trkpt>
<trkpt lat="-38.529733" lon="143.713851">
<ele>242</ele>
<time>2025-07-25T01:26:01Z</time></trkpt>
<trkpt lat="-38.529894" lon="143.713977">
<ele>240</ele>
<time>2025-07-25T01:26:05Z</time></trkpt>
<trkpt lat="-38.529934" lon="143.714098">
<ele>239</ele>
<time>2025-07-25T01:26:07Z</time></trkpt>
<trkpt lat="-38.529936" lon="143.71418">
<ele>239</ele>
<time>2025-07-25T01:26:09Z</time></trkpt>
<trkpt lat="-38.529882" lon="143.714192">
<ele>239</ele>
<time>2025-07-25T01:26:10Z</time></trkpt>
<trkpt lat="-38.529814" lon="143.714162">
<ele>240</ele>
<time>2025-07-25T01:26:11Z</time></trkpt>
<trkpt lat="-38.529665" lon="143.713976">
<ele>242</ele>
<time>2025-07-25T01:26:15Z</time></trkpt>
<trkpt lat="-38.528658" lon="143.71398">
<ele>245</ele>
<time>2025-07-25T01:26:35Z</time></trkpt>
<trkpt lat="-38.528462" lon="143.713941">
<ele>245</ele>
<time>2025-07-25T01:26:39Z</time></trkpt>
<trkpt lat="-38.528274" lon="143.71427">
<ele>245</ele>
<time>2025-07-25T01:26:46Z</time></trkpt>
<trkpt lat="-38.528274" lon="143.71427">
<ele>245</ele>
<time>2025-07-25T01:26:46Z</time></trkpt>
<trkpt lat="-38.528243" lon="143.714427">
<ele>245</ele>
<time>2025-07-25T01:26:48Z</time></trkpt>
<trkpt lat="-38.527299" lon="143.714634">
<ele>244</ele>
<time>2025-07-25T01:27:08Z</time></trkpt>
<trkpt lat="-38.526782" lon="143.714811">
<ele>241</ele>
<time>2025-07-25T01:27:18Z</time></trkpt>
<trkpt lat="-38.526493" lon="143.715165">
<ele>238</ele>
<time>2025-07-25T01:27:26Z</time></trkpt>
<trkpt lat="-38.525905" lon="143.716104">
<ele>226</ele>
<time>2025-07-25T01:27:45Z</time></trkpt>
<trkpt lat="-38.525659" lon="143.716684">
<ele>221</ele>
<time>2025-07-25T01:27:56Z</time></trkpt>
<trkpt lat="-38.525659" lon="143.716684">
<ele>221</ele>
<time>2025-07-25T01:27:56Z</time></trkpt>
<trkpt lat="-38.525497" lon="143.717067">
<ele>217</ele>
<time>2025-07-25T01:28:02Z</time></trkpt>
<trkpt lat="-38.526699" lon="143.71782">
<ele>226</ele>
<time>2025-07-25T01:28:29Z</time></trkpt>
<trkpt lat="-38.526699" lon="143.717819">
<ele>226</ele>
<time>2025-07-25T01:28:29Z</time></trkpt>
<trkpt lat="-38.527071" lon="143.718037">
<ele>226</ele>
<time>2025-07-25T01:28:37Z</time></trkpt>
<trkpt lat="-38.526648" lon="143.717562">
<ele>228</ele>
<time>2025-07-25T01:28:49Z</time></trkpt>
<trkpt lat="-38.5265" lon="143.717338">
<ele>229</ele>
<time>2025-07-25T01:28:53Z</time></trkpt>
<trkpt lat="-38.526479" lon="143.717334">
<ele>228</ele>
<time>2025-07-25T01:28:54Z</time></trkpt>
<trkpt lat="-38.526388" lon="143.71724">
<ele>228</ele>
<time>2025-07-25T01:28:56Z</time></trkpt>
<trkpt lat="-38.526388" lon="143.71721">
<ele>228</ele>
<time>2025-07-25T01:28:56Z</time></trkpt>
<trkpt lat="-38.526403" lon="143.717204">
<ele>229</ele>
<time>2025-07-25T01:28:57Z</time></trkpt>
<trkpt lat="-38.526505" lon="143.717311">
<ele>229</ele>
<time>2025-07-25T01:28:59Z</time></trkpt>
<trkpt lat="-38.526528" lon="143.717317">
<ele>229</ele>
<time>2025-07-25T01:29:00Z</time></trkpt>
<trkpt lat="-38.526542" lon="143.717301">
<ele>230</ele>
<time>2025-07-25T01:29:00Z</time></trkpt>
<trkpt lat="-38.5265" lon="143.717208">
<ele>230</ele>
<time>2025-07-25T01:29:02Z</time></trkpt>
<trkpt lat="-38.526382" lon="143.717077">
<ele>230</ele>
<time>2025-07-25T01:29:05Z</time></trkpt>
<trkpt lat="-38.526237" lon="143.716817">
<ele>230</ele>
<time>2025-07-25T01:29:10Z</time></trkpt>
<trkpt lat="-38.526092" lon="143.716441">
<ele>228</ele>
<time>2025-07-25T01:29:17Z</time></trkpt>
<trkpt lat="-38.526097" lon="143.71641">
<ele>228</ele>
<time>2025-07-25T01:29:17Z</time></trkpt>
<trkpt lat="-38.526118" lon="143.716414">
<ele>229</ele>
<time>2025-07-25T01:29:18Z</time></trkpt>
<trkpt lat="-38.526308" lon="143.71664">
<ele>232</ele>
<time>2025-07-25T01:29:23Z</time></trkpt>
<trkpt lat="-38.526346" lon="143.716658">
<ele>233</ele>
<time>2025-07-25T01:29:24Z</time></trkpt>
<trkpt lat="-38.526366" lon="143.716634">
<ele>233</ele>
<time>2025-07-25T01:29:24Z</time></trkpt>
<trkpt lat="-38.526289" lon="143.716455">
<ele>232</ele>
<time>2025-07-25T01:29:27Z</time></trkpt>
<trkpt lat="-38.526171" lon="143.716288">
<ele>230</ele>
<time>2025-07-25T01:29:31Z</time></trkpt>
<trkpt lat="-38.526148" lon="143.716205">
<ele>230</ele>
<time>2025-07-25T01:29:32Z</time></trkpt>
<trkpt lat="-38.526205" lon="143.716246">
<ele>231</ele>
<time>2025-07-25T01:29:34Z</time></trkpt>
<trkpt lat="-38.526215" lon="143.716217">
<ele>231</ele>
<time>2025-07-25T01:29:34Z</time></trkpt>
<trkpt lat="-38.526192" lon="143.716124">
<ele>231</ele>
<time>2025-07-25T01:29:36Z</time></trkpt>
<trkpt lat="-38.526195" lon="143.716091">
<ele>231</ele>
<time>2025-07-25T01:29:36Z</time></trkpt>
<trkpt lat="-38.526212" lon="143.716085">
<ele>231</ele>
<time>2025-07-25T01:29:36Z</time></trkpt>
<trkpt lat="-38.526277" lon="143.716154">
<ele>232</ele>
<time>2025-07-25T01:29:38Z</time></trkpt>
<trkpt lat="-38.526314" lon="143.716227">
<ele>233</ele>
<time>2025-07-25T01:29:40Z</time></trkpt>
<trkpt lat="-38.52634" lon="143.716242">
<ele>233</ele>
<time>2025-07-25T01:29:40Z</time></trkpt>
<trkpt lat="-38.526363" lon="143.716229">
<ele>234</ele>
<time>2025-07-25T01:29:41Z</time></trkpt>
<trkpt lat="-38.526362" lon="143.716195">
<ele>234</ele>
<time>2025-07-25T01:29:41Z</time></trkpt>
<trkpt lat="-38.526325" lon="143.716121">
<ele>233</ele>
<time>2025-07-25T01:29:43Z</time></trkpt>
<trkpt lat="-38.526275" lon="143.715863">
<ele>232</ele>
<time>2025-07-25T01:29:47Z</time></trkpt>
<trkpt lat="-38.526285" lon="143.715835">
<ele>233</ele>
<time>2025-07-25T01:29:47Z</time></trkpt>
<trkpt lat="-38.526442" lon="143.715953">
<ele>235</ele>
<time>2025-07-25T01:29:51Z</time></trkpt>
<trkpt lat="-38.526442" lon="143.715953">
<ele>235</ele>
<time>2025-07-25T01:29:51Z</time></trkpt>
<trkpt lat="-38.526454" lon="143.71593">
<ele>235</ele>
<time>2025-07-25T01:29:51Z</time></trkpt>
<trkpt lat="-38.526434" lon="143.715644">
<ele>236</ele>
<time>2025-07-25T01:29:56Z</time></trkpt>
<trkpt lat="-38.526443" lon="143.715589">
<ele>236</ele>
<time>2025-07-25T01:29:57Z</time></trkpt>
<trkpt lat="-38.526463" lon="143.715564">
<ele>236</ele>
<time>2025-07-25T01:29:57Z</time></trkpt>
<trkpt lat="-38.526563" lon="143.715599">
<ele>238</ele>
<time>2025-07-25T01:29:59Z</time></trkpt>
<trkpt lat="-38.526682" lon="143.715686">
<ele>239</ele>
<time>2025-07-25T01:30:02Z</time></trkpt>
<trkpt lat="-38.526756" lon="143.715692">
<ele>240</ele>
<time>2025-07-25T01:30:04Z</time></trkpt>
<trkpt lat="-38.526766" lon="143.71567">
<ele>240</ele>
<time>2025-07-25T01:30:04Z</time></trkpt>
<trkpt lat="-38.526749" lon="143.715615">
<ele>240</ele>
<time>2025-07-25T01:30:05Z</time></trkpt>
<trkpt lat="-38.526754" lon="143.715454">
<ele>240</ele>
<time>2025-07-25T01:30:07Z</time></trkpt>
<trkpt lat="-38.526811" lon="143.715239">
<ele>241</ele>
<time>2025-07-25T01:30:11Z</time></trkpt>
<trkpt lat="-38.526826" lon="143.715239">
<ele>241</ele>
<time>2025-07-25T01:30:11Z</time></trkpt>
<trkpt lat="-38.526882" lon="143.715359">
<ele>241</ele>
<time>2025-07-25T01:30:13Z</time></trkpt>
<trkpt lat="-38.526926" lon="143.715363">
<ele>242</ele>
<time>2025-07-25T01:30:14Z</time></trkpt>
<trkpt lat="-38.527002" lon="143.715326">
<ele>242</ele>
<time>2025-07-25T01:30:16Z</time></trkpt>
<trkpt lat="-38.527057" lon="143.715355">
<ele>242</ele>
<time>2025-07-25T01:30:17Z</time></trkpt>
<trkpt lat="-38.527123" lon="143.715524">
<ele>243</ele>
<time>2025-07-25T01:30:20Z</time></trkpt>
<trkpt lat="-38.527205" lon="143.715677">
<ele>243</ele>
<time>2025-07-25T01:30:23Z</time></trkpt>
<trkpt lat="-38.527237" lon="143.715973">
<ele>243</ele>
<time>2025-07-25T01:30:28Z</time></trkpt>
<trkpt lat="-38.527399" lon="143.716252">
<ele>243</ele>
<time>2025-07-25T01:30:33Z</time></trkpt>
<trkpt lat="-38.527455" lon="143.716377">
<ele>243</ele>
<time>2025-07-25T01:30:35Z</time></trkpt>
<trkpt lat="-38.527565" lon="143.716539">
<ele>244</ele>
<time>2025-07-25T01:30:39Z</time></trkpt>
<trkpt lat="-38.527676" lon="143.716757">
<ele>243</ele>
<time>2025-07-25T01:30:43Z</time></trkpt>
<trkpt lat="-38.527758" lon="143.716863">
<ele>242</ele>
<time>2025-07-25T01:30:45Z</time></trkpt>
<trkpt lat="-38.527842" lon="143.717079">
<ele>241</ele>
<time>2025-07-25T01:30:49Z</time></trkpt>
<trkpt lat="-38.527842" lon="143.717079">
<ele>241</ele>
<time>2025-07-25T01:30:49Z</time></trkpt>
<trkpt lat="-38.527889" lon="143.717249">
<ele>240</ele>
<time>2025-07-25T01:30:52Z</time></trkpt>
<trkpt lat="-38.52797" lon="143.717363">
<ele>239</ele>
<time>2025-07-25T01:30:54Z</time></trkpt>
<trkpt lat="-38.528218" lon="143.717503">
<ele>239</ele>
<time>2025-07-25T01:31:00Z</time></trkpt>
<trkpt lat="-38.528326" lon="143.71759">
<ele>239</ele>
<time>2025-07-25T01:31:02Z</time></trkpt>
<trkpt lat="-38.528456" lon="143.717637">
<ele>239</ele>
<time>2025-07-25T01:31:05Z</time></trkpt>
<trkpt lat="-38.528478" lon="143.717663">
<ele>238</ele>
<time>2025-07-25T01:31:05Z</time></trkpt>
<trkpt lat="-38.528478" lon="143.717699">
<ele>238</ele>
<time>2025-07-25T01:31:06Z</time></trkpt>
<trkpt lat="-38.528391" lon="143.717768">
<ele>237</ele>
<time>2025-07-25T01:31:08Z</time></trkpt>
<trkpt lat="-38.528289" lon="143.717791">
<ele>237</ele>
<time>2025-07-25T01:31:10Z</time></trkpt>
<trkpt lat="-38.528263" lon="143.717821">
<ele>236</ele>
<time>2025-07-25T01:31:11Z</time></trkpt>
<trkpt lat="-38.528275" lon="143.71788">
<ele>236</ele>
<time>2025-07-25T01:31:12Z</time></trkpt>
<trkpt lat="-38.528302" lon="143.717902">
<ele>235</ele>
<time>2025-07-25T01:31:12Z</time></trkpt>
<trkpt lat="-38.528436" lon="143.71794">
<ele>235</ele>
<time>2025-07-25T01:31:15Z</time></trkpt>
<trkpt lat="-38.528449" lon="143.717971">
<ele>235</ele>
<time>2025-07-25T01:31:16Z</time></trkpt>
<trkpt lat="-38.52844" lon="143.717998">
<ele>235</ele>
<time>2025-07-25T01:31:16Z</time></trkpt>
<trkpt lat="-38.528232" lon="143.717996">
<ele>234</ele>
<time>2025-07-25T01:31:20Z</time></trkpt>
<trkpt lat="-38.528161" lon="143.718042">
<ele>233</ele>
<time>2025-07-25T01:31:22Z</time></trkpt>
<trkpt lat="-38.527946" lon="143.718101">
<ele>231</ele>
<time>2025-07-25T01:31:26Z</time></trkpt>
<trkpt lat="-38.527733" lon="143.718188">
<ele>228</ele>
<time>2025-07-25T01:31:31Z</time></trkpt>
<trkpt lat="-38.527504" lon="143.71818">
<ele>227</ele>
<time>2025-07-25T01:31:35Z</time></trkpt>
<trkpt lat="-38.5262791" lon="143.7180376">
<ele>217</ele>
<time>2025-07-25T01:32:00Z</time></trkpt>
<trkpt lat="-38.5259431" lon="143.7189603">
<ele>193</ele>
<time>2025-07-25T01:32:16Z</time></trkpt>
<trkpt lat="-38.5254731" lon="143.7184238">
<ele>199</ele>
<time>2025-07-25T01:32:29Z</time></trkpt>
<trkpt lat="-38.5254394" lon="143.7190461">
<ele>185</ele>
<time>2025-07-25T01:32:38Z</time></trkpt>
<trkpt lat="-38.5247345" lon="143.7191749">
<ele>179</ele>
<time>2025-07-25T01:32:53Z</time></trkpt>
<trkpt lat="-38.5249525" lon="143.7197328">
<ele>173</ele>
<time>2025-07-25T01:33:03Z</time></trkpt>
<trkpt lat="-38.5242813" lon="143.7192822">
<ele>179</ele>
<time>2025-07-25T01:33:18Z</time></trkpt>
<trkpt lat="-38.5242979" lon="143.7199473">
<ele>172</ele>
<time>2025-07-25T01:33:28Z</time></trkpt>
<trkpt lat="-38.5236601" lon="143.7199044">
<ele>176</ele>
<time>2025-07-25T01:33:41Z</time></trkpt>
<trkpt lat="-38.5229383" lon="143.7200546">
<ele>175</ele>
<time>2025-07-25T01:33:56Z</time></trkpt>
<trkpt lat="-38.52294" lon="143.720061">
<ele>175</ele>
<time>2025-07-25T01:33:56Z</time></trkpt>
<trkpt lat="-38.522558" lon="143.720307">
<ele>170</ele>
<time>2025-07-25T01:34:04Z</time></trkpt>
<trkpt lat="-38.522439" lon="143.720157">
<ele>171</ele>
<time>2025-07-25T01:34:08Z</time></trkpt>
<trkpt lat="-38.52212" lon="143.719652">
<ele>175</ele>
<time>2025-07-25T01:34:18Z</time></trkpt>
<trkpt lat="-38.522017" lon="143.719545">
<ele>176</ele>
<time>2025-07-25T01:34:20Z</time></trkpt>
<trkpt lat="-38.521896" lon="143.719485">
<ele>178</ele>
<time>2025-07-25T01:34:23Z</time></trkpt>
<trkpt lat="-38.521666" lon="143.71941">
<ele>180</ele>
<time>2025-07-25T01:34:28Z</time></trkpt>
<trkpt lat="-38.521554" lon="143.719348">
<ele>180</ele>
<time>2025-07-25T01:34:30Z</time></trkpt>
<trkpt lat="-38.521554" lon="143.719348">
<ele>180</ele>
<time>2025-07-25T01:34:30Z</time></trkpt>
<trkpt lat="-38.521309" lon="143.719213">
<ele>180</ele>
<time>2025-07-25T01:34:36Z</time></trkpt>
<trkpt lat="-38.521197" lon="143.719175">
<ele>180</ele>
<time>2025-07-25T01:34:38Z</time></trkpt>
<trkpt lat="-38.521375" lon="143.719534">
<ele>177</ele>
<time>2025-07-25T01:34:45Z</time></trkpt>
<trkpt lat="-38.521423" lon="143.719631">
<ele>177</ele>
<time>2025-07-25T01:34:46Z</time></trkpt>
<trkpt lat="-38.521656" lon="143.720016">
<ele>174</ele>
<time>2025-07-25T01:34:54Z</time></trkpt>
<trkpt lat="-38.521695" lon="143.720114">
<ele>174</ele>
<time>2025-07-25T01:34:56Z</time></trkpt>
<trkpt lat="-38.521712" lon="143.72022">
<ele>174</ele>
<time>2025-07-25T01:34:57Z</time></trkpt>
<trkpt lat="-38.521716" lon="143.720419">
<ele>174</ele>
<time>2025-07-25T01:35:01Z</time></trkpt>
<trkpt lat="-38.521672" lon="143.72064">
<ele>174</ele>
<time>2025-07-25T01:35:04Z</time></trkpt>
<trkpt lat="-38.521672" lon="143.72064">
<ele>174</ele>
<time>2025-07-25T01:35:04Z</time></trkpt>
<trkpt lat="-38.52138" lon="143.721415">
<ele>176</ele>
<time>2025-07-25T01:35:18Z</time></trkpt>
<trkpt lat="-38.521284" lon="143.721709">
<ele>176</ele>
<time>2025-07-25T01:35:23Z</time></trkpt>
<trkpt lat="-38.521215" lon="143.721952">
<ele>178</ele>
<time>2025-07-25T01:35:27Z</time></trkpt>
<trkpt lat="-38.521161" lon="143.722231">
<ele>179</ele>
<time>2025-07-25T01:35:31Z</time></trkpt>
<trkpt lat="-38.521145" lon="143.722539">
<ele>181</ele>
<time>2025-07-25T01:35:36Z</time></trkpt>
<trkpt lat="-38.521157" lon="143.722803">
<ele>183</ele>
<time>2025-07-25T01:35:40Z</time></trkpt>
<trkpt lat="-38.521393" lon="143.725063">
<ele>195</ele>
<time>2025-07-25T01:36:16Z</time></trkpt>
<trkpt lat="-38.52137" lon="143.725159">
<ele>195</ele>
<time>2025-07-25T01:36:17Z</time></trkpt>
<trkpt lat="-38.52137" lon="143.725159">
<ele>195</ele>
<time>2025-07-25T01:36:17Z</time></trkpt>
<trkpt lat="-38.521299" lon="143.725353">
<ele>195</ele>
<time>2025-07-25T01:36:21Z</time></trkpt>
<trkpt lat="-38.521167" lon="143.725462">
<ele>196</ele>
<time>2025-07-25T01:36:24Z</time></trkpt>
<trkpt lat="-38.51963" lon="143.725779">
<ele>189</ele>
<time>2025-07-25T01:36:55Z</time></trkpt>
<trkpt lat="-38.518939" lon="143.725819">
<ele>189</ele>
<time>2025-07-25T01:37:09Z</time></trkpt>
<trkpt lat="-38.518277" lon="143.725921">
<ele>196</ele>
<time>2025-07-25T01:37:22Z</time></trkpt>
<trkpt lat="-38.517979" lon="143.726005">
<ele>196</ele>
<time>2025-07-25T01:37:29Z</time></trkpt>
<trkpt lat="-38.516615" lon="143.726524">
<ele>199</ele>
<time>2025-07-25T01:37:57Z</time></trkpt>
<trkpt lat="-38.51562" lon="143.726674">
<ele>198</ele>
<time>2025-07-25T01:38:17Z</time></trkpt>
<trkpt lat="-38.513929" lon="143.726783">
<ele>194</ele>
<time>2025-07-25T01:38:51Z</time></trkpt>
<trkpt lat="-38.513282" lon="143.726807">
<ele>192</ele>
<time>2025-07-25T01:39:04Z</time></trkpt>
<trkpt lat="-38.512857" lon="143.726719">
<ele>193</ele>
<time>2025-07-25T01:39:13Z</time></trkpt>
<trkpt lat="-38.512165" lon="143.72643">
<ele>194</ele>
<time>2025-07-25T01:39:27Z</time></trkpt>
<trkpt lat="-38.511754" lon="143.726449">
<ele>194</ele>
<time>2025-07-25T01:39:35Z</time></trkpt>
<trkpt lat="-38.511414" lon="143.726827">
<ele>197</ele>
<time>2025-07-25T01:39:44Z</time></trkpt>
<trkpt lat="-38.511217" lon="143.727624">
<ele>195</ele>
<time>2025-07-25T01:39:58Z</time></trkpt>
<trkpt lat="-38.511139" lon="143.727885">
<ele>193</ele>
<time>2025-07-25T01:40:02Z</time></trkpt>
<trkpt lat="-38.511139" lon="143.727885">
<ele>193</ele>
<time>2025-07-25T01:40:02Z</time></trkpt>
<trkpt lat="-38.510966" lon="143.728461">
<ele>189</ele>
<time>2025-07-25T01:40:12Z</time></trkpt>
<trkpt lat="-38.51064" lon="143.728981">
<ele>183</ele>
<time>2025-07-25T01:40:22Z</time></trkpt>
<trkpt lat="-38.510155" lon="143.729102">
<ele>182</ele>
<time>2025-07-25T01:40:32Z</time></trkpt>
<trkpt lat="-38.509205" lon="143.729291">
<ele>180</ele>
<time>2025-07-25T01:40:51Z</time></trkpt>
<trkpt lat="-38.508929" lon="143.729318">
<ele>179</ele>
<time>2025-07-25T01:40:57Z</time></trkpt>
<trkpt lat="-38.50832" lon="143.729071">
<ele>180</ele>
<time>2025-07-25T01:41:10Z</time></trkpt>
<trkpt lat="-38.507791" lon="143.728363">
<ele>178</ele>
<time>2025-07-25T01:41:25Z</time></trkpt>
<trkpt lat="-38.507484" lon="143.72767">
<ele>175</ele>
<time>2025-07-25T01:41:37Z</time></trkpt>
<trkpt lat="-38.507362" lon="143.72727">
<ele>175</ele>
<time>2025-07-25T01:41:44Z</time></trkpt>
<trkpt lat="-38.507362" lon="143.72727">
<ele>175</ele>
<time>2025-07-25T01:41:44Z</time></trkpt>
<trkpt lat="-38.507108" lon="143.726439">
<ele>175</ele>
<time>2025-07-25T01:41:58Z</time></trkpt>
<trkpt lat="-38.507011" lon="143.726238">
<ele>174</ele>
<time>2025-07-25T01:42:02Z</time></trkpt>
<trkpt lat="-38.5067195" lon="143.7267709">
<ele>171</ele>
<time>2025-07-25T01:42:12Z</time></trkpt>
<trkpt lat="-38.506518" lon="143.7275863">
<ele>169</ele>
<time>2025-07-25T01:42:25Z</time></trkpt>
<trkpt lat="-38.5060647" lon="143.7272429">
<ele>168</ele>
<time>2025-07-25T01:42:36Z</time></trkpt>
<trkpt lat="-38.5055442" lon="143.7275434">
<ele>170</ele>
<time>2025-07-25T01:42:47Z</time></trkpt>
<trkpt lat="-38.505548" lon="143.727551">
<ele>170</ele>
<time>2025-07-25T01:42:48Z</time></trkpt>
<trkpt lat="-38.505409" lon="143.727667">
<ele>171</ele>
<time>2025-07-25T01:42:51Z</time></trkpt>
<trkpt lat="-38.505242" lon="143.727855">
<ele>172</ele>
<time>2025-07-25T01:42:55Z</time></trkpt>
<trkpt lat="-38.505091" lon="143.727961">
<ele>172</ele>
<time>2025-07-25T01:42:59Z</time></trkpt>
<trkpt lat="-38.505016" lon="143.728059">
<ele>172</ele>
<time>2025-07-25T01:43:01Z</time></trkpt>
<trkpt lat="-38.504918" lon="143.728059">
<ele>172</ele>
<time>2025-07-25T01:43:03Z</time></trkpt>
<trkpt lat="-38.503842" lon="143.728258">
<ele>172</ele>
<time>2025-07-25T01:43:25Z</time></trkpt>
<trkpt lat="-38.503481" lon="143.728297">
<ele>172</ele>
<time>2025-07-25T01:43:32Z</time></trkpt>
<trkpt lat="-38.503481" lon="143.728297">
<ele>172</ele>
<time>2025-07-25T01:43:32Z</time></trkpt>
<trkpt lat="-38.503392" lon="143.728281">
<ele>172</ele>
<time>2025-07-25T01:43:34Z</time></trkpt>
<trkpt lat="-38.503267" lon="143.728196">
<ele>172</ele>
<time>2025-07-25T01:43:37Z</time></trkpt>
<trkpt lat="-38.503155" lon="143.728064">
<ele>171</ele>
<time>2025-07-25T01:43:40Z</time></trkpt>
<trkpt lat="-38.502905" lon="143.727825">
<ele>170</ele>
<time>2025-07-25T01:43:46Z</time></trkpt>
<trkpt lat="-38.502736" lon="143.727745">
<ele>169</ele>
<time>2025-07-25T01:43:50Z</time></trkpt>
<trkpt lat="-38.502694" lon="143.727677">
<ele>169</ele>
<time>2025-07-25T01:43:51Z</time></trkpt>
<trkpt lat="-38.502786" lon="143.727286">
<ele>172</ele>
<time>2025-07-25T01:43:57Z</time></trkpt>
<trkpt lat="-38.503067" lon="143.726111">
<ele>177</ele>
<time>2025-07-25T01:44:17Z</time></trkpt>
<trkpt lat="-38.503613" lon="143.725054">
<ele>180</ele>
<time>2025-07-25T01:44:36Z</time></trkpt>
<trkpt lat="-38.503818" lon="143.724611">
<ele>180</ele>
<time>2025-07-25T01:44:45Z</time></trkpt>
<trkpt lat="-38.503766" lon="143.724671">
<ele>180</ele>
<time>2025-07-25T01:44:46Z</time></trkpt>
<trkpt lat="-38.503766" lon="143.724671">
<ele>180</ele>
<time>2025-07-25T01:44:46Z</time></trkpt>
<trkpt lat="-38.503818" lon="143.724611">
<ele>180</ele>
<time>2025-07-25T01:44:47Z</time></trkpt>
<trkpt lat="-38.503961" lon="143.724217">
<ele>179</ele>
<time>2025-07-25T01:44:54Z</time></trkpt>
<trkpt lat="-38.503987" lon="143.724179">
<ele>179</ele>
<time>2025-07-25T01:44:55Z</time></trkpt>
<trkpt lat="-38.503882" lon="143.724114">
<ele>179</ele>
<time>2025-07-25T01:44:57Z</time></trkpt>
<trkpt lat="-38.503741" lon="143.723979">
<ele>180</ele>
<time>2025-07-25T01:45:01Z</time></trkpt>
<trkpt lat="-38.503709" lon="143.723923">
<ele>180</ele>
<time>2025-07-25T01:45:02Z</time></trkpt>
<trkpt lat="-38.503635" lon="143.723889">
<ele>180</ele>
<time>2025-07-25T01:45:03Z</time></trkpt>
<trkpt lat="-38.503574" lon="143.723792">
<ele>180</ele>
<time>2025-07-25T01:45:05Z</time></trkpt>
<trkpt lat="-38.503311" lon="143.723763">
<ele>181</ele>
<time>2025-07-25T01:45:11Z</time></trkpt>
<trkpt lat="-38.503311" lon="143.723763">
<ele>181</ele>
<time>2025-07-25T01:45:11Z</time></trkpt>
<trkpt lat="-38.503237" lon="143.723748">
<ele>181</ele>
<time>2025-07-25T01:45:12Z</time></trkpt>
<trkpt lat="-38.503193" lon="143.723692">
<ele>182</ele>
<time>2025-07-25T01:45:13Z</time></trkpt>
<trkpt lat="-38.503148" lon="143.723585">
<ele>182</ele>
<time>2025-07-25T01:45:15Z</time></trkpt>
<trkpt lat="-38.502822" lon="143.722968">
<ele>187</ele>
<time>2025-07-25T01:45:27Z</time></trkpt>
<trkpt lat="-38.501984" lon="143.721637">
<ele>197</ele>
<time>2025-07-25T01:45:54Z</time></trkpt>
<trkpt lat="-38.501607" lon="143.721211">
<ele>203</ele>
<time>2025-07-25T01:46:04Z</time></trkpt>
<trkpt lat="-38.500835" lon="143.720397">
<ele>215</ele>
<time>2025-07-25T01:46:24Z</time></trkpt>
<trkpt lat="-38.500473" lon="143.720088">
<ele>218</ele>
<time>2025-07-25T01:46:33Z</time></trkpt>
<trkpt lat="-38.500473" lon="143.720088">
<ele>218</ele>
<time>2025-07-25T01:46:33Z</time></trkpt>
<trkpt lat="-38.500333" lon="143.719969">
<ele>219</ele>
<time>2025-07-25T01:46:36Z</time></trkpt>
<trkpt lat="-38.499437" lon="143.71978">
<ele>228</ele>
<time>2025-07-25T01:46:54Z</time></trkpt>
<trkpt lat="-38.498704" lon="143.719908">
<ele>235</ele>
<time>2025-07-25T01:47:09Z</time></trkpt>
<trkpt lat="-38.498133" lon="143.719873">
<ele>239</ele>
<time>2025-07-25T01:47:21Z</time></trkpt>
<trkpt lat="-38.497231" lon="143.720056">
<ele>243</ele>
<time>2025-07-25T01:47:39Z</time></trkpt>
<trkpt lat="-38.497231" lon="143.720056">
<ele>243</ele>
<time>2025-07-25T01:47:39Z</time></trkpt>
<trkpt lat="-38.496558" lon="143.720169">
<ele>243</ele>
<time>2025-07-25T01:47:52Z</time></trkpt>
<trkpt lat="-38.496495" lon="143.720393">
<ele>243</ele>
<time>2025-07-25T01:47:56Z</time></trkpt>
<trkpt lat="-38.496571" lon="143.721241">
<ele>243</ele>
<time>2025-07-25T01:48:10Z</time></trkpt>
<trkpt lat="-38.496571" lon="143.722078">
<ele>244</ele>
<time>2025-07-25T01:48:23Z</time></trkpt>
<trkpt lat="-38.496671" lon="143.722528">
<ele>245</ele>
<time>2025-07-25T01:48:30Z</time></trkpt>
<trkpt lat="-38.496685" lon="143.723016">
<ele>245</ele>
<time>2025-07-25T01:48:38Z</time></trkpt>
<trkpt lat="-38.496685" lon="143.723016">
<ele>245</ele>
<time>2025-07-25T01:48:38Z</time></trkpt>
<trkpt lat="-38.496688" lon="143.723151">
<ele>245</ele>
<time>2025-07-25T01:48:40Z</time></trkpt>
<trkpt lat="-38.496789" lon="143.723494">
<ele>245</ele>
<time>2025-07-25T01:48:46Z</time></trkpt>
<trkpt lat="-38.495958" lon="143.724535">
<ele>248</ele>
<time>2025-07-25T01:49:09Z</time></trkpt>
<trkpt lat="-38.495361" lon="143.725168">
<ele>247</ele>
<time>2025-07-25T01:49:24Z</time></trkpt>
<trkpt lat="-38.495026" lon="143.725693">
<ele>246</ele>
<time>2025-07-25T01:49:35Z</time></trkpt>
<trkpt lat="-38.494782" lon="143.72638">
<ele>246</ele>
<time>2025-07-25T01:49:47Z</time></trkpt>
<trkpt lat="-38.494497" lon="143.727625">
<ele>246</ele>
<time>2025-07-25T01:50:07Z</time></trkpt>
<trkpt lat="-38.494446" lon="143.728333">
<ele>247</ele>
<time>2025-07-25T01:50:18Z</time></trkpt>
<trkpt lat="-38.494412" lon="143.729341">
<ele>247</ele>
<time>2025-07-25T01:50:34Z</time></trkpt>
<trkpt lat="-38.49411" lon="143.730436">
<ele>248</ele>
<time>2025-07-25T01:50:52Z</time></trkpt>
<trkpt lat="-38.493724" lon="143.731509">
<ele>241</ele>
<time>2025-07-25T01:51:11Z</time></trkpt>
<trkpt lat="-38.493514" lon="143.731761">
<ele>240</ele>
<time>2025-07-25T01:51:17Z</time></trkpt>
<trkpt lat="-38.493514" lon="143.731761">
<ele>240</ele>
<time>2025-07-25T01:51:17Z</time></trkpt>
<trkpt lat="-38.49317" lon="143.732174">
<ele>240</ele>
<time>2025-07-25T01:51:26Z</time></trkpt>
<trkpt lat="-38.4927" lon="143.732453">
<ele>240</ele>
<time>2025-07-25T01:51:37Z</time></trkpt>
<trkpt lat="-38.492061" lon="143.732732">
<ele>238</ele>
<time>2025-07-25T01:51:50Z</time></trkpt>
<trkpt lat="-38.49186" lon="143.732742">
<ele>237</ele>
<time>2025-07-25T01:51:54Z</time></trkpt>
<trkpt lat="-38.491717" lon="143.732882">
<ele>236</ele>
<time>2025-07-25T01:51:58Z</time></trkpt>
<trkpt lat="-38.491641" lon="143.733096">
<ele>235</ele>
<time>2025-07-25T01:52:01Z</time></trkpt>
<trkpt lat="-38.491448" lon="143.733225">
<ele>233</ele>
<time>2025-07-25T01:52:06Z</time></trkpt>
<trkpt lat="-38.491289" lon="143.73329">
<ele>232</ele>
<time>2025-07-25T01:52:09Z</time></trkpt>
<trkpt lat="-38.491146" lon="143.733601">
<ele>230</ele>
<time>2025-07-25T01:52:15Z</time></trkpt>
<trkpt lat="-38.490986" lon="143.733762">
<ele>228</ele>
<time>2025-07-25T01:52:19Z</time></trkpt>
<trkpt lat="-38.490861" lon="143.733804">
<ele>227</ele>
<time>2025-07-25T01:52:21Z</time></trkpt>
<trkpt lat="-38.49076" lon="143.733965">
<ele>225</ele>
<time>2025-07-25T01:52:25Z</time></trkpt>
<trkpt lat="-38.490667" lon="143.733901">
<ele>224</ele>
<time>2025-07-25T01:52:27Z</time></trkpt>
<trkpt lat="-38.490558" lon="143.734019">
<ele>222</ele>
<time>2025-07-25T01:52:30Z</time></trkpt>
<trkpt lat="-38.490466" lon="143.733998">
<ele>221</ele>
<time>2025-07-25T01:52:31Z</time></trkpt>
<trkpt lat="-38.490365" lon="143.733933">
<ele>220</ele>
<time>2025-07-25T01:52:34Z</time></trkpt>
<trkpt lat="-38.490306" lon="143.733858">
<ele>220</ele>
<time>2025-07-25T01:52:35Z</time></trkpt>
<trkpt lat="-38.490264" lon="143.734116">
<ele>218</ele>
<time>2025-07-25T01:52:40Z</time></trkpt>
<trkpt lat="-38.490315" lon="143.734191">
<ele>219</ele>
<time>2025-07-25T01:52:41Z</time></trkpt>
<trkpt lat="-38.490239" lon="143.734277">
<ele>218</ele>
<time>2025-07-25T01:52:43Z</time></trkpt>
<trkpt lat="-38.490113" lon="143.734159">
<ele>216</ele>
<time>2025-07-25T01:52:46Z</time></trkpt>
<trkpt lat="-38.490004" lon="143.734094">
<ele>215</ele>
<time>2025-07-25T01:52:49Z</time></trkpt>
<trkpt lat="-38.489905" lon="143.73442">
<ele>215</ele>
<time>2025-07-25T01:52:54Z</time></trkpt>
<trkpt lat="-38.489905" lon="143.73442">
<ele>215</ele>
<time>2025-07-25T01:52:54Z</time></trkpt>
<trkpt lat="-38.489754" lon="143.734918">
<ele>215</ele>
<time>2025-07-25T01:53:03Z</time></trkpt>
<trkpt lat="-38.487888" lon="143.734663">
<ele>203</ele>
<time>2025-07-25T01:53:40Z</time></trkpt>
<trkpt lat="-38.487804" lon="143.734566">
<ele>202</ele>
<time>2025-07-25T01:53:42Z</time></trkpt>
<trkpt lat="-38.487737" lon="143.733075">
<ele>201</ele>
<time>2025-07-25T01:54:06Z</time></trkpt>
<trkpt lat="-38.48769" lon="143.732414">
<ele>202</ele>
<time>2025-07-25T01:54:16Z</time></trkpt>
<trkpt lat="-38.48769" lon="143.732414">
<ele>202</ele>
<time>2025-07-25T01:54:16Z</time></trkpt>
<trkpt lat="-38.487651" lon="143.731601">
<ele>203</ele>
<time>2025-07-25T01:54:29Z</time></trkpt>
<trkpt lat="-38.487822" lon="143.731504">
<ele>205</ele>
<time>2025-07-25T01:54:33Z</time></trkpt>
<trkpt lat="-38.487973" lon="143.731493">
<ele>206</ele>
<time>2025-07-25T01:54:36Z</time></trkpt>
<trkpt lat="-38.488074" lon="143.731365">
<ele>207</ele>
<time>2025-07-25T01:54:39Z</time></trkpt>
<trkpt lat="-38.488214" lon="143.731454">
<ele>208</ele>
<time>2025-07-25T01:54:42Z</time></trkpt>
<trkpt lat="-38.488291" lon="143.731457">
<ele>209</ele>
<time>2025-07-25T01:54:43Z</time></trkpt>
<trkpt lat="-38.488311" lon="143.731474">
<ele>209</ele>
<time>2025-07-25T01:54:44Z</time></trkpt>
<trkpt lat="-38.488368" lon="143.731596">
<ele>209</ele>
<time>2025-07-25T01:54:46Z</time></trkpt>
<trkpt lat="-38.488301" lon="143.732019">
<ele>208</ele>
<time>2025-07-25T01:54:53Z</time></trkpt>
<trkpt lat="-38.48831" lon="143.732313">
<ele>207</ele>
<time>2025-07-25T01:54:57Z</time></trkpt>
<trkpt lat="-38.488343" lon="143.732424">
<ele>207</ele>
<time>2025-07-25T01:54:59Z</time></trkpt>
<trkpt lat="-38.488421" lon="143.732442">
<ele>208</ele>
<time>2025-07-25T01:55:01Z</time></trkpt>
<trkpt lat="-38.488495" lon="143.73241">
<ele>208</ele>
<time>2025-07-25T01:55:02Z</time></trkpt>
<trkpt lat="-38.488604" lon="143.732441">
<ele>209</ele>
<time>2025-07-25T01:55:05Z</time></trkpt>
<trkpt lat="-38.488791" lon="143.732292">
<ele>211</ele>
<time>2025-07-25T01:55:09Z</time></trkpt>
<trkpt lat="-38.488893" lon="143.73226">
<ele>211</ele>
<time>2025-07-25T01:55:11Z</time></trkpt>
<trkpt lat="-38.488939" lon="143.732303">
<ele>211</ele>
<time>2025-07-25T01:55:12Z</time></trkpt>
<trkpt lat="-38.489116" lon="143.732405">
<ele>213</ele>
<time>2025-07-25T01:55:16Z</time></trkpt>
<trkpt lat="-38.489145" lon="143.732381">
<ele>213</ele>
<time>2025-07-25T01:55:17Z</time></trkpt>
<trkpt lat="-38.489121" lon="143.732298">
<ele>213</ele>
<time>2025-07-25T01:55:18Z</time></trkpt>
<trkpt lat="-38.489131" lon="143.732253">
<ele>213</ele>
<time>2025-07-25T01:55:19Z</time></trkpt>
<trkpt lat="-38.489208" lon="143.73236">
<ele>213</ele>
<time>2025-07-25T01:55:21Z</time></trkpt>
<trkpt lat="-38.489355" lon="143.732285">
<ele>214</ele>
<time>2025-07-25T01:55:25Z</time></trkpt>
<trkpt lat="-38.489456" lon="143.732333">
<ele>215</ele>
<time>2025-07-25T01:55:27Z</time></trkpt>
<trkpt lat="-38.489478" lon="143.732293">
<ele>215</ele>
<time>2025-07-25T01:55:27Z</time></trkpt>
<trkpt lat="-38.489486" lon="143.732206">
<ele>215</ele>
<time>2025-07-25T01:55:29Z</time></trkpt>
<trkpt lat="-38.489518" lon="143.7322">
<ele>216</ele>
<time>2025-07-25T01:55:29Z</time></trkpt>
<trkpt lat="-38.489546" lon="143.732161">
<ele>216</ele>
<time>2025-07-25T01:55:30Z</time></trkpt>
<trkpt lat="-38.48959" lon="143.732021">
<ele>216</ele>
<time>2025-07-25T01:55:33Z</time></trkpt>
<trkpt lat="-38.489621" lon="143.731988">
<ele>216</ele>
<time>2025-07-25T01:55:33Z</time></trkpt>
<trkpt lat="-38.489618" lon="143.731919">
<ele>216</ele>
<time>2025-07-25T01:55:35Z</time></trkpt>
<trkpt lat="-38.489692" lon="143.731828">
<ele>217</ele>
<time>2025-07-25T01:55:37Z</time></trkpt>
<trkpt lat="-38.489691" lon="143.731746">
<ele>217</ele>
<time>2025-07-25T01:55:38Z</time></trkpt>
<trkpt lat="-38.489736" lon="143.731666">
<ele>217</ele>
<time>2025-07-25T01:55:39Z</time></trkpt>
<trkpt lat="-38.489771" lon="143.73167">
<ele>217</ele>
<time>2025-07-25T01:55:40Z</time></trkpt>
<trkpt lat="-38.489834" lon="143.731741">
<ele>218</ele>
<time>2025-07-25T01:55:42Z</time></trkpt>
<trkpt lat="-38.489897" lon="143.731733">
<ele>218</ele>
<time>2025-07-25T01:55:43Z</time></trkpt>
<trkpt lat="-38.48997" lon="143.731666">
<ele>219</ele>
<time>2025-07-25T01:55:45Z</time></trkpt>
<trkpt lat="-38.48997" lon="143.731666">
<ele>219</ele>
<time>2025-07-25T01:55:45Z</time></trkpt>
<trkpt lat="-38.490029" lon="143.731611">
<ele>219</ele>
<time>2025-07-25T01:55:46Z</time></trkpt>
<trkpt lat="-38.490092" lon="143.731495">
<ele>220</ele>
<time>2025-07-25T01:55:49Z</time></trkpt>
<trkpt lat="-38.490162" lon="143.731515">
<ele>221</ele>
<time>2025-07-25T01:55:50Z</time></trkpt>
<trkpt lat="-38.490198" lon="143.731465">
<ele>222</ele>
<time>2025-07-25T01:55:51Z</time></trkpt>
<trkpt lat="-38.490272" lon="143.731497">
<ele>223</ele>
<time>2025-07-25T01:55:53Z</time></trkpt>
<trkpt lat="-38.490324" lon="143.731187">
<ele>224</ele>
<time>2025-07-25T01:55:58Z</time></trkpt>
<trkpt lat="-38.490364" lon="143.731145">
<ele>224</ele>
<time>2025-07-25T01:55:59Z</time></trkpt>
<trkpt lat="-38.490514" lon="143.730855">
<ele>227</ele>
<time>2025-07-25T01:56:04Z</time></trkpt>
<trkpt lat="-38.490603" lon="143.73077">
<ele>228</ele>
<time>2025-07-25T01:56:06Z</time></trkpt>
<trkpt lat="-38.490609" lon="143.730738">
<ele>228</ele>
<time>2025-07-25T01:56:07Z</time></trkpt>
<trkpt lat="-38.490575" lon="143.730708">
<ele>227</ele>
<time>2025-07-25T01:56:08Z</time></trkpt>
<trkpt lat="-38.490571" lon="143.730546">
<ele>227</ele>
<time>2025-07-25T01:56:10Z</time></trkpt>
<trkpt lat="-38.490548" lon="143.730401">
<ele>226</ele>
<time>2025-07-25T01:56:13Z</time></trkpt>
<trkpt lat="-38.490468" lon="143.730331">
<ele>225</ele>
<time>2025-07-25T01:56:14Z</time></trkpt>
<trkpt lat="-38.49049" lon="143.730119">
<ele>225</ele>
<time>2025-07-25T01:56:18Z</time></trkpt>
<trkpt lat="-38.490551" lon="143.730054">
<ele>226</ele>
<time>2025-07-25T01:56:19Z</time></trkpt>
<trkpt lat="-38.49067" lon="143.72998">
<ele>227</ele>
<time>2025-07-25T01:56:22Z</time></trkpt>
<trkpt lat="-38.490831" lon="143.729692">
<ele>228</ele>
<time>2025-07-25T01:56:28Z</time></trkpt>
<trkpt lat="-38.491029" lon="143.729468">
<ele>229</ele>
<time>2025-07-25T01:56:33Z</time></trkpt>
<trkpt lat="-38.491186" lon="143.729241">
<ele>229</ele>
<time>2025-07-25T01:56:38Z</time></trkpt>
<trkpt lat="-38.491193" lon="143.729107">
<ele>229</ele>
<time>2025-07-25T01:56:40Z</time></trkpt>
<trkpt lat="-38.491116" lon="143.729012">
<ele>228</ele>
<time>2025-07-25T01:56:42Z</time></trkpt>
<trkpt lat="-38.490966" lon="143.728903">
<ele>227</ele>
<time>2025-07-25T01:56:45Z</time></trkpt>
<trkpt lat="-38.490945" lon="143.72875">
<ele>227</ele>
<time>2025-07-25T01:56:48Z</time></trkpt>
<trkpt lat="-38.490908" lon="143.728718">
<ele>226</ele>
<time>2025-07-25T01:56:49Z</time></trkpt>
<trkpt lat="-38.490867" lon="143.728576">
<ele>226</ele>
<time>2025-07-25T01:56:51Z</time></trkpt>
<trkpt lat="-38.490888" lon="143.728383">
<ele>226</ele>
<time>2025-07-25T01:56:54Z</time></trkpt>
<trkpt lat="-38.490926" lon="143.728244">
<ele>226</ele>
<time>2025-07-25T01:56:56Z</time></trkpt>
<trkpt lat="-38.490962" lon="143.727602">
<ele>228</ele>
<time>2025-07-25T01:57:07Z</time></trkpt>
<trkpt lat="-38.490925" lon="143.727472">
<ele>228</ele>
<time>2025-07-25T01:57:09Z</time></trkpt>
<trkpt lat="-38.490809" lon="143.727537">
<ele>227</ele>
<time>2025-07-25T01:57:11Z</time></trkpt>
<trkpt lat="-38.490714" lon="143.727439">
<ele>226</ele>
<time>2025-07-25T01:57:14Z</time></trkpt>
<trkpt lat="-38.490622" lon="143.727508">
<ele>225</ele>
<time>2025-07-25T01:57:16Z</time></trkpt>
<trkpt lat="-38.490568" lon="143.727694">
<ele>223</ele>
<time>2025-07-25T01:57:19Z</time></trkpt>
<trkpt lat="-38.490496" lon="143.727794">
<ele>222</ele>
<time>2025-07-25T01:57:21Z</time></trkpt>
<trkpt lat="-38.490388" lon="143.727847">
<ele>221</ele>
<time>2025-07-25T01:57:23Z</time></trkpt>
<trkpt lat="-38.490253" lon="143.72801">
<ele>218</ele>
<time>2025-07-25T01:57:27Z</time></trkpt>
<trkpt lat="-38.490135" lon="143.72806">
<ele>216</ele>
<time>2025-07-25T01:57:30Z</time></trkpt>
<trkpt lat="-38.489943" lon="143.728077">
<ele>214</ele>
<time>2025-07-25T01:57:33Z</time></trkpt>
<trkpt lat="-38.489843" lon="143.728253">
<ele>213</ele>
<time>2025-07-25T01:57:37Z</time></trkpt>
<trkpt lat="-38.48974" lon="143.728315">
<ele>212</ele>
<time>2025-07-25T01:57:39Z</time></trkpt>
<trkpt lat="-38.489742" lon="143.728456">
<ele>212</ele>
<time>2025-07-25T01:57:41Z</time></trkpt>
<trkpt lat="-38.489645" lon="143.72857">
<ele>211</ele>
<time>2025-07-25T01:57:44Z</time></trkpt>
<trkpt lat="-38.489642" lon="143.728624">
<ele>211</ele>
<time>2025-07-25T01:57:45Z</time></trkpt>
<trkpt lat="-38.489591" lon="143.728643">
<ele>211</ele>
<time>2025-07-25T01:57:46Z</time></trkpt>
<trkpt lat="-38.489536" lon="143.72863">
<ele>210</ele>
<time>2025-07-25T01:57:47Z</time></trkpt>
<trkpt lat="-38.489459" lon="143.728692">
<ele>210</ele>
<time>2025-07-25T01:57:49Z</time></trkpt>
<trkpt lat="-38.489447" lon="143.728756">
<ele>210</ele>
<time>2025-07-25T01:57:50Z</time></trkpt>
<trkpt lat="-38.489392" lon="143.728806">
<ele>209</ele>
<time>2025-07-25T01:57:51Z</time></trkpt>
<trkpt lat="-38.489357" lon="143.728527">
<ele>209</ele>
<time>2025-07-25T01:57:56Z</time></trkpt>
<trkpt lat="-38.489264" lon="143.728514">
<ele>208</ele>
<time>2025-07-25T01:57:58Z</time></trkpt>
<trkpt lat="-38.48924" lon="143.728425">
<ele>208</ele>
<time>2025-07-25T01:57:59Z</time></trkpt>
<trkpt lat="-38.489149" lon="143.728361">
<ele>208</ele>
<time>2025-07-25T01:58:01Z</time></trkpt>
<trkpt lat="-38.489038" lon="143.728313">
<ele>208</ele>
<time>2025-07-25T01:58:03Z</time></trkpt>
<trkpt lat="-38.48899" lon="143.728251">
<ele>208</ele>
<time>2025-07-25T01:58:05Z</time></trkpt>
<trkpt lat="-38.488923" lon="143.728058">
<ele>209</ele>
<time>2025-07-25T01:58:08Z</time></trkpt>
<trkpt lat="-38.488842" lon="143.728075">
<ele>208</ele>
<time>2025-07-25T01:58:10Z</time></trkpt>
<trkpt lat="-38.488752" lon="143.728206">
<ele>207</ele>
<time>2025-07-25T01:58:13Z</time></trkpt>
<trkpt lat="-38.488674" lon="143.72814">
<ele>207</ele>
<time>2025-07-25T01:58:14Z</time></trkpt>
<trkpt lat="-38.488623" lon="143.728212">
<ele>206</ele>
<time>2025-07-25T01:58:16Z</time></trkpt>
<trkpt lat="-38.488674" lon="143.728264">
<ele>206</ele>
<time>2025-07-25T01:58:17Z</time></trkpt>
<trkpt lat="-38.488685" lon="143.72833">
<ele>206</ele>
<time>2025-07-25T01:58:18Z</time></trkpt>
<trkpt lat="-38.488664" lon="143.728542">
<ele>206</ele>
<time>2025-07-25T01:58:22Z</time></trkpt>
<trkpt lat="-38.488748" lon="143.728686">
<ele>206</ele>
<time>2025-07-25T01:58:24Z</time></trkpt>
<trkpt lat="-38.488678" lon="143.728756">
<ele>206</ele>
<time>2025-07-25T01:58:26Z</time></trkpt>
<trkpt lat="-38.488588" lon="143.728909">
<ele>205</ele>
<time>2025-07-25T01:58:29Z</time></trkpt>
<trkpt lat="-38.488584" lon="143.728976">
<ele>205</ele>
<time>2025-07-25T01:58:30Z</time></trkpt>
<trkpt lat="-38.488605" lon="143.729099">
<ele>205</ele>
<time>2025-07-25T01:58:32Z</time></trkpt>
<trkpt lat="-38.488539" lon="143.729329">
<ele>205</ele>
<time>2025-07-25T01:58:36Z</time></trkpt>
<trkpt lat="-38.488574" lon="143.729293">
<ele>205</ele>
<time>2025-07-25T01:58:37Z</time></trkpt>
<trkpt lat="-38.488574" lon="143.729293">
<ele>205</ele>
<time>2025-07-25T01:58:37Z</time></trkpt>
<trkpt lat="-38.488617" lon="143.729248">
<ele>205</ele>
<time>2025-07-25T01:58:38Z</time></trkpt>
<trkpt lat="-38.488648" lon="143.729246">
<ele>205</ele>
<time>2025-07-25T01:58:39Z</time></trkpt>
<trkpt lat="-38.488666" lon="143.729277">
<ele>205</ele>
<time>2025-07-25T01:58:39Z</time></trkpt>
<trkpt lat="-38.488605" lon="143.729407">
<ele>206</ele>
<time>2025-07-25T01:58:42Z</time></trkpt>
<trkpt lat="-38.488613" lon="143.729515">
<ele>206</ele>
<time>2025-07-25T01:58:43Z</time></trkpt>
<trkpt lat="-38.48867" lon="143.729492">
<ele>206</ele>
<time>2025-07-25T01:58:45Z</time></trkpt>
<trkpt lat="-38.488646" lon="143.729688">
<ele>207</ele>
<time>2025-07-25T01:58:48Z</time></trkpt>
<trkpt lat="-38.488606" lon="143.729785">
<ele>208</ele>
<time>2025-07-25T01:58:49Z</time></trkpt>
<trkpt lat="-38.488596" lon="143.729856">
<ele>208</ele>
<time>2025-07-25T01:58:51Z</time></trkpt>
<trkpt lat="-38.488578" lon="143.729861">
<ele>208</ele>
<time>2025-07-25T01:58:51Z</time></trkpt>
<trkpt lat="-38.488547" lon="143.729835">
<ele>208</ele>
<time>2025-07-25T01:58:52Z</time></trkpt>
<trkpt lat="-38.488483" lon="143.729853">
<ele>208</ele>
<time>2025-07-25T01:58:53Z</time></trkpt>
<trkpt lat="-38.488471" lon="143.729788">
<ele>207</ele>
<time>2025-07-25T01:58:54Z</time></trkpt>
<trkpt lat="-38.488481" lon="143.729663">
<ele>207</ele>
<time>2025-07-25T01:58:56Z</time></trkpt>
<trkpt lat="-38.488216" lon="143.729793">
<ele>206</ele>
<time>2025-07-25T01:59:02Z</time></trkpt>
<trkpt lat="-38.487976" lon="143.730023">
<ele>205</ele>
<time>2025-07-25T01:59:08Z</time></trkpt>
<trkpt lat="-38.487937" lon="143.730272">
<ele>206</ele>
<time>2025-07-25T01:59:12Z</time></trkpt>
<trkpt lat="-38.487893" lon="143.730219">
<ele>205</ele>
<time>2025-07-25T01:59:13Z</time></trkpt>
<trkpt lat="-38.4879" lon="143.73001">
<ele>204</ele>
<time>2025-07-25T01:59:16Z</time></trkpt>
<trkpt lat="-38.487955" lon="143.729817">
<ele>204</ele>
<time>2025-07-25T01:59:19Z</time></trkpt>
<trkpt lat="-38.487914" lon="143.729789">
<ele>204</ele>
<time>2025-07-25T01:59:20Z</time></trkpt>
<trkpt lat="-38.487794" lon="143.730036">
<ele>204</ele>
<time>2025-07-25T01:59:25Z</time></trkpt>
<trkpt lat="-38.487783" lon="143.730191">
<ele>204</ele>
<time>2025-07-25T01:59:27Z</time></trkpt>
<trkpt lat="-38.487768" lon="143.730186">
<ele>204</ele>
<time>2025-07-25T01:59:28Z</time></trkpt>
<trkpt lat="-38.487739" lon="143.729954">
<ele>203</ele>
<time>2025-07-25T01:59:31Z</time></trkpt>
<trkpt lat="-38.487777" lon="143.729675">
<ele>202</ele>
<time>2025-07-25T01:59:36Z</time></trkpt>
<trkpt lat="-38.487878" lon="143.729574">
<ele>203</ele>
<time>2025-07-25T01:59:38Z</time></trkpt>
<trkpt lat="-38.487924" lon="143.729496">
<ele>203</ele>
<time>2025-07-25T01:59:40Z</time></trkpt>
<trkpt lat="-38.487903" lon="143.729474">
<ele>203</ele>
<time>2025-07-25T01:59:40Z</time></trkpt>
<trkpt lat="-38.487773" lon="143.729567">
<ele>202</ele>
<time>2025-07-25T01:59:43Z</time></trkpt>
<trkpt lat="-38.487727" lon="143.72966">
<ele>202</ele>
<time>2025-07-25T01:59:45Z</time></trkpt>
<trkpt lat="-38.487693" lon="143.729647">
<ele>202</ele>
<time>2025-07-25T01:59:46Z</time></trkpt>
<trkpt lat="-38.487712" lon="143.729524">
<ele>201</ele>
<time>2025-07-25T01:59:48Z</time></trkpt>
<trkpt lat="-38.487686" lon="143.729506">
<ele>201</ele>
<time>2025-07-25T01:59:48Z</time></trkpt>
<trkpt lat="-38.487634" lon="143.729548">
<ele>201</ele>
<time>2025-07-25T01:59:50Z</time></trkpt>
<trkpt lat="-38.487616" lon="143.729612">
<ele>201</ele>
<time>2025-07-25T01:59:51Z</time></trkpt>
<trkpt lat="-38.487523" lon="143.729657">
<ele>200</ele>
<time>2025-07-25T01:59:53Z</time></trkpt>
<trkpt lat="-38.48749" lon="143.729634">
<ele>200</ele>
<time>2025-07-25T01:59:53Z</time></trkpt>
<trkpt lat="-38.487492" lon="143.729591">
<ele>200</ele>
<time>2025-07-25T01:59:54Z</time></trkpt>
<trkpt lat="-38.487504" lon="143.729525">
<ele>200</ele>
<time>2025-07-25T01:59:55Z</time></trkpt>
<trkpt lat="-38.487544" lon="143.729459">
<ele>200</ele>
<time>2025-07-25T01:59:57Z</time></trkpt>
<trkpt lat="-38.487539" lon="143.72943">
<ele>200</ele>
<time>2025-07-25T01:59:57Z</time></trkpt>
<trkpt lat="-38.487449" lon="143.729528">
<ele>199</ele>
<time>2025-07-25T01:59:59Z</time></trkpt>
<trkpt lat="-38.487388" lon="143.729503">
<ele>199</ele>
<time>2025-07-25T02:00:01Z</time></trkpt>
<trkpt lat="-38.487286" lon="143.729499">
<ele>197</ele>
<time>2025-07-25T02:00:03Z</time></trkpt>
<trkpt lat="-38.487164" lon="143.729354">
<ele>196</ele>
<time>2025-07-25T02:00:06Z</time></trkpt>
<trkpt lat="-38.48714" lon="143.729245">
<ele>195</ele>
<time>2025-07-25T02:00:08Z</time></trkpt>
<trkpt lat="-38.486755" lon="143.72866">
<ele>190</ele>
<time>2025-07-25T02:00:20Z</time></trkpt>
<trkpt lat="-38.486755" lon="143.72866">
<ele>190</ele>
<time>2025-07-25T02:00:20Z</time></trkpt>
<trkpt lat="-38.486737" lon="143.728633">
<ele>189</ele>
<time>2025-07-25T02:00:20Z</time></trkpt>
<trkpt lat="-38.486687" lon="143.727904">
<ele>188</ele>
<time>2025-07-25T02:00:32Z</time></trkpt>
<trkpt lat="-38.48662" lon="143.727389">
<ele>186</ele>
<time>2025-07-25T02:00:40Z</time></trkpt>
<trkpt lat="-38.486579" lon="143.727234">
<ele>185</ele>
<time>2025-07-25T02:00:43Z</time></trkpt>
<trkpt lat="-38.486418" lon="143.726616">
<ele>180</ele>
<time>2025-07-25T02:00:53Z</time></trkpt>
<trkpt lat="-38.486351" lon="143.726101">
<ele>179</ele>
<time>2025-07-25T02:01:01Z</time></trkpt>
<trkpt lat="-38.486334" lon="143.725844">
<ele>179</ele>
<time>2025-07-25T02:01:05Z</time></trkpt>
<trkpt lat="-38.48704" lon="143.724084">
<ele>180</ele>
<time>2025-07-25T02:01:36Z</time></trkpt>
<trkpt lat="-38.487166" lon="143.724191">
<ele>181</ele>
<time>2025-07-25T02:01:39Z</time></trkpt>
<trkpt lat="-38.487291" lon="143.724342">
<ele>183</ele>
<time>2025-07-25T02:01:43Z</time></trkpt>
<trkpt lat="-38.487585" lon="143.724567">
<ele>187</ele>
<time>2025-07-25T02:01:49Z</time></trkpt>
<trkpt lat="-38.487853" lon="143.725046">
<ele>193</ele>
<time>2025-07-25T02:01:59Z</time></trkpt>
<trkpt lat="-38.487853" lon="143.725046">
<ele>193</ele>
<time>2025-07-25T02:01:59Z</time></trkpt>
<trkpt lat="-38.488198" lon="143.725372">
<ele>199</ele>
<time>2025-07-25T02:02:07Z</time></trkpt>
<trkpt lat="-38.488345" lon="143.725427">
<ele>201</ele>
<time>2025-07-25T02:02:10Z</time></trkpt>
<trkpt lat="-38.488467" lon="143.725599">
<ele>204</ele>
<time>2025-07-25T02:02:14Z</time></trkpt>
<trkpt lat="-38.488849" lon="143.725854">
<ele>210</ele>
<time>2025-07-25T02:02:23Z</time></trkpt>
<trkpt lat="-38.489072" lon="143.725945">
<ele>213</ele>
<time>2025-07-25T02:02:27Z</time></trkpt>
<trkpt lat="-38.489" lon="143.726369">
<ele>214</ele>
<time>2025-07-25T02:02:34Z</time></trkpt>
<trkpt lat="-38.489027" lon="143.726546">
<ele>215</ele>
<time>2025-07-25T02:02:37Z</time></trkpt>
<trkpt lat="-38.489338" lon="143.726487">
<ele>217</ele>
<time>2025-07-25T02:02:43Z</time></trkpt>
<trkpt lat="-38.489414" lon="143.726323">
<ele>217</ele>
<time>2025-07-25T02:02:46Z</time></trkpt>
<trkpt lat="-38.489466" lon="143.725966">
<ele>216</ele>
<time>2025-07-25T02:02:52Z</time></trkpt>
<trkpt lat="-38.489452" lon="143.725749">
<ele>215</ele>
<time>2025-07-25T02:02:55Z</time></trkpt>
<trkpt lat="-38.489466" lon="143.725529">
<ele>214</ele>
<time>2025-07-25T02:02:59Z</time></trkpt>
<trkpt lat="-38.489678" lon="143.725317">
<ele>214</ele>
<time>2025-07-25T02:03:04Z</time></trkpt>
<trkpt lat="-38.489794" lon="143.725275">
<ele>215</ele>
<time>2025-07-25T02:03:07Z</time></trkpt>
<trkpt lat="-38.489937" lon="143.725103">
<ele>215</ele>
<time>2025-07-25T02:03:10Z</time></trkpt>
<trkpt lat="-38.490063" lon="143.724846">
<ele>216</ele>
<time>2025-07-25T02:03:15Z</time></trkpt>
<trkpt lat="-38.490256" lon="143.724728">
<ele>217</ele>
<time>2025-07-25T02:03:20Z</time></trkpt>
<trkpt lat="-38.490474" lon="143.724782">
<ele>219</ele>
<time>2025-07-25T02:03:24Z</time></trkpt>
<trkpt lat="-38.490567" lon="143.72483">
<ele>220</ele>
<time>2025-07-25T02:03:26Z</time></trkpt>
<trkpt lat="-38.490567" lon="143.72483">
<ele>220</ele>
<time>2025-07-25T02:03:26Z</time></trkpt>
<trkpt lat="-38.490743" lon="143.724921">
<ele>222</ele>
<time>2025-07-25T02:03:30Z</time></trkpt>
<trkpt lat="-38.491028" lon="143.724696">
<ele>223</ele>
<time>2025-07-25T02:03:37Z</time></trkpt>
<trkpt lat="-38.491171" lon="143.724717">
<ele>223</ele>
<time>2025-07-25T02:03:39Z</time></trkpt>
<trkpt lat="-38.491398" lon="143.724792">
<ele>225</ele>
<time>2025-07-25T02:03:44Z</time></trkpt>
<trkpt lat="-38.491549" lon="143.725007">
<ele>226</ele>
<time>2025-07-25T02:03:49Z</time></trkpt>
<trkpt lat="-38.491415" lon="143.725318">
<ele>227</ele>
<time>2025-07-25T02:03:54Z</time></trkpt>
<trkpt lat="-38.491356" lon="143.725243">
<ele>227</ele>
<time>2025-07-25T02:03:56Z</time></trkpt>
<trkpt lat="-38.491297" lon="143.725082">
<ele>226</ele>
<time>2025-07-25T02:03:59Z</time></trkpt>
<trkpt lat="-38.491146" lon="143.725275">
<ele>226</ele>
<time>2025-07-25T02:04:03Z</time></trkpt>
<trkpt lat="-38.491054" lon="143.72549">
<ele>226</ele>
<time>2025-07-25T02:04:07Z</time></trkpt>
<trkpt lat="-38.490953" lon="143.725618">
<ele>226</ele>
<time>2025-07-25T02:04:10Z</time></trkpt>
<trkpt lat="-38.490978" lon="143.725479">
<ele>226</ele>
<time>2025-07-25T02:04:12Z</time></trkpt>
<trkpt lat="-38.490986" lon="143.725093">
<ele>224</ele>
<time>2025-07-25T02:04:18Z</time></trkpt>
<trkpt lat="-38.490894" lon="143.72506">
<ele>224</ele>
<time>2025-07-25T02:04:20Z</time></trkpt>
<trkpt lat="-38.490718" lon="143.725082">
<ele>222</ele>
<time>2025-07-25T02:04:23Z</time></trkpt>
<trkpt lat="-38.490558" lon="143.725232">
<ele>221</ele>
<time>2025-07-25T02:04:27Z</time></trkpt>
<trkpt lat="-38.49048" lon="143.725268">
<ele>221</ele>
<time>2025-07-25T02:04:29Z</time></trkpt>
<trkpt lat="-38.49048" lon="143.725268">
<ele>221</ele>
<time>2025-07-25T02:04:29Z</time></trkpt>
<trkpt lat="-38.490113" lon="143.725436">
<ele>218</ele>
<time>2025-07-25T02:04:37Z</time></trkpt>
<trkpt lat="-38.48997" lon="143.725747">
<ele>218</ele>
<time>2025-07-25T02:04:42Z</time></trkpt>
<trkpt lat="-38.489987" lon="143.725887">
<ele>218</ele>
<time>2025-07-25T02:04:45Z</time></trkpt>
<trkpt lat="-38.49018" lon="143.72609">
<ele>220</ele>
<time>2025-07-25T02:04:50Z</time></trkpt>
<trkpt lat="-38.490474" lon="143.726455">
<ele>223</ele>
<time>2025-07-25T02:04:58Z</time></trkpt>
<trkpt lat="-38.490768" lon="143.726541">
<ele>226</ele>
<time>2025-07-25T02:05:04Z</time></trkpt>
<trkpt lat="-38.490986" lon="143.726466">
<ele>228</ele>
<time>2025-07-25T02:05:08Z</time></trkpt>
<trkpt lat="-38.491171" lon="143.726337">
<ele>229</ele>
<time>2025-07-25T02:05:13Z</time></trkpt>
<trkpt lat="-38.491721" lon="143.726284">
<ele>232</ele>
<time>2025-07-25T02:05:24Z</time></trkpt>
<trkpt lat="-38.491717" lon="143.726262">
<ele>232</ele>
<time>2025-07-25T02:05:24Z</time></trkpt>
<trkpt lat="-38.491851" lon="143.726144">
<ele>232</ele>
<time>2025-07-25T02:05:27Z</time></trkpt>
<trkpt lat="-38.491927" lon="143.725983">
<ele>232</ele>
<time>2025-07-25T02:05:30Z</time></trkpt>
<trkpt lat="-38.491893" lon="143.725683">
<ele>231</ele>
<time>2025-07-25T02:05:35Z</time></trkpt>
<trkpt lat="-38.491893" lon="143.725683">
<ele>231</ele>
<time>2025-07-25T02:05:35Z</time></trkpt>
<trkpt lat="-38.491885" lon="143.725608">
<ele>231</ele>
<time>2025-07-25T02:05:36Z</time></trkpt>
<trkpt lat="-38.491809" lon="143.725415">
<ele>230</ele>
<time>2025-07-25T02:05:40Z</time></trkpt>
<trkpt lat="-38.491751" lon="143.725103">
<ele>228</ele>
<time>2025-07-25T02:05:45Z</time></trkpt>
<trkpt lat="-38.491767" lon="143.7249">
<ele>227</ele>
<time>2025-07-25T02:05:48Z</time></trkpt>
<trkpt lat="-38.4917" lon="143.72461">
<ele>226</ele>
<time>2025-07-25T02:05:53Z</time></trkpt>
<trkpt lat="-38.491725" lon="143.724417">
<ele>225</ele>
<time>2025-07-25T02:05:56Z</time></trkpt>
<trkpt lat="-38.491893" lon="143.724149">
<ele>225</ele>
<time>2025-07-25T02:06:01Z</time></trkpt>
<trkpt lat="-38.492045" lon="143.72402">
<ele>225</ele>
<time>2025-07-25T02:06:05Z</time></trkpt>
<trkpt lat="-38.492213" lon="143.724063">
<ele>226</ele>
<time>2025-07-25T02:06:08Z</time></trkpt>
<trkpt lat="-38.492322" lon="143.724063">
<ele>226</ele>
<time>2025-07-25T02:06:10Z</time></trkpt>
<trkpt lat="-38.492406" lon="143.724138">
<ele>226</ele>
<time>2025-07-25T02:06:12Z</time></trkpt>
<trkpt lat="-38.492616" lon="143.72417">
<ele>227</ele>
<time>2025-07-25T02:06:17Z</time></trkpt>
<trkpt lat="-38.492666" lon="143.724116">
<ele>228</ele>
<time>2025-07-25T02:06:18Z</time></trkpt>
<trkpt lat="-38.492607" lon="143.723998">
<ele>228</ele>
<time>2025-07-25T02:06:20Z</time></trkpt>
<trkpt lat="-38.492456" lon="143.723934">
<ele>227</ele>
<time>2025-07-25T02:06:23Z</time></trkpt>
<trkpt lat="-38.492305" lon="143.723955">
<ele>226</ele>
<time>2025-07-25T02:06:26Z</time></trkpt>
<trkpt lat="-38.492095" lon="143.72388">
<ele>226</ele>
<time>2025-07-25T02:06:31Z</time></trkpt>
<trkpt lat="-38.492196" lon="143.723644">
<ele>226</ele>
<time>2025-07-25T02:06:35Z</time></trkpt>
<trkpt lat="-38.492355" lon="143.723709">
<ele>227</ele>
<time>2025-07-25T02:06:38Z</time></trkpt>
<trkpt lat="-38.492397" lon="143.723494">
<ele>228</ele>
<time>2025-07-25T02:06:42Z</time></trkpt>
<trkpt lat="-38.492725" lon="143.723204">
<ele>230</ele>
<time>2025-07-25T02:06:50Z</time></trkpt>
<trkpt lat="-38.492884" lon="143.722968">
<ele>231</ele>
<time>2025-07-25T02:06:55Z</time></trkpt>
<trkpt lat="-38.493245" lon="143.722958">
<ele>233</ele>
<time>2025-07-25T02:07:02Z</time></trkpt>
<trkpt lat="-38.493323" lon="143.722741">
<ele>233</ele>
<time>2025-07-25T02:07:06Z</time></trkpt>
<trkpt lat="-38.493323" lon="143.722741">
<ele>233</ele>
<time>2025-07-25T02:07:06Z</time></trkpt>
<trkpt lat="-38.49343" lon="143.722443">
<ele>232</ele>
<time>2025-07-25T02:07:11Z</time></trkpt>
<trkpt lat="-38.493556" lon="143.722164">
<ele>233</ele>
<time>2025-07-25T02:07:16Z</time></trkpt>
<trkpt lat="-38.493576" lon="143.721879">
<ele>232</ele>
<time>2025-07-25T02:07:20Z</time></trkpt>
<trkpt lat="-38.493564" lon="143.721649">
<ele>232</ele>
<time>2025-07-25T02:07:24Z</time></trkpt>
<trkpt lat="-38.493329" lon="143.721692">
<ele>230</ele>
<time>2025-07-25T02:07:29Z</time></trkpt>
<trkpt lat="-38.493191" lon="143.7218">
<ele>230</ele>
<time>2025-07-25T02:07:32Z</time></trkpt>
<trkpt lat="-38.493139" lon="143.721965">
<ele>230</ele>
<time>2025-07-25T02:07:35Z</time></trkpt>
<trkpt lat="-38.493267" lon="143.722244">
<ele>231</ele>
<time>2025-07-25T02:07:40Z</time></trkpt>
<trkpt lat="-38.493249" lon="143.722492">
<ele>232</ele>
<time>2025-07-25T02:07:44Z</time></trkpt>
<trkpt lat="-38.493143" lon="143.722707">
<ele>232</ele>
<time>2025-07-25T02:07:48Z</time></trkpt>
<trkpt lat="-38.493015" lon="143.722704">
<ele>231</ele>
<time>2025-07-25T02:07:50Z</time></trkpt>
<trkpt lat="-38.492781" lon="143.722608">
<ele>231</ele>
<time>2025-07-25T02:07:55Z</time></trkpt>
<trkpt lat="-38.492547" lon="143.72239">
<ele>230</ele>
<time>2025-07-25T02:08:01Z</time></trkpt>
<trkpt lat="-38.492455" lon="143.722266">
<ele>230</ele>
<time>2025-07-25T02:08:04Z</time></trkpt>
<trkpt lat="-38.492375" lon="143.722418">
<ele>229</ele>
<time>2025-07-25T02:08:07Z</time></trkpt>
<trkpt lat="-38.492406" lon="143.722525">
<ele>230</ele>
<time>2025-07-25T02:08:08Z</time></trkpt>
<trkpt lat="-38.492506" lon="143.7227">
<ele>230</ele>
<time>2025-07-25T02:08:12Z</time></trkpt>
<trkpt lat="-38.492473" lon="143.722818">
<ele>229</ele>
<time>2025-07-25T02:08:14Z</time></trkpt>
<trkpt lat="-38.492473" lon="143.722973">
<ele>229</ele>
<time>2025-07-25T02:08:16Z</time></trkpt>
<trkpt lat="-38.492473" lon="143.722973">
<ele>229</ele>
<time>2025-07-25T02:08:16Z</time></trkpt>
<trkpt lat="-38.492422" lon="143.723054">
<ele>229</ele>
<time>2025-07-25T02:08:18Z</time></trkpt>
<trkpt lat="-38.492112" lon="143.723183">
<ele>227</ele>
<time>2025-07-25T02:08:24Z</time></trkpt>
<trkpt lat="-38.491944" lon="143.723505">
<ele>225</ele>
<time>2025-07-25T02:08:30Z</time></trkpt>
<trkpt lat="-38.49186" lon="143.723612">
<ele>225</ele>
<time>2025-07-25T02:08:33Z</time></trkpt>
<trkpt lat="-38.491784" lon="143.723827">
<ele>224</ele>
<time>2025-07-25T02:08:36Z</time></trkpt>
<trkpt lat="-38.491759" lon="143.723977">
<ele>224</ele>
<time>2025-07-25T02:08:39Z</time></trkpt>
<trkpt lat="-38.491591" lon="143.724063">
<ele>224</ele>
<time>2025-07-25T02:08:42Z</time></trkpt>
<trkpt lat="-38.491457" lon="143.723945">
<ele>223</ele>
<time>2025-07-25T02:08:46Z</time></trkpt>
<trkpt lat="-38.491264" lon="143.724385">
<ele>222</ele>
<time>2025-07-25T02:08:54Z</time></trkpt>
<trkpt lat="-38.491154" lon="143.72432">
<ele>222</ele>
<time>2025-07-25T02:08:56Z</time></trkpt>
<trkpt lat="-38.49128" lon="143.723902">
<ele>222</ele>
<time>2025-07-25T02:09:03Z</time></trkpt>
<trkpt lat="-38.491171" lon="143.723773">
<ele>222</ele>
<time>2025-07-25T02:09:06Z</time></trkpt>
<trkpt lat="-38.49107" lon="143.723784">
<ele>221</ele>
<time>2025-07-25T02:09:08Z</time></trkpt>
<trkpt lat="-38.491112" lon="143.724106">
<ele>221</ele>
<time>2025-07-25T02:09:13Z</time></trkpt>
<trkpt lat="-38.490978" lon="143.724546">
<ele>222</ele>
<time>2025-07-25T02:09:21Z</time></trkpt>
<trkpt lat="-38.490776" lon="143.724696">
<ele>221</ele>
<time>2025-07-25T02:09:25Z</time></trkpt>
<trkpt lat="-38.490625" lon="143.724717">
<ele>220</ele>
<time>2025-07-25T02:09:28Z</time></trkpt>
<trkpt lat="-38.490474" lon="143.724599">
<ele>218</ele>
<time>2025-07-25T02:09:32Z</time></trkpt>
<trkpt lat="-38.490541" lon="143.724492">
<ele>219</ele>
<time>2025-07-25T02:09:34Z</time></trkpt>
<trkpt lat="-38.490676" lon="143.724449">
<ele>219</ele>
<time>2025-07-25T02:09:37Z</time></trkpt>
<trkpt lat="-38.49097" lon="143.724084">
<ele>220</ele>
<time>2025-07-25T02:09:45Z</time></trkpt>
<trkpt lat="-38.490903" lon="143.723945">
<ele>220</ele>
<time>2025-07-25T02:09:48Z</time></trkpt>
<trkpt lat="-38.490735" lon="143.724138">
<ele>219</ele>
<time>2025-07-25T02:09:52Z</time></trkpt>
<trkpt lat="-38.490516" lon="143.724267">
<ele>218</ele>
<time>2025-07-25T02:09:57Z</time></trkpt>
<trkpt lat="-38.490399" lon="143.724481">
<ele>218</ele>
<time>2025-07-25T02:10:01Z</time></trkpt>
<trkpt lat="-38.490206" lon="143.72447">
<ele>216</ele>
<time>2025-07-25T02:10:05Z</time></trkpt>
<trkpt lat="-38.490164" lon="143.724599">
<ele>216</ele>
<time>2025-07-25T02:10:07Z</time></trkpt>
<trkpt lat="-38.49008" lon="143.724492">
<ele>216</ele>
<time>2025-07-25T02:10:10Z</time></trkpt>
<trkpt lat="-38.49008" lon="143.724331">
<ele>215</ele>
<time>2025-07-25T02:10:12Z</time></trkpt>
<trkpt lat="-38.489987" lon="143.724256">
<ele>215</ele>
<time>2025-07-25T02:10:14Z</time></trkpt>
<trkpt lat="-38.490046" lon="143.724127">
<ele>215</ele>
<time>2025-07-25T02:10:17Z</time></trkpt>
<trkpt lat="-38.490415" lon="143.724106">
<ele>217</ele>
<time>2025-07-25T02:10:24Z</time></trkpt>
<trkpt lat="-38.490693" lon="143.72402">
<ele>219</ele>
<time>2025-07-25T02:10:30Z</time></trkpt>
<trkpt lat="-38.490827" lon="143.723859">
<ele>220</ele>
<time>2025-07-25T02:10:33Z</time></trkpt>
<trkpt lat="-38.490852" lon="143.723709">
<ele>220</ele>
<time>2025-07-25T02:10:36Z</time></trkpt>
<trkpt lat="-38.490986" lon="143.723612">
<ele>221</ele>
<time>2025-07-25T02:10:39Z</time></trkpt>
<trkpt lat="-38.491213" lon="143.723548">
<ele>222</ele>
<time>2025-07-25T02:10:44Z</time></trkpt>
<trkpt lat="-38.491356" lon="143.723376">
<ele>223</ele>
<time>2025-07-25T02:10:47Z</time></trkpt>
<trkpt lat="-38.49149" lon="143.723698">
<ele>223</ele>
<time>2025-07-25T02:10:53Z</time></trkpt>
<trkpt lat="-38.491574" lon="143.723548">
<ele>224</ele>
<time>2025-07-25T02:10:56Z</time></trkpt>
<trkpt lat="-38.491751" lon="143.723301">
<ele>225</ele>
<time>2025-07-25T02:11:01Z</time></trkpt>
<trkpt lat="-38.49207" lon="143.722947">
<ele>227</ele>
<time>2025-07-25T02:11:10Z</time></trkpt>
<trkpt lat="-38.492187" lon="143.722732">
<ele>228</ele>
<time>2025-07-25T02:11:14Z</time></trkpt>
<trkpt lat="-38.492162" lon="143.722539">
<ele>229</ele>
<time>2025-07-25T02:11:17Z</time></trkpt>
<trkpt lat="-38.492019" lon="143.722335">
<ele>228</ele>
<time>2025-07-25T02:11:21Z</time></trkpt>
<trkpt lat="-38.491902" lon="143.722292">
<ele>228</ele>
<time>2025-07-25T02:11:24Z</time></trkpt>
<trkpt lat="-38.491835" lon="143.722346">
<ele>228</ele>
<time>2025-07-25T02:11:25Z</time></trkpt>
<trkpt lat="-38.491843" lon="143.722657">
<ele>227</ele>
<time>2025-07-25T02:11:30Z</time></trkpt>
<trkpt lat="-38.491793" lon="143.72285">
<ele>226</ele>
<time>2025-07-25T02:11:33Z</time></trkpt>
<trkpt lat="-38.491599" lon="143.722979">
<ele>225</ele>
<time>2025-07-25T02:11:38Z</time></trkpt>
<trkpt lat="-38.491297" lon="143.723108">
<ele>223</ele>
<time>2025-07-25T02:11:44Z</time></trkpt>
<trkpt lat="-38.491146" lon="143.723151">
<ele>223</ele>
<time>2025-07-25T02:11:47Z</time></trkpt>
<trkpt lat="-38.490978" lon="143.723086">
<ele>222</ele>
<time>2025-07-25T02:11:51Z</time></trkpt>
<trkpt lat="-38.490928" lon="143.723258">
<ele>222</ele>
<time>2025-07-25T02:11:54Z</time></trkpt>
<trkpt lat="-38.490751" lon="143.723355">
<ele>221</ele>
<time>2025-07-25T02:11:57Z</time></trkpt>
<trkpt lat="-38.490575" lon="143.723516">
<ele>220</ele>
<time>2025-07-25T02:12:02Z</time></trkpt>
<trkpt lat="-38.490508" lon="143.723698">
<ele>219</ele>
<time>2025-07-25T02:12:05Z</time></trkpt>
<trkpt lat="-38.490424" lon="143.723805">
<ele>218</ele>
<time>2025-07-25T02:12:07Z</time></trkpt>
<trkpt lat="-38.490306" lon="143.723623">
<ele>218</ele>
<time>2025-07-25T02:12:11Z</time></trkpt>
<trkpt lat="-38.490625" lon="143.723194">
<ele>221</ele>
<time>2025-07-25T02:12:20Z</time></trkpt>
<trkpt lat="-38.490852" lon="143.723011">
<ele>222</ele>
<time>2025-07-25T02:12:26Z</time></trkpt>
<trkpt lat="-38.491196" lon="143.722947">
<ele>223</ele>
<time>2025-07-25T02:12:33Z</time></trkpt>
<trkpt lat="-38.491432" lon="143.722775">
<ele>225</ele>
<time>2025-07-25T02:12:38Z</time></trkpt>
<trkpt lat="-38.491499" lon="143.722646">
<ele>226</ele>
<time>2025-07-25T02:12:41Z</time></trkpt>
<trkpt lat="-38.491528" lon="143.722472">
<ele>226</ele>
<time>2025-07-25T02:12:43Z</time></trkpt>
<trkpt lat="-38.491528" lon="143.722472">
<ele>226</ele>
<time>2025-07-25T02:12:43Z</time></trkpt>
<trkpt lat="-38.491549" lon="143.722346">
<ele>227</ele>
<time>2025-07-25T02:12:45Z</time></trkpt>
<trkpt lat="-38.491549" lon="143.722132">
<ele>227</ele>
<time>2025-07-25T02:12:49Z</time></trkpt>
<trkpt lat="-38.491776" lon="143.722099">
<ele>228</ele>
<time>2025-07-25T02:12:53Z</time></trkpt>
<trkpt lat="-38.491843" lon="143.721938">
<ele>229</ele>
<time>2025-07-25T02:12:56Z</time></trkpt>
<trkpt lat="-38.491977" lon="143.721938">
<ele>229</ele>
<time>2025-07-25T02:12:59Z</time></trkpt>
<trkpt lat="-38.492289" lon="143.721865">
<ele>229</ele>
<time>2025-07-25T02:13:05Z</time></trkpt>
<trkpt lat="-38.492557" lon="143.721735">
<ele>229</ele>
<time>2025-07-25T02:13:11Z</time></trkpt>
<trkpt lat="-38.492683" lon="143.721755">
<ele>229</ele>
<time>2025-07-25T02:13:13Z</time></trkpt>
<trkpt lat="-38.492845" lon="143.721635">
<ele>229</ele>
<time>2025-07-25T02:13:17Z</time></trkpt>
<trkpt lat="-38.492986" lon="143.721592">
<ele>230</ele>
<time>2025-07-25T02:13:20Z</time></trkpt>
<trkpt lat="-38.492986" lon="143.721592">
<ele>230</ele>
<time>2025-07-25T02:13:20Z</time></trkpt>
<trkpt lat="-38.493383" lon="143.721517">
<ele>230</ele>
<time>2025-07-25T02:13:28Z</time></trkpt>
<trkpt lat="-38.493589" lon="143.721511">
<ele>232</ele>
<time>2025-07-25T02:13:32Z</time></trkpt>
<trkpt lat="-38.493664" lon="143.721397">
<ele>232</ele>
<time>2025-07-25T02:13:35Z</time></trkpt>
<trkpt lat="-38.493655" lon="143.721261">
<ele>232</ele>
<time>2025-07-25T02:13:37Z</time></trkpt>
<trkpt lat="-38.493558" lon="143.72111">
<ele>231</ele>
<time>2025-07-25T02:13:40Z</time></trkpt>
<trkpt lat="-38.49348" lon="143.721071">
<ele>231</ele>
<time>2025-07-25T02:13:42Z</time></trkpt>
<trkpt lat="-38.493348" lon="143.721315">
<ele>230</ele>
<time>2025-07-25T02:13:46Z</time></trkpt>
<trkpt lat="-38.493262" lon="143.721346">
<ele>230</ele>
<time>2025-07-25T02:13:48Z</time></trkpt>
<trkpt lat="-38.493191" lon="143.721231">
<ele>230</ele>
<time>2025-07-25T02:13:50Z</time></trkpt>
<trkpt lat="-38.493266" lon="143.720849">
<ele>230</ele>
<time>2025-07-25T02:13:56Z</time></trkpt>
<trkpt lat="-38.493118" lon="143.720744">
<ele>229</ele>
<time>2025-07-25T02:14:00Z</time></trkpt>
<trkpt lat="-38.492938" lon="143.720729">
<ele>229</ele>
<time>2025-07-25T02:14:03Z</time></trkpt>
<trkpt lat="-38.492883" lon="143.720843">
<ele>229</ele>
<time>2025-07-25T02:14:06Z</time></trkpt>
<trkpt lat="-38.492912" lon="143.721031">
<ele>229</ele>
<time>2025-07-25T02:14:09Z</time></trkpt>
<trkpt lat="-38.492842" lon="143.721281">
<ele>229</ele>
<time>2025-07-25T02:14:13Z</time></trkpt>
<trkpt lat="-38.492769" lon="143.72133">
<ele>229</ele>
<time>2025-07-25T02:14:14Z</time></trkpt>
<trkpt lat="-38.492607" lon="143.721261">
<ele>229</ele>
<time>2025-07-25T02:14:18Z</time></trkpt>
<trkpt lat="-38.492607" lon="143.721261">
<ele>229</ele>
<time>2025-07-25T02:14:18Z</time></trkpt>
<trkpt lat="-38.492564" lon="143.721243">
<ele>229</ele>
<time>2025-07-25T02:14:19Z</time></trkpt>
<trkpt lat="-38.492473" lon="143.721112">
<ele>228</ele>
<time>2025-07-25T02:14:21Z</time></trkpt>
<trkpt lat="-38.492296" lon="143.720919">
<ele>227</ele>
<time>2025-07-25T02:14:26Z</time></trkpt>
<trkpt lat="-38.492095" lon="143.720984">
<ele>227</ele>
<time>2025-07-25T02:14:30Z</time></trkpt>
<trkpt lat="-38.491919" lon="143.721209">
<ele>227</ele>
<time>2025-07-25T02:14:35Z</time></trkpt>
<trkpt lat="-38.491784" lon="143.721295">
<ele>227</ele>
<time>2025-07-25T02:14:38Z</time></trkpt>
<trkpt lat="-38.49149" lon="143.72181">
<ele>227</ele>
<time>2025-07-25T02:14:48Z</time></trkpt>
<trkpt lat="-38.491289" lon="143.721949">
<ele>225</ele>
<time>2025-07-25T02:14:53Z</time></trkpt>
<trkpt lat="-38.491205" lon="143.722153">
<ele>225</ele>
<time>2025-07-25T02:14:56Z</time></trkpt>
<trkpt lat="-38.490877" lon="143.722239">
<ele>223</ele>
<time>2025-07-25T02:15:03Z</time></trkpt>
<trkpt lat="-38.490575" lon="143.72241">
<ele>221</ele>
<time>2025-07-25T02:15:10Z</time></trkpt>
<trkpt lat="-38.490491" lon="143.722646">
<ele>221</ele>
<time>2025-07-25T02:15:14Z</time></trkpt>
<trkpt lat="-38.490357" lon="143.722711">
<ele>220</ele>
<time>2025-07-25T02:15:17Z</time></trkpt>
<trkpt lat="-38.490231" lon="143.722571">
<ele>219</ele>
<time>2025-07-25T02:15:20Z</time></trkpt>
<trkpt lat="-38.490172" lon="143.722614">
<ele>219</ele>
<time>2025-07-25T02:15:21Z</time></trkpt>
<trkpt lat="-38.490172" lon="143.722765">
<ele>219</ele>
<time>2025-07-25T02:15:24Z</time></trkpt>
<trkpt lat="-38.490289" lon="143.722904">
<ele>219</ele>
<time>2025-07-25T02:15:27Z</time></trkpt>
<trkpt lat="-38.490239" lon="143.723076">
<ele>219</ele>
<time>2025-07-25T02:15:30Z</time></trkpt>
<trkpt lat="-38.48971" lon="143.723341">
<ele>214</ele>
<time>2025-07-25T02:15:41Z</time></trkpt>
<trkpt lat="-38.48971" lon="143.723341">
<ele>214</ele>
<time>2025-07-25T02:15:41Z</time></trkpt>
<trkpt lat="-38.489618" lon="143.723387">
<ele>213</ele>
<time>2025-07-25T02:15:43Z</time></trkpt>
<trkpt lat="-38.489282" lon="143.723902">
<ele>208</ele>
<time>2025-07-25T02:15:54Z</time></trkpt>
<trkpt lat="-38.489089" lon="143.723955">
<ele>205</ele>
<time>2025-07-25T02:15:58Z</time></trkpt>
<trkpt lat="-38.48887" lon="143.723773">
<ele>203</ele>
<time>2025-07-25T02:16:03Z</time></trkpt>
<trkpt lat="-38.488744" lon="143.723537">
<ele>201</ele>
<time>2025-07-25T02:16:07Z</time></trkpt>
<trkpt lat="-38.48856" lon="143.722979">
<ele>199</ele>
<time>2025-07-25T02:16:17Z</time></trkpt>
<trkpt lat="-38.488618" lon="143.722775">
<ele>200</ele>
<time>2025-07-25T02:16:20Z</time></trkpt>
<trkpt lat="-38.48861" lon="143.722453">
<ele>200</ele>
<time>2025-07-25T02:16:25Z</time></trkpt>
<trkpt lat="-38.488333" lon="143.72182">
<ele>195</ele>
<time>2025-07-25T02:16:37Z</time></trkpt>
<trkpt lat="-38.488215" lon="143.721584">
<ele>192</ele>
<time>2025-07-25T02:16:41Z</time></trkpt>
<trkpt lat="-38.488501" lon="143.72108">
<ele>193</ele>
<time>2025-07-25T02:16:51Z</time></trkpt>
<trkpt lat="-38.488887" lon="143.720114">
<ele>196</ele>
<time>2025-07-25T02:17:08Z</time></trkpt>
<trkpt lat="-38.489013" lon="143.719567">
<ele>197</ele>
<time>2025-07-25T02:17:17Z</time></trkpt>
<trkpt lat="-38.489189" lon="143.719063">
<ele>200</ele>
<time>2025-07-25T02:17:26Z</time></trkpt>
<trkpt lat="-38.48945" lon="143.719331">
<ele>202</ele>
<time>2025-07-25T02:17:32Z</time></trkpt>
<trkpt lat="-38.489609" lon="143.719685">
<ele>203</ele>
<time>2025-07-25T02:17:39Z</time></trkpt>
<trkpt lat="-38.489685" lon="143.720157">
<ele>204</ele>
<time>2025-07-25T02:17:46Z</time></trkpt>
<trkpt lat="-38.489811" lon="143.720415">
<ele>206</ele>
<time>2025-07-25T02:17:51Z</time></trkpt>
<trkpt lat="-38.490147" lon="143.720554">
<ele>210</ele>
<time>2025-07-25T02:17:58Z</time></trkpt>
<trkpt lat="-38.49055" lon="143.720351">
<ele>213</ele>
<time>2025-07-25T02:18:07Z</time></trkpt>
<trkpt lat="-38.490701" lon="143.720383">
<ele>214</ele>
<time>2025-07-25T02:18:10Z</time></trkpt>
<trkpt lat="-38.491093" lon="143.720251">
<ele>217</ele>
<time>2025-07-25T02:18:18Z</time></trkpt>
<trkpt lat="-38.491093" lon="143.72025">
<ele>217</ele>
<time>2025-07-25T02:18:18Z</time></trkpt>
<trkpt lat="-38.491146" lon="143.720233">
<ele>218</ele>
<time>2025-07-25T02:18:19Z</time></trkpt>
<trkpt lat="-38.491222" lon="143.720297">
<ele>219</ele>
<time>2025-07-25T02:18:21Z</time></trkpt>
<trkpt lat="-38.49144" lon="143.720361">
<ele>221</ele>
<time>2025-07-25T02:18:25Z</time></trkpt>
<trkpt lat="-38.491616" lon="143.720372">
<ele>222</ele>
<time>2025-07-25T02:18:29Z</time></trkpt>
<trkpt lat="-38.4917" lon="143.720286">
<ele>223</ele>
<time>2025-07-25T02:18:31Z</time></trkpt>
<trkpt lat="-38.491986" lon="143.720297">
<ele>224</ele>
<time>2025-07-25T02:18:37Z</time></trkpt>
<trkpt lat="-38.492145" lon="143.720372">
<ele>225</ele>
<time>2025-07-25T02:18:40Z</time></trkpt>
<trkpt lat="-38.492288" lon="143.720308">
<ele>226</ele>
<time>2025-07-25T02:18:43Z</time></trkpt>
<trkpt lat="-38.492335" lon="143.72017">
<ele>225</ele>
<time>2025-07-25T02:18:46Z</time></trkpt>
<trkpt lat="-38.494056" lon="143.720337">
<ele>231</ele>
<time>2025-07-25T02:19:20Z</time></trkpt>
<trkpt lat="-38.494056" lon="143.720337">
<ele>231</ele>
<time>2025-07-25T02:19:20Z</time></trkpt>
<trkpt lat="-38.494641" lon="143.720328">
<ele>233</ele>
<time>2025-07-25T02:19:32Z</time></trkpt>
<trkpt lat="-38.496224" lon="143.720196">
<ele>241</ele>
<time>2025-07-25T02:20:04Z</time></trkpt>
<trkpt lat="-38.496224" lon="143.720196">
<ele>241</ele>
<time>2025-07-25T02:20:04Z</time></trkpt>
<trkpt lat="-38.496942" lon="143.720115">
<ele>243</ele>
<time>2025-07-25T02:20:18Z</time></trkpt>
<trkpt lat="-38.49715" lon="143.719127">
<ele>244</ele>
<time>2025-07-25T02:20:34Z</time></trkpt>
<trkpt lat="-38.49718" lon="143.718791">
<ele>243</ele>
<time>2025-07-25T02:20:39Z</time></trkpt>
<trkpt lat="-38.49718" lon="143.718791">
<ele>243</ele>
<time>2025-07-25T02:20:39Z</time></trkpt>
<trkpt lat="-38.497209" lon="143.718473">
<ele>243</ele>
<time>2025-07-25T02:20:44Z</time></trkpt>
<trkpt lat="-38.496965" lon="143.718151">
<ele>243</ele>
<time>2025-07-25T02:20:51Z</time></trkpt>
<trkpt lat="-38.496965" lon="143.718151">
<ele>243</ele>
<time>2025-07-25T02:20:51Z</time></trkpt>
<trkpt lat="-38.496965" lon="143.717829">
<ele>243</ele>
<time>2025-07-25T02:20:57Z</time></trkpt>
<trkpt lat="-38.496898" lon="143.717507">
<ele>242</ele>
<time>2025-07-25T02:21:02Z</time></trkpt>
<trkpt lat="-38.496802" lon="143.717558">
<ele>243</ele>
<time>2025-07-25T02:21:04Z</time></trkpt>
<trkpt lat="-38.49676" lon="143.717476">
<ele>243</ele>
<time>2025-07-25T02:21:05Z</time></trkpt>
<trkpt lat="-38.496803" lon="143.717436">
<ele>243</ele>
<time>2025-07-25T02:21:06Z</time></trkpt>
<trkpt lat="-38.496824" lon="143.71739">
<ele>242</ele>
<time>2025-07-25T02:21:07Z</time></trkpt>
<trkpt lat="-38.496843" lon="143.717133">
<ele>242</ele>
<time>2025-07-25T02:21:11Z</time></trkpt>
<trkpt lat="-38.496608" lon="143.716895">
<ele>241</ele>
<time>2025-07-25T02:21:17Z</time></trkpt>
<trkpt lat="-38.496464" lon="143.71672">
<ele>240</ele>
<time>2025-07-25T02:21:21Z</time></trkpt>
<trkpt lat="-38.496436" lon="143.716483">
<ele>239</ele>
<time>2025-07-25T02:21:25Z</time></trkpt>
<trkpt lat="-38.49634" lon="143.716352">
<ele>238</ele>
<time>2025-07-25T02:21:28Z</time></trkpt>
<trkpt lat="-38.496525" lon="143.715668">
<ele>239</ele>
<time>2025-07-25T02:21:39Z</time></trkpt>
<trkpt lat="-38.496635" lon="143.715632">
<ele>240</ele>
<time>2025-07-25T02:21:42Z</time></trkpt>
<trkpt lat="-38.496635" lon="143.715632">
<ele>240</ele>
<time>2025-07-25T02:21:42Z</time></trkpt>
<trkpt lat="-38.496752" lon="143.715466">
<ele>240</ele>
<time>2025-07-25T02:21:45Z</time></trkpt>
<trkpt lat="-38.496711" lon="143.715212">
<ele>240</ele>
<time>2025-07-25T02:21:49Z</time></trkpt>
<trkpt lat="-38.49656" lon="143.714861">
<ele>239</ele>
<time>2025-07-25T02:21:55Z</time></trkpt>
<trkpt lat="-38.496361" lon="143.714721">
<ele>237</ele>
<time>2025-07-25T02:22:00Z</time></trkpt>
<trkpt lat="-38.496299" lon="143.714545">
<ele>236</ele>
<time>2025-07-25T02:22:03Z</time></trkpt>
<trkpt lat="-38.496182" lon="143.714335">
<ele>234</ele>
<time>2025-07-25T02:22:07Z</time></trkpt>
<trkpt lat="-38.495935" lon="143.714282">
<ele>231</ele>
<time>2025-07-25T02:22:12Z</time></trkpt>
<trkpt lat="-38.495695" lon="143.714124">
<ele>228</ele>
<time>2025-07-25T02:22:17Z</time></trkpt>
<trkpt lat="-38.495468" lon="143.714238">
<ele>227</ele>
<time>2025-07-25T02:22:22Z</time></trkpt>
<trkpt lat="-38.495166" lon="143.714335">
<ele>226</ele>
<time>2025-07-25T02:22:29Z</time></trkpt>
<trkpt lat="-38.494768" lon="143.713993">
<ele>222</ele>
<time>2025-07-25T02:22:38Z</time></trkpt>
<trkpt lat="-38.494576" lon="143.714002">
<ele>221</ele>
<time>2025-07-25T02:22:42Z</time></trkpt>
<trkpt lat="-38.494514" lon="143.714063">
<ele>221</ele>
<time>2025-07-25T02:22:44Z</time></trkpt>
<trkpt lat="-38.49446" lon="143.7138">
<ele>220</ele>
<time>2025-07-25T02:22:48Z</time></trkpt>
<trkpt lat="-38.494446" lon="143.713633">
<ele>220</ele>
<time>2025-07-25T02:22:50Z</time></trkpt>
<trkpt lat="-38.494508" lon="143.713291">
<ele>220</ele>
<time>2025-07-25T02:22:56Z</time></trkpt>
<trkpt lat="-38.494521" lon="143.713116">
<ele>219</ele>
<time>2025-07-25T02:22:59Z</time></trkpt>
<trkpt lat="-38.494528" lon="143.712827">
<ele>217</ele>
<time>2025-07-25T02:23:03Z</time></trkpt>
<trkpt lat="-38.49448" lon="143.712572">
<ele>215</ele>
<time>2025-07-25T02:23:07Z</time></trkpt>
<trkpt lat="-38.494583" lon="143.712441">
<ele>215</ele>
<time>2025-07-25T02:23:10Z</time></trkpt>
<trkpt lat="-38.494659" lon="143.712116">
<ele>214</ele>
<time>2025-07-25T02:23:16Z</time></trkpt>
<trkpt lat="-38.494871" lon="143.71216">
<ele>216</ele>
<time>2025-07-25T02:23:20Z</time></trkpt>
<trkpt lat="-38.494995" lon="143.712099">
<ele>217</ele>
<time>2025-07-25T02:23:23Z</time></trkpt>
<trkpt lat="-38.495077" lon="143.712257">
<ele>218</ele>
<time>2025-07-25T02:23:26Z</time></trkpt>
<trkpt lat="-38.495091" lon="143.71236">
<ele>219</ele>
<time>2025-07-25T02:23:27Z</time></trkpt>
<trkpt lat="-38.495091" lon="143.71236">
<ele>219</ele>
<time>2025-07-25T02:23:27Z</time></trkpt>
<trkpt lat="-38.495098" lon="143.712414">
<ele>220</ele>
<time>2025-07-25T02:23:28Z</time></trkpt>
<trkpt lat="-38.495173" lon="143.712458">
<ele>221</ele>
<time>2025-07-25T02:23:30Z</time></trkpt>
<trkpt lat="-38.495249" lon="143.712414">
<ele>221</ele>
<time>2025-07-25T02:23:31Z</time></trkpt>
<trkpt lat="-38.495297" lon="143.712344">
<ele>221</ele>
<time>2025-07-25T02:23:33Z</time></trkpt>
<trkpt lat="-38.495359" lon="143.712406">
<ele>222</ele>
<time>2025-07-25T02:23:34Z</time></trkpt>
<trkpt lat="-38.495297" lon="143.71266">
<ele>222</ele>
<time>2025-07-25T02:23:39Z</time></trkpt>
<trkpt lat="-38.495537" lon="143.712853">
<ele>225</ele>
<time>2025-07-25T02:23:44Z</time></trkpt>
<trkpt lat="-38.495672" lon="143.712899">
<ele>226</ele>
<time>2025-07-25T02:23:47Z</time></trkpt>
<trkpt lat="-38.495805" lon="143.712888">
<ele>227</ele>
<time>2025-07-25T02:23:50Z</time></trkpt>
<trkpt lat="-38.495832" lon="143.713072">
<ele>227</ele>
<time>2025-07-25T02:23:53Z</time></trkpt>
<trkpt lat="-38.495901" lon="143.713221">
<ele>228</ele>
<time>2025-07-25T02:23:55Z</time></trkpt>
<trkpt lat="-38.495969" lon="143.713221">
<ele>229</ele>
<time>2025-07-25T02:23:57Z</time></trkpt>
<trkpt lat="-38.496148" lon="143.713467">
<ele>231</ele>
<time>2025-07-25T02:24:02Z</time></trkpt>
<trkpt lat="-38.49623" lon="143.713633">
<ele>232</ele>
<time>2025-07-25T02:24:05Z</time></trkpt>
<trkpt lat="-38.49623" lon="143.713809">
<ele>232</ele>
<time>2025-07-25T02:24:08Z</time></trkpt>
<trkpt lat="-38.496299" lon="143.713809">
<ele>233</ele>
<time>2025-07-25T02:24:09Z</time></trkpt>
<trkpt lat="-38.496429" lon="143.713625">
<ele>234</ele>
<time>2025-07-25T02:24:13Z</time></trkpt>
<trkpt lat="-38.496573" lon="143.713625">
<ele>236</ele>
<time>2025-07-25T02:24:16Z</time></trkpt>
<trkpt lat="-38.496717" lon="143.713563">
<ele>237</ele>
<time>2025-07-25T02:24:19Z</time></trkpt>
<trkpt lat="-38.49682" lon="143.713563">
<ele>238</ele>
<time>2025-07-25T02:24:21Z</time></trkpt>
<trkpt lat="-38.496869" lon="143.713283">
<ele>238</ele>
<time>2025-07-25T02:24:26Z</time></trkpt>
<trkpt lat="-38.49669" lon="143.713063">
<ele>236</ele>
<time>2025-07-25T02:24:31Z</time></trkpt>
<trkpt lat="-38.496738" lon="143.71266">
<ele>237</ele>
<time>2025-07-25T02:24:37Z</time></trkpt>
<trkpt lat="-38.496683" lon="143.71245">
<ele>236</ele>
<time>2025-07-25T02:24:40Z</time></trkpt>
<trkpt lat="-38.496766" lon="143.712151">
<ele>235</ele>
<time>2025-07-25T02:24:45Z</time></trkpt>
<trkpt lat="-38.49693" lon="143.712072">
<ele>236</ele>
<time>2025-07-25T02:24:49Z</time></trkpt>
<trkpt lat="-38.497054" lon="143.712204">
<ele>238</ele>
<time>2025-07-25T02:24:52Z</time></trkpt>
<trkpt lat="-38.49717" lon="143.712178">
<ele>239</ele>
<time>2025-07-25T02:24:55Z</time></trkpt>
<trkpt lat="-38.497404" lon="143.711906">
<ele>240</ele>
<time>2025-07-25T02:25:01Z</time></trkpt>
<trkpt lat="-38.497459" lon="143.711704">
<ele>240</ele>
<time>2025-07-25T02:25:04Z</time></trkpt>
<trkpt lat="-38.497562" lon="143.711564">
<ele>240</ele>
<time>2025-07-25T02:25:07Z</time></trkpt>
<trkpt lat="-38.497652" lon="143.710616">
<ele>236</ele>
<time>2025-07-25T02:25:22Z</time></trkpt>
<trkpt lat="-38.497644" lon="143.71052">
<ele>235</ele>
<time>2025-07-25T02:25:24Z</time></trkpt>
<trkpt lat="-38.497569" lon="143.710408">
<ele>233</ele>
<time>2025-07-25T02:25:26Z</time></trkpt>
<trkpt lat="-38.497099" lon="143.710234">
<ele>227</ele>
<time>2025-07-25T02:25:36Z</time></trkpt>
<trkpt lat="-38.497073" lon="143.709864">
<ele>224</ele>
<time>2025-07-25T02:25:42Z</time></trkpt>
<trkpt lat="-38.496857" lon="143.709572">
<ele>220</ele>
<time>2025-07-25T02:25:48Z</time></trkpt>
<trkpt lat="-38.49666" lon="143.709398">
<ele>217</ele>
<time>2025-07-25T02:25:53Z</time></trkpt>
<trkpt lat="-38.496497" lon="143.709151">
<ele>215</ele>
<time>2025-07-25T02:25:58Z</time></trkpt>
<trkpt lat="-38.496317" lon="143.709156">
<ele>213</ele>
<time>2025-07-25T02:26:01Z</time></trkpt>
<trkpt lat="-38.496216" lon="143.708982">
<ele>212</ele>
<time>2025-07-25T02:26:05Z</time></trkpt>
<trkpt lat="-38.496133" lon="143.708938">
<ele>211</ele>
<time>2025-07-25T02:26:07Z</time></trkpt>
<trkpt lat="-38.496036" lon="143.709196">
<ele>211</ele>
<time>2025-07-25T02:26:11Z</time></trkpt>
<trkpt lat="-38.495931" lon="143.709224">
<ele>210</ele>
<time>2025-07-25T02:26:13Z</time></trkpt>
<trkpt lat="-38.495737" lon="143.709095">
<ele>208</ele>
<time>2025-07-25T02:26:18Z</time></trkpt>
<trkpt lat="-38.495619" lon="143.709055">
<ele>208</ele>
<time>2025-07-25T02:26:20Z</time></trkpt>
<trkpt lat="-38.495623" lon="143.709117">
<ele>208</ele>
<time>2025-07-25T02:26:21Z</time></trkpt>
<trkpt lat="-38.495663" lon="143.709207">
<ele>208</ele>
<time>2025-07-25T02:26:23Z</time></trkpt>
<trkpt lat="-38.4955" lon="143.709269">
<ele>207</ele>
<time>2025-07-25T02:26:26Z</time></trkpt>
<trkpt lat="-38.495338" lon="143.709112">
<ele>206</ele>
<time>2025-07-25T02:26:30Z</time></trkpt>
<trkpt lat="-38.495262" lon="143.709425">
<ele>206</ele>
<time>2025-07-25T02:26:35Z</time></trkpt>
<trkpt lat="-38.49468" lon="143.709461">
<ele>205</ele>
<time>2025-07-25T02:26:47Z</time></trkpt>
<trkpt lat="-38.49468" lon="143.709461">
<ele>205</ele>
<time>2025-07-25T02:26:47Z</time></trkpt>
<trkpt lat="-38.494657" lon="143.709463">
<ele>205</ele>
<time>2025-07-25T02:26:47Z</time></trkpt>
<trkpt lat="-38.494684" lon="143.70921">
<ele>204</ele>
<time>2025-07-25T02:26:51Z</time></trkpt>
<trkpt lat="-38.494865" lon="143.708951">
<ele>204</ele>
<time>2025-07-25T02:26:57Z</time></trkpt>
<trkpt lat="-38.494706" lon="143.708831">
<ele>203</ele>
<time>2025-07-25T02:27:01Z</time></trkpt>
<trkpt lat="-38.494618" lon="143.708705">
<ele>203</ele>
<time>2025-07-25T02:27:03Z</time></trkpt>
<trkpt lat="-38.494613" lon="143.708481">
<ele>202</ele>
<time>2025-07-25T02:27:07Z</time></trkpt>
<trkpt lat="-38.494558" lon="143.708361">
<ele>202</ele>
<time>2025-07-25T02:27:09Z</time></trkpt>
<trkpt lat="-38.494613" lon="143.708186">
<ele>201</ele>
<time>2025-07-25T02:27:12Z</time></trkpt>
<trkpt lat="-38.494733" lon="143.708235">
<ele>201</ele>
<time>2025-07-25T02:27:14Z</time></trkpt>
<trkpt lat="-38.494783" lon="143.708165">
<ele>201</ele>
<time>2025-07-25T02:27:16Z</time></trkpt>
<trkpt lat="-38.494827" lon="143.70799">
<ele>201</ele>
<time>2025-07-25T02:27:19Z</time></trkpt>
<trkpt lat="-38.494664" lon="143.70811">
<ele>201</ele>
<time>2025-07-25T02:27:23Z</time></trkpt>
<trkpt lat="-38.494493" lon="143.708035">
<ele>200</ele>
<time>2025-07-25T02:27:26Z</time></trkpt>
<trkpt lat="-38.494277" lon="143.708078">
<ele>200</ele>
<time>2025-07-25T02:27:31Z</time></trkpt>
<trkpt lat="-38.494244" lon="143.708429">
<ele>202</ele>
<time>2025-07-25T02:27:36Z</time></trkpt>
<trkpt lat="-38.4942" lon="143.708499">
<ele>202</ele>
<time>2025-07-25T02:27:38Z</time></trkpt>
<trkpt lat="-38.494244" lon="143.708751">
<ele>203</ele>
<time>2025-07-25T02:27:42Z</time></trkpt>
<trkpt lat="-38.49409" lon="143.708948">
<ele>204</ele>
<time>2025-07-25T02:27:46Z</time></trkpt>
<trkpt lat="-38.494129" lon="143.70939">
<ele>205</ele>
<time>2025-07-25T02:27:53Z</time></trkpt>
<trkpt lat="-38.494035" lon="143.709579">
<ele>206</ele>
<time>2025-07-25T02:27:56Z</time></trkpt>
<trkpt lat="-38.49403" lon="143.70988">
<ele>206</ele>
<time>2025-07-25T02:28:01Z</time></trkpt>
<trkpt lat="-38.493804" lon="143.709921">
<ele>208</ele>
<time>2025-07-25T02:28:06Z</time></trkpt>
<trkpt lat="-38.493601" lon="143.709907">
<ele>208</ele>
<time>2025-07-25T02:28:10Z</time></trkpt>
<trkpt lat="-38.493493" lon="143.709674">
<ele>208</ele>
<time>2025-07-25T02:28:14Z</time></trkpt>
<trkpt lat="-38.493384" lon="143.709538">
<ele>208</ele>
<time>2025-07-25T02:28:17Z</time></trkpt>
<trkpt lat="-38.493263" lon="143.709322">
<ele>207</ele>
<time>2025-07-25T02:28:21Z</time></trkpt>
<trkpt lat="-38.493367" lon="143.709099">
<ele>206</ele>
<time>2025-07-25T02:28:25Z</time></trkpt>
<trkpt lat="-38.493536" lon="143.709031">
<ele>205</ele>
<time>2025-07-25T02:28:29Z</time></trkpt>
<trkpt lat="-38.493853" lon="143.708438">
<ele>202</ele>
<time>2025-07-25T02:28:40Z</time></trkpt>
<trkpt lat="-38.493825" lon="143.708194">
<ele>201</ele>
<time>2025-07-25T02:28:44Z</time></trkpt>
<trkpt lat="-38.493783" lon="143.708065">
<ele>200</ele>
<time>2025-07-25T02:28:46Z</time></trkpt>
<trkpt lat="-38.493873" lon="143.707609">
<ele>197</ele>
<time>2025-07-25T02:28:54Z</time></trkpt>
<trkpt lat="-38.493772" lon="143.707429">
<ele>196</ele>
<time>2025-07-25T02:28:57Z</time></trkpt>
<trkpt lat="-38.493735" lon="143.707411">
<ele>196</ele>
<time>2025-07-25T02:28:58Z</time></trkpt>
<trkpt lat="-38.493706" lon="143.707138">
<ele>194</ele>
<time>2025-07-25T02:29:02Z</time></trkpt>
<trkpt lat="-38.493864" lon="143.706857">
<ele>194</ele>
<time>2025-07-25T02:29:08Z</time></trkpt>
<trkpt lat="-38.493548" lon="143.706445">
<ele>191</ele>
<time>2025-07-25T02:29:17Z</time></trkpt>
<trkpt lat="-38.493582" lon="143.706296">
<ele>191</ele>
<time>2025-07-25T02:29:19Z</time></trkpt>
<trkpt lat="-38.493445" lon="143.706112">
<ele>190</ele>
<time>2025-07-25T02:29:23Z</time></trkpt>
<trkpt lat="-38.493548" lon="143.705919">
<ele>191</ele>
<time>2025-07-25T02:29:27Z</time></trkpt>
<trkpt lat="-38.493411" lon="143.705893">
<ele>190</ele>
<time>2025-07-25T02:29:30Z</time></trkpt>
<trkpt lat="-38.493459" lon="143.705402">
<ele>192</ele>
<time>2025-07-25T02:29:37Z</time></trkpt>
<trkpt lat="-38.493109" lon="143.705183">
<ele>192</ele>
<time>2025-07-25T02:29:45Z</time></trkpt>
<trkpt lat="-38.492807" lon="143.705121">
<ele>190</ele>
<time>2025-07-25T02:29:51Z</time></trkpt>
<trkpt lat="-38.492745" lon="143.705305">
<ele>190</ele>
<time>2025-07-25T02:29:54Z</time></trkpt>
<trkpt lat="-38.49256" lon="143.70534">
<ele>189</ele>
<time>2025-07-25T02:29:58Z</time></trkpt>
<trkpt lat="-38.492525" lon="143.705586">
<ele>188</ele>
<time>2025-07-25T02:30:02Z</time></trkpt>
<trkpt lat="-38.492386" lon="143.705382">
<ele>189</ele>
<time>2025-07-25T02:30:06Z</time></trkpt>
<trkpt lat="-38.492386" lon="143.705382">
<ele>189</ele>
<time>2025-07-25T02:30:06Z</time></trkpt>
<trkpt lat="-38.492207" lon="143.705119">
<ele>189</ele>
<time>2025-07-25T02:30:12Z</time></trkpt>
<trkpt lat="-38.492054" lon="143.70499">
<ele>188</ele>
<time>2025-07-25T02:30:15Z</time></trkpt>
<trkpt lat="-38.491946" lon="143.704868">
<ele>188</ele>
<time>2025-07-25T02:30:18Z</time></trkpt>
<trkpt lat="-38.49191" lon="143.704696">
<ele>189</ele>
<time>2025-07-25T02:30:21Z</time></trkpt>
<trkpt lat="-38.491891" lon="143.704677">
<ele>188</ele>
<time>2025-07-25T02:30:22Z</time></trkpt>
<trkpt lat="-38.491822" lon="143.704748">
<ele>188</ele>
<time>2025-07-25T02:30:23Z</time></trkpt>
<trkpt lat="-38.491754" lon="143.70502">
<ele>188</ele>
<time>2025-07-25T02:30:28Z</time></trkpt>
<trkpt lat="-38.491657" lon="143.705043">
<ele>188</ele>
<time>2025-07-25T02:30:30Z</time></trkpt>
<trkpt lat="-38.491581" lon="143.70501">
<ele>188</ele>
<time>2025-07-25T02:30:31Z</time></trkpt>
<trkpt lat="-38.491455" lon="143.705008">
<ele>189</ele>
<time>2025-07-25T02:30:34Z</time></trkpt>
<trkpt lat="-38.491191" lon="143.704513">
<ele>187</ele>
<time>2025-07-25T02:30:43Z</time></trkpt>
<trkpt lat="-38.491015" lon="143.704331">
<ele>185</ele>
<time>2025-07-25T02:30:48Z</time></trkpt>
<trkpt lat="-38.49096" lon="143.704078">
<ele>183</ele>
<time>2025-07-25T02:30:52Z</time></trkpt>
<trkpt lat="-38.490823" lon="143.703945">
<ele>182</ele>
<time>2025-07-25T02:30:55Z</time></trkpt>
<trkpt lat="-38.490993" lon="143.7037">
<ele>182</ele>
<time>2025-07-25T02:31:01Z</time></trkpt>
<trkpt lat="-38.491152" lon="143.703559">
<ele>183</ele>
<time>2025-07-25T02:31:04Z</time></trkpt>
<trkpt lat="-38.491339" lon="143.703293">
<ele>185</ele>
<time>2025-07-25T02:31:10Z</time></trkpt>
<trkpt lat="-38.491515" lon="143.703328">
<ele>187</ele>
<time>2025-07-25T02:31:14Z</time></trkpt>
<trkpt lat="-38.491619" lon="143.70323">
<ele>188</ele>
<time>2025-07-25T02:31:16Z</time></trkpt>
<trkpt lat="-38.491751" lon="143.703138">
<ele>191</ele>
<time>2025-07-25T02:31:19Z</time></trkpt>
<trkpt lat="-38.491925" lon="143.70324">
<ele>193</ele>
<time>2025-07-25T02:31:23Z</time></trkpt>
<trkpt lat="-38.492104" lon="143.703192">
<ele>196</ele>
<time>2025-07-25T02:31:27Z</time></trkpt>
<trkpt lat="-38.492307" lon="143.703253">
<ele>199</ele>
<time>2025-07-25T02:31:31Z</time></trkpt>
<trkpt lat="-38.492403" lon="143.703159">
<ele>201</ele>
<time>2025-07-25T02:31:33Z</time></trkpt>
<trkpt lat="-38.492365" lon="143.702935">
<ele>202</ele>
<time>2025-07-25T02:31:37Z</time></trkpt>
<trkpt lat="-38.492281" lon="143.702822">
<ele>201</ele>
<time>2025-07-25T02:31:39Z</time></trkpt>
<trkpt lat="-38.492168" lon="143.702728">
<ele>200</ele>
<time>2025-07-25T02:31:42Z</time></trkpt>
<trkpt lat="-38.491901" lon="143.702701">
<ele>197</ele>
<time>2025-07-25T02:31:47Z</time></trkpt>
<trkpt lat="-38.491768" lon="143.702643">
<ele>196</ele>
<time>2025-07-25T02:31:50Z</time></trkpt>
<trkpt lat="-38.491687" lon="143.702414">
<ele>197</ele>
<time>2025-07-25T02:31:54Z</time></trkpt>
<trkpt lat="-38.491758" lon="143.702233">
<ele>198</ele>
<time>2025-07-25T02:31:57Z</time></trkpt>
<trkpt lat="-38.491749" lon="143.701968">
<ele>199</ele>
<time>2025-07-25T02:32:02Z</time></trkpt>
<trkpt lat="-38.491846" lon="143.701915">
<ele>200</ele>
<time>2025-07-25T02:32:04Z</time></trkpt>
<trkpt lat="-38.491878" lon="143.701833">
<ele>201</ele>
<time>2025-07-25T02:32:05Z</time></trkpt>
<trkpt lat="-38.491866" lon="143.701699">
<ele>202</ele>
<time>2025-07-25T02:32:07Z</time></trkpt>
<trkpt lat="-38.491731" lon="143.701513">
<ele>200</ele>
<time>2025-07-25T02:32:11Z</time></trkpt>
<trkpt lat="-38.491677" lon="143.701138">
<ele>200</ele>
<time>2025-07-25T02:32:17Z</time></trkpt>
<trkpt lat="-38.491695" lon="143.701079">
<ele>200</ele>
<time>2025-07-25T02:32:18Z</time></trkpt>
<trkpt lat="-38.491696" lon="143.700589">
<ele>201</ele>
<time>2025-07-25T02:32:26Z</time></trkpt>
<trkpt lat="-38.491713" lon="143.700517">
<ele>202</ele>
<time>2025-07-25T02:32:27Z</time></trkpt>
<trkpt lat="-38.491797" lon="143.700521">
<ele>203</ele>
<time>2025-07-25T02:32:29Z</time></trkpt>
<trkpt lat="-38.491839" lon="143.700252">
<ele>204</ele>
<time>2025-07-25T02:32:33Z</time></trkpt>
<trkpt lat="-38.491899" lon="143.700122">
<ele>205</ele>
<time>2025-07-25T02:32:35Z</time></trkpt>
<trkpt lat="-38.492001" lon="143.700207">
<ele>206</ele>
<time>2025-07-25T02:32:38Z</time></trkpt>
<trkpt lat="-38.492053" lon="143.700373">
<ele>206</ele>
<time>2025-07-25T02:32:41Z</time></trkpt>
<trkpt lat="-38.492095" lon="143.700663">
<ele>206</ele>
<time>2025-07-25T02:32:45Z</time></trkpt>
<trkpt lat="-38.49228" lon="143.701135">
<ele>208</ele>
<time>2025-07-25T02:32:54Z</time></trkpt>
<trkpt lat="-38.492288" lon="143.701833">
<ele>206</ele>
<time>2025-07-25T02:33:04Z</time></trkpt>
<trkpt lat="-38.492238" lon="143.702026">
<ele>205</ele>
<time>2025-07-25T02:33:08Z</time></trkpt>
<trkpt lat="-38.492322" lon="143.70224">
<ele>205</ele>
<time>2025-07-25T02:33:11Z</time></trkpt>
<trkpt lat="-38.492406" lon="143.702358">
<ele>206</ele>
<time>2025-07-25T02:33:14Z</time></trkpt>
<trkpt lat="-38.492565" lon="143.702487">
<ele>207</ele>
<time>2025-07-25T02:33:18Z</time></trkpt>
<trkpt lat="-38.49275" lon="143.702605">
<ele>208</ele>
<time>2025-07-25T02:33:22Z</time></trkpt>
<trkpt lat="-38.492786" lon="143.70266">
<ele>208</ele>
<time>2025-07-25T02:33:23Z</time></trkpt>
<trkpt lat="-38.492786" lon="143.70266">
<ele>208</ele>
<time>2025-07-25T02:33:23Z</time></trkpt>
<trkpt lat="-38.492876" lon="143.702798">
<ele>208</ele>
<time>2025-07-25T02:33:26Z</time></trkpt>
<trkpt lat="-38.49322" lon="143.703013">
<ele>210</ele>
<time>2025-07-25T02:33:33Z</time></trkpt>
<trkpt lat="-38.493371" lon="143.702852">
<ele>211</ele>
<time>2025-07-25T02:33:37Z</time></trkpt>
<trkpt lat="-38.49369" lon="143.702208">
<ele>214</ele>
<time>2025-07-25T02:33:49Z</time></trkpt>
<trkpt lat="-38.493707" lon="143.702026">
<ele>214</ele>
<time>2025-07-25T02:33:52Z</time></trkpt>
<trkpt lat="-38.493917" lon="143.701747">
<ele>214</ele>
<time>2025-07-25T02:33:58Z</time></trkpt>
<trkpt lat="-38.493951" lon="143.701393">
<ele>215</ele>
<time>2025-07-25T02:34:04Z</time></trkpt>
<trkpt lat="-38.49401" lon="143.70135">
<ele>215</ele>
<time>2025-07-25T02:34:05Z</time></trkpt>
<trkpt lat="-38.494177" lon="143.701554">
<ele>214</ele>
<time>2025-07-25T02:34:10Z</time></trkpt>
<trkpt lat="-38.494211" lon="143.701779">
<ele>214</ele>
<time>2025-07-25T02:34:13Z</time></trkpt>
<trkpt lat="-38.494278" lon="143.701993">
<ele>213</ele>
<time>2025-07-25T02:34:17Z</time></trkpt>
<trkpt lat="-38.49427" lon="143.702562">
<ele>212</ele>
<time>2025-07-25T02:34:26Z</time></trkpt>
<trkpt lat="-38.494429" lon="143.70297">
<ele>210</ele>
<time>2025-07-25T02:34:33Z</time></trkpt>
<trkpt lat="-38.49432" lon="143.703324">
<ele>209</ele>
<time>2025-07-25T02:34:39Z</time></trkpt>
<trkpt lat="-38.494177" lon="143.703614">
<ele>208</ele>
<time>2025-07-25T02:34:44Z</time></trkpt>
<trkpt lat="-38.494162" lon="143.703731">
<ele>207</ele>
<time>2025-07-25T02:34:46Z</time></trkpt>
<trkpt lat="-38.494162" lon="143.703731">
<ele>207</ele>
<time>2025-07-25T02:34:46Z</time></trkpt>
<trkpt lat="-38.494144" lon="143.703871">
<ele>206</ele>
<time>2025-07-25T02:34:49Z</time></trkpt>
<trkpt lat="-38.494261" lon="143.704118">
<ele>204</ele>
<time>2025-07-25T02:34:53Z</time></trkpt>
<trkpt lat="-38.49432" lon="143.704182">
<ele>204</ele>
<time>2025-07-25T02:34:55Z</time></trkpt>
<trkpt lat="-38.494345" lon="143.704247">
<ele>203</ele>
<time>2025-07-25T02:34:56Z</time></trkpt>
<trkpt lat="-38.494589" lon="143.704365">
<ele>202</ele>
<time>2025-07-25T02:35:01Z</time></trkpt>
<trkpt lat="-38.494774" lon="143.70474">
<ele>202</ele>
<time>2025-07-25T02:35:08Z</time></trkpt>
<trkpt lat="-38.494874" lon="143.704847">
<ele>202</ele>
<time>2025-07-25T02:35:11Z</time></trkpt>
<trkpt lat="-38.495034" lon="143.70488">
<ele>202</ele>
<time>2025-07-25T02:35:14Z</time></trkpt>
<trkpt lat="-38.495084" lon="143.704804">
<ele>202</ele>
<time>2025-07-25T02:35:15Z</time></trkpt>
<trkpt lat="-38.495571" lon="143.704955">
<ele>205</ele>
<time>2025-07-25T02:35:25Z</time></trkpt>
<trkpt lat="-38.495571" lon="143.705169">
<ele>204</ele>
<time>2025-07-25T02:35:29Z</time></trkpt>
<trkpt lat="-38.495689" lon="143.705352">
<ele>205</ele>
<time>2025-07-25T02:35:33Z</time></trkpt>
<trkpt lat="-38.495689" lon="143.705598">
<ele>205</ele>
<time>2025-07-25T02:35:36Z</time></trkpt>
<trkpt lat="-38.495832" lon="143.705995">
<ele>206</ele>
<time>2025-07-25T02:35:43Z</time></trkpt>
<trkpt lat="-38.495899" lon="143.706103">
<ele>207</ele>
<time>2025-07-25T02:35:45Z</time></trkpt>
<trkpt lat="-38.496067" lon="143.706274">
<ele>208</ele>
<time>2025-07-25T02:35:50Z</time></trkpt>
<trkpt lat="-38.496109" lon="143.706489">
<ele>209</ele>
<time>2025-07-25T02:35:53Z</time></trkpt>
<trkpt lat="-38.496117" lon="143.706789">
<ele>210</ele>
<time>2025-07-25T02:35:58Z</time></trkpt>
<trkpt lat="-38.495991" lon="143.70709">
<ele>209</ele>
<time>2025-07-25T02:36:03Z</time></trkpt>
<trkpt lat="-38.495991" lon="143.707315">
<ele>210</ele>
<time>2025-07-25T02:36:07Z</time></trkpt>
<trkpt lat="-38.496126" lon="143.707422">
<ele>211</ele>
<time>2025-07-25T02:36:10Z</time></trkpt>
<trkpt lat="-38.49631" lon="143.707626">
<ele>212</ele>
<time>2025-07-25T02:36:15Z</time></trkpt>
<trkpt lat="-38.496495" lon="143.707572">
<ele>214</ele>
<time>2025-07-25T02:36:19Z</time></trkpt>
<trkpt lat="-38.496655" lon="143.707476">
<ele>215</ele>
<time>2025-07-25T02:36:22Z</time></trkpt>
<trkpt lat="-38.496848" lon="143.707122">
<ele>215</ele>
<time>2025-07-25T02:36:29Z</time></trkpt>
<trkpt lat="-38.496863" lon="143.707121">
<ele>215</ele>
<time>2025-07-25T02:36:29Z</time></trkpt>
<trkpt lat="-38.496863" lon="143.707121">
<ele>215</ele>
<time>2025-07-25T02:36:29Z</time></trkpt>
<trkpt lat="-38.497167" lon="143.7071">
<ele>216</ele>
<time>2025-07-25T02:36:35Z</time></trkpt>
<trkpt lat="-38.497301" lon="143.707047">
<ele>217</ele>
<time>2025-07-25T02:36:38Z</time></trkpt>
<trkpt lat="-38.497377" lon="143.707047">
<ele>217</ele>
<time>2025-07-25T02:36:40Z</time></trkpt>
<trkpt lat="-38.497519" lon="143.707176">
<ele>218</ele>
<time>2025-07-25T02:36:43Z</time></trkpt>
<trkpt lat="-38.497704" lon="143.707186">
<ele>217</ele>
<time>2025-07-25T02:36:47Z</time></trkpt>
<trkpt lat="-38.49778" lon="143.70724">
<ele>217</ele>
<time>2025-07-25T02:36:49Z</time></trkpt>
<trkpt lat="-38.497721" lon="143.70754">
<ele>218</ele>
<time>2025-07-25T02:36:53Z</time></trkpt>
<trkpt lat="-38.497629" lon="143.707798">
<ele>218</ele>
<time>2025-07-25T02:36:58Z</time></trkpt>
<trkpt lat="-38.49762" lon="143.708087">
<ele>218</ele>
<time>2025-07-25T02:37:02Z</time></trkpt>
<trkpt lat="-38.497696" lon="143.708152">
<ele>218</ele>
<time>2025-07-25T02:37:04Z</time></trkpt>
<trkpt lat="-38.497763" lon="143.708141">
<ele>218</ele>
<time>2025-07-25T02:37:06Z</time></trkpt>
<trkpt lat="-38.498065" lon="143.708656">
<ele>224</ele>
<time>2025-07-25T02:37:16Z</time></trkpt>
<trkpt lat="-38.498074" lon="143.708796">
<ele>225</ele>
<time>2025-07-25T02:37:18Z</time></trkpt>
<trkpt lat="-38.498326" lon="143.708903">
<ele>229</ele>
<time>2025-07-25T02:37:23Z</time></trkpt>
<trkpt lat="-38.498393" lon="143.709053">
<ele>231</ele>
<time>2025-07-25T02:37:26Z</time></trkpt>
<trkpt lat="-38.498477" lon="143.709139">
<ele>232</ele>
<time>2025-07-25T02:37:28Z</time></trkpt>
<trkpt lat="-38.498619" lon="143.709182">
<ele>232</ele>
<time>2025-07-25T02:37:31Z</time></trkpt>
<trkpt lat="-38.498535" lon="143.709332">
<ele>233</ele>
<time>2025-07-25T02:37:34Z</time></trkpt>
<trkpt lat="-38.498368" lon="143.709471">
<ele>234</ele>
<time>2025-07-25T02:37:38Z</time></trkpt>
<trkpt lat="-38.498225" lon="143.709665">
<ele>234</ele>
<time>2025-07-25T02:37:42Z</time></trkpt>
<trkpt lat="-38.498208" lon="143.709804">
<ele>235</ele>
<time>2025-07-25T02:37:44Z</time></trkpt>
<trkpt lat="-38.498158" lon="143.709868">
<ele>234</ele>
<time>2025-07-25T02:37:46Z</time></trkpt>
<trkpt lat="-38.498166" lon="143.710062">
<ele>236</ele>
<time>2025-07-25T02:37:49Z</time></trkpt>
<trkpt lat="-38.498216" lon="143.710212">
<ele>237</ele>
<time>2025-07-25T02:37:51Z</time></trkpt>
<trkpt lat="-38.498267" lon="143.710233">
<ele>238</ele>
<time>2025-07-25T02:37:52Z</time></trkpt>
<trkpt lat="-38.498242" lon="143.710351">
<ele>238</ele>
<time>2025-07-25T02:37:54Z</time></trkpt>
<trkpt lat="-38.4983" lon="143.710501">
<ele>239</ele>
<time>2025-07-25T02:37:57Z</time></trkpt>
<trkpt lat="-38.498284" lon="143.710673">
<ele>240</ele>
<time>2025-07-25T02:38:00Z</time></trkpt>
<trkpt lat="-38.498426" lon="143.710974">
<ele>242</ele>
<time>2025-07-25T02:38:05Z</time></trkpt>
<trkpt lat="-38.498423" lon="143.711054">
<ele>243</ele>
<time>2025-07-25T02:38:06Z</time></trkpt>
<trkpt lat="-38.498423" lon="143.711054">
<ele>243</ele>
<time>2025-07-25T02:38:06Z</time></trkpt>
<trkpt lat="-38.498418" lon="143.711167">
<ele>244</ele>
<time>2025-07-25T02:38:08Z</time></trkpt>
<trkpt lat="-38.4982" lon="143.71224">
<ele>247</ele>
<time>2025-07-25T02:38:26Z</time></trkpt>
<trkpt lat="-38.498023" lon="143.712465">
<ele>246</ele>
<time>2025-07-25T02:38:31Z</time></trkpt>
<trkpt lat="-38.497805" lon="143.713023">
<ele>244</ele>
<time>2025-07-25T02:38:40Z</time></trkpt>
<trkpt lat="-38.497822" lon="143.71342">
<ele>245</ele>
<time>2025-07-25T02:38:47Z</time></trkpt>
<trkpt lat="-38.497738" lon="143.713742">
<ele>244</ele>
<time>2025-07-25T02:38:52Z</time></trkpt>
<trkpt lat="-38.49757" lon="143.713924">
<ele>244</ele>
<time>2025-07-25T02:38:56Z</time></trkpt>
<trkpt lat="-38.497528" lon="143.71416">
<ele>244</ele>
<time>2025-07-25T02:39:00Z</time></trkpt>
<trkpt lat="-38.497603" lon="143.714332">
<ele>244</ele>
<time>2025-07-25T02:39:03Z</time></trkpt>
<trkpt lat="-38.497545" lon="143.714525">
<ele>244</ele>
<time>2025-07-25T02:39:06Z</time></trkpt>
<trkpt lat="-38.497419" lon="143.714739">
<ele>244</ele>
<time>2025-07-25T02:39:11Z</time></trkpt>
<trkpt lat="-38.497259" lon="143.714879">
<ele>243</ele>
<time>2025-07-25T02:39:15Z</time></trkpt>
<trkpt lat="-38.497184" lon="143.715115">
<ele>242</ele>
<time>2025-07-25T02:39:19Z</time></trkpt>
<trkpt lat="-38.497209" lon="143.715426">
<ele>242</ele>
<time>2025-07-25T02:39:23Z</time></trkpt>
<trkpt lat="-38.497276" lon="143.715898">
<ele>242</ele>
<time>2025-07-25T02:39:31Z</time></trkpt>
<trkpt lat="-38.497234" lon="143.716113">
<ele>242</ele>
<time>2025-07-25T02:39:34Z</time></trkpt>
<trkpt lat="-38.497024" lon="143.716553">
<ele>241</ele>
<time>2025-07-25T02:39:43Z</time></trkpt>
<trkpt lat="-38.497024" lon="143.716553">
<ele>241</ele>
<time>2025-07-25T02:39:43Z</time></trkpt>
<trkpt lat="-38.497108" lon="143.716982">
<ele>241</ele>
<time>2025-07-25T02:39:49Z</time></trkpt>
<trkpt lat="-38.497091" lon="143.717132">
<ele>242</ele>
<time>2025-07-25T02:39:52Z</time></trkpt>
<trkpt lat="-38.496873" lon="143.717282">
<ele>242</ele>
<time>2025-07-25T02:39:57Z</time></trkpt>
<trkpt lat="-38.496898" lon="143.717507">
<ele>242</ele>
<time>2025-07-25T02:40:00Z</time></trkpt>
<trkpt lat="-38.496802" lon="143.717558">
<ele>243</ele>
<time>2025-07-25T02:40:02Z</time></trkpt>
<trkpt lat="-38.49676" lon="143.717476">
<ele>243</ele>
<time>2025-07-25T02:40:04Z</time></trkpt>
<trkpt lat="-38.496639" lon="143.717429">
<ele>243</ele>
<time>2025-07-25T02:40:07Z</time></trkpt>
<trkpt lat="-38.496379" lon="143.717601">
<ele>241</ele>
<time>2025-07-25T02:40:12Z</time></trkpt>
<trkpt lat="-38.496261" lon="143.717429">
<ele>240</ele>
<time>2025-07-25T02:40:16Z</time></trkpt>
<trkpt lat="-38.496208" lon="143.717448">
<ele>240</ele>
<time>2025-07-25T02:40:17Z</time></trkpt>
<trkpt lat="-38.495968" lon="143.717608">
<ele>238</ele>
<time>2025-07-25T02:40:22Z</time></trkpt>
<trkpt lat="-38.495968" lon="143.71788">
<ele>239</ele>
<time>2025-07-25T02:40:27Z</time></trkpt>
<trkpt lat="-38.495867" lon="143.717976">
<ele>239</ele>
<time>2025-07-25T02:40:29Z</time></trkpt>
<trkpt lat="-38.495766" lon="143.717966">
<ele>238</ele>
<time>2025-07-25T02:40:31Z</time></trkpt>
<trkpt lat="-38.495634" lon="143.718003">
<ele>237</ele>
<time>2025-07-25T02:40:34Z</time></trkpt>
<trkpt lat="-38.495511" lon="143.718303">
<ele>236</ele>
<time>2025-07-25T02:40:39Z</time></trkpt>
<trkpt lat="-38.495302" lon="143.718496">
<ele>234</ele>
<time>2025-07-25T02:40:44Z</time></trkpt>
<trkpt lat="-38.495253" lon="143.718814">
<ele>234</ele>
<time>2025-07-25T02:40:50Z</time></trkpt>
<trkpt lat="-38.495031" lon="143.718995">
<ele>233</ele>
<time>2025-07-25T02:40:55Z</time></trkpt>
<trkpt lat="-38.495031" lon="143.718995">
<ele>233</ele>
<time>2025-07-25T02:40:55Z</time></trkpt>
<trkpt lat="-38.494954" lon="143.719058">
<ele>233</ele>
<time>2025-07-25T02:40:57Z</time></trkpt>
<trkpt lat="-38.494978" lon="143.719373">
<ele>234</ele>
<time>2025-07-25T02:41:02Z</time></trkpt>
<trkpt lat="-38.494721" lon="143.719559">
<ele>232</ele>
<time>2025-07-25T02:41:08Z</time></trkpt>
<trkpt lat="-38.494691" lon="143.719714">
<ele>232</ele>
<time>2025-07-25T02:41:10Z</time></trkpt>
<trkpt lat="-38.49449" lon="143.719875">
<ele>231</ele>
<time>2025-07-25T02:41:15Z</time></trkpt>
<trkpt lat="-38.494347" lon="143.71994">
<ele>231</ele>
<time>2025-07-25T02:41:18Z</time></trkpt>
<trkpt lat="-38.494246" lon="143.719843">
<ele>230</ele>
<time>2025-07-25T02:41:20Z</time></trkpt>
<trkpt lat="-38.494095" lon="143.719843">
<ele>230</ele>
<time>2025-07-25T02:41:23Z</time></trkpt>
<trkpt lat="-38.493893" lon="143.719918">
<ele>229</ele>
<time>2025-07-25T02:41:28Z</time></trkpt>
<trkpt lat="-38.493583" lon="143.719822">
<ele>229</ele>
<time>2025-07-25T02:41:34Z</time></trkpt>
<trkpt lat="-38.493364" lon="143.719704">
<ele>228</ele>
<time>2025-07-25T02:41:39Z</time></trkpt>
<trkpt lat="-38.493264" lon="143.719414">
<ele>228</ele>
<time>2025-07-25T02:41:44Z</time></trkpt>
<trkpt lat="-38.492911" lon="143.719199">
<ele>226</ele>
<time>2025-07-25T02:41:52Z</time></trkpt>
<trkpt lat="-38.492583" lon="143.719554">
<ele>225</ele>
<time>2025-07-25T02:42:00Z</time></trkpt>
<trkpt lat="-38.492422" lon="143.71976">
<ele>225</ele>
<time>2025-07-25T02:42:05Z</time></trkpt>
<trkpt lat="-38.492372" lon="143.71961">
<ele>224</ele>
<time>2025-07-25T02:42:07Z</time></trkpt>
<trkpt lat="-38.492338" lon="143.719245">
<ele>224</ele>
<time>2025-07-25T02:42:13Z</time></trkpt>
<trkpt lat="-38.492305" lon="143.719109">
<ele>223</ele>
<time>2025-07-25T02:42:15Z</time></trkpt>
<trkpt lat="-38.492305" lon="143.719109">
<ele>223</ele>
<time>2025-07-25T02:42:15Z</time></trkpt>
<trkpt lat="-38.492238" lon="143.718837">
<ele>222</ele>
<time>2025-07-25T02:42:20Z</time></trkpt>
<trkpt lat="-38.491935" lon="143.718301">
<ele>220</ele>
<time>2025-07-25T02:42:30Z</time></trkpt>
<trkpt lat="-38.491683" lon="143.718279">
<ele>219</ele>
<time>2025-07-25T02:42:35Z</time></trkpt>
<trkpt lat="-38.491381" lon="143.718043">
<ele>216</ele>
<time>2025-07-25T02:42:42Z</time></trkpt>
<trkpt lat="-38.490995" lon="143.718022">
<ele>214</ele>
<time>2025-07-25T02:42:50Z</time></trkpt>
<trkpt lat="-38.490856" lon="143.717834">
<ele>213</ele>
<time>2025-07-25T02:42:54Z</time></trkpt>
<trkpt lat="-38.490965" lon="143.717443">
<ele>212</ele>
<time>2025-07-25T02:43:01Z</time></trkpt>
<trkpt lat="-38.491163" lon="143.717172">
<ele>211</ele>
<time>2025-07-25T02:43:06Z</time></trkpt>
<trkpt lat="-38.491213" lon="143.71703">
<ele>211</ele>
<time>2025-07-25T02:43:09Z</time></trkpt>
<trkpt lat="-38.491045" lon="143.716906">
<ele>209</ele>
<time>2025-07-25T02:43:13Z</time></trkpt>
<trkpt lat="-38.491003" lon="143.716826">
<ele>209</ele>
<time>2025-07-25T02:43:14Z</time></trkpt>
<trkpt lat="-38.490987" lon="143.716686">
<ele>208</ele>
<time>2025-07-25T02:43:17Z</time></trkpt>
<trkpt lat="-38.491029" lon="143.716472">
<ele>207</ele>
<time>2025-07-25T02:43:20Z</time></trkpt>
<trkpt lat="-38.491202" lon="143.71641">
<ele>207</ele>
<time>2025-07-25T02:43:24Z</time></trkpt>
<trkpt lat="-38.49131" lon="143.716334">
<ele>207</ele>
<time>2025-07-25T02:43:26Z</time></trkpt>
<trkpt lat="-38.491381" lon="143.716082">
<ele>207</ele>
<time>2025-07-25T02:43:30Z</time></trkpt>
<trkpt lat="-38.491381" lon="143.715766">
<ele>205</ele>
<time>2025-07-25T02:43:35Z</time></trkpt>
<trkpt lat="-38.491331" lon="143.715492">
<ele>204</ele>
<time>2025-07-25T02:43:40Z</time></trkpt>
<trkpt lat="-38.491381" lon="143.715447">
<ele>204</ele>
<time>2025-07-25T02:43:41Z</time></trkpt>
<trkpt lat="-38.491633" lon="143.715125">
<ele>207</ele>
<time>2025-07-25T02:43:48Z</time></trkpt>
<trkpt lat="-38.491683" lon="143.714932">
<ele>207</ele>
<time>2025-07-25T02:43:51Z</time></trkpt>
<trkpt lat="-38.491952" lon="143.71446">
<ele>206</ele>
<time>2025-07-25T02:44:00Z</time></trkpt>
<trkpt lat="-38.491683" lon="143.71416">
<ele>201</ele>
<time>2025-07-25T02:44:07Z</time></trkpt>
<trkpt lat="-38.492019" lon="143.713752">
<ele>204</ele>
<time>2025-07-25T02:44:17Z</time></trkpt>
<trkpt lat="-38.492187" lon="143.713623">
<ele>205</ele>
<time>2025-07-25T02:44:21Z</time></trkpt>
<trkpt lat="-38.492406" lon="143.712722">
<ele>204</ele>
<time>2025-07-25T02:44:35Z</time></trkpt>
<trkpt lat="-38.492406" lon="143.712336">
<ele>204</ele>
<time>2025-07-25T02:44:42Z</time></trkpt>
<trkpt lat="-38.492303" lon="143.712122">
<ele>204</ele>
<time>2025-07-25T02:44:45Z</time></trkpt>
<trkpt lat="-38.492303" lon="143.712122">
<ele>204</ele>
<time>2025-07-25T02:44:45Z</time></trkpt>
<trkpt lat="-38.492271" lon="143.712057">
<ele>204</ele>
<time>2025-07-25T02:44:47Z</time></trkpt>
<trkpt lat="-38.492372" lon="143.711649">
<ele>205</ele>
<time>2025-07-25T02:44:53Z</time></trkpt>
<trkpt lat="-38.492557" lon="143.711391">
<ele>206</ele>
<time>2025-07-25T02:44:59Z</time></trkpt>
<trkpt lat="-38.492809" lon="143.711155">
<ele>207</ele>
<time>2025-07-25T02:45:05Z</time></trkpt>
<trkpt lat="-38.492977" lon="143.710555">
<ele>209</ele>
<time>2025-07-25T02:45:15Z</time></trkpt>
<trkpt lat="-38.493044" lon="143.710361">
<ele>209</ele>
<time>2025-07-25T02:45:18Z</time></trkpt>
<trkpt lat="-38.492993" lon="143.710147">
<ele>210</ele>
<time>2025-07-25T02:45:22Z</time></trkpt>
<trkpt lat="-38.492826" lon="143.709975">
<ele>210</ele>
<time>2025-07-25T02:45:26Z</time></trkpt>
<trkpt lat="-38.492691" lon="143.709353">
<ele>208</ele>
<time>2025-07-25T02:45:36Z</time></trkpt>
<trkpt lat="-38.492607" lon="143.709181">
<ele>208</ele>
<time>2025-07-25T02:45:40Z</time></trkpt>
<trkpt lat="-38.492439" lon="143.709117">
<ele>208</ele>
<time>2025-07-25T02:45:43Z</time></trkpt>
<trkpt lat="-38.492422" lon="143.708902">
<ele>207</ele>
<time>2025-07-25T02:45:46Z</time></trkpt>
<trkpt lat="-38.49249" lon="143.708731">
<ele>206</ele>
<time>2025-07-25T02:45:49Z</time></trkpt>
<trkpt lat="-38.492087" lon="143.70798">
<ele>204</ele>
<time>2025-07-25T02:46:04Z</time></trkpt>
<trkpt lat="-38.492036" lon="143.707744">
<ele>204</ele>
<time>2025-07-25T02:46:08Z</time></trkpt>
<trkpt lat="-38.492036" lon="143.707572">
<ele>203</ele>
<time>2025-07-25T02:46:10Z</time></trkpt>
<trkpt lat="-38.491801" lon="143.706993">
<ele>201</ele>
<time>2025-07-25T02:46:21Z</time></trkpt>
<trkpt lat="-38.490861" lon="143.706049">
<ele>198</ele>
<time>2025-07-25T02:46:44Z</time></trkpt>
<trkpt lat="-38.490642" lon="143.705941">
<ele>197</ele>
<time>2025-07-25T02:46:49Z</time></trkpt>
<trkpt lat="-38.49034" lon="143.705705">
<ele>195</ele>
<time>2025-07-25T02:46:56Z</time></trkpt>
<trkpt lat="-38.490054" lon="143.704568">
<ele>186</ele>
<time>2025-07-25T02:47:15Z</time></trkpt>
<trkpt lat="-38.489752" lon="143.704289">
<ele>184</ele>
<time>2025-07-25T02:47:22Z</time></trkpt>
<trkpt lat="-38.489534" lon="143.703946">
<ele>182</ele>
<time>2025-07-25T02:47:29Z</time></trkpt>
<trkpt lat="-38.489349" lon="143.703795">
<ele>181</ele>
<time>2025-07-25T02:47:34Z</time></trkpt>
<trkpt lat="-38.488996" lon="143.703238">
<ele>176</ele>
<time>2025-07-25T02:47:45Z</time></trkpt>
<trkpt lat="-38.488677" lon="143.702959">
<ele>173</ele>
<time>2025-07-25T02:47:53Z</time></trkpt>
<trkpt lat="-38.488375" lon="143.702916">
<ele>172</ele>
<time>2025-07-25T02:47:59Z</time></trkpt>
<trkpt lat="-38.4884" lon="143.703014">
<ele>172</ele>
<time>2025-07-25T02:48:01Z</time></trkpt>
<trkpt lat="-38.48849" lon="143.703642">
<ele>175</ele>
<time>2025-07-25T02:48:11Z</time></trkpt>
<trkpt lat="-38.488543" lon="143.704191">
<ele>178</ele>
<time>2025-07-25T02:48:19Z</time></trkpt>
<trkpt lat="-38.488867" lon="143.703838">
<ele>179</ele>
<time>2025-07-25T02:48:28Z</time></trkpt>
<trkpt lat="-38.489177" lon="143.704252">
<ele>183</ele>
<time>2025-07-25T02:48:37Z</time></trkpt>
<trkpt lat="-38.48882" lon="143.705865">
<ele>185</ele>
<time>2025-07-25T02:49:03Z</time></trkpt>
<trkpt lat="-38.48882" lon="143.705865">
<ele>185</ele>
<time>2025-07-25T02:49:03Z</time></trkpt>
<trkpt lat="-38.488678" lon="143.706509">
<ele>183</ele>
<time>2025-07-25T02:49:13Z</time></trkpt>
<trkpt lat="-38.48896" lon="143.708427">
<ele>180</ele>
<time>2025-07-25T02:49:44Z</time></trkpt>
<trkpt lat="-38.488698" lon="143.709732">
<ele>178</ele>
<time>2025-07-25T02:50:05Z</time></trkpt>
<trkpt lat="-38.487386" lon="143.711302">
<ele>177</ele>
<time>2025-07-25T02:50:41Z</time></trkpt>
<trkpt lat="-38.487073" lon="143.709772">
<ele>177</ele>
<time>2025-07-25T02:51:06Z</time></trkpt>
<trkpt lat="-38.486892" lon="143.709163">
<ele>177</ele>
<time>2025-07-25T02:51:16Z</time></trkpt>
<trkpt lat="-38.486892" lon="143.709163">
<ele>177</ele>
<time>2025-07-25T02:51:16Z</time></trkpt>
<trkpt lat="-38.486804" lon="143.708742">
<ele>178</ele>
<time>2025-07-25T02:51:23Z</time></trkpt>
<trkpt lat="-38.486586" lon="143.70842">
<ele>180</ele>
<time>2025-07-25T02:51:30Z</time></trkpt>
<trkpt lat="-38.486569" lon="143.707841">
<ele>180</ele>
<time>2025-07-25T02:51:39Z</time></trkpt>
<trkpt lat="-38.486519" lon="143.70754">
<ele>179</ele>
<time>2025-07-25T02:51:44Z</time></trkpt>
<trkpt lat="-38.486384" lon="143.707283">
<ele>179</ele>
<time>2025-07-25T02:51:49Z</time></trkpt>
<trkpt lat="-38.486116" lon="143.707068">
<ele>180</ele>
<time>2025-07-25T02:51:55Z</time></trkpt>
<trkpt lat="-38.485797" lon="143.706575">
<ele>181</ele>
<time>2025-07-25T02:52:05Z</time></trkpt>
<trkpt lat="-38.485679" lon="143.706102">
<ele>183</ele>
<time>2025-07-25T02:52:13Z</time></trkpt>
<trkpt lat="-38.4855036" lon="143.7055515">
<ele>184</ele>
<time>2025-07-25T02:52:22Z</time></trkpt>
<trkpt lat="-38.485504" lon="143.705552">
<ele>184</ele>
<time>2025-07-25T02:52:22Z</time></trkpt>
<trkpt lat="-38.48531" lon="143.704944">
<ele>184</ele>
<time>2025-07-25T02:52:32Z</time></trkpt>
<trkpt lat="-38.485132" lon="143.704844">
<ele>185</ele>
<time>2025-07-25T02:52:36Z</time></trkpt>
<trkpt lat="-38.484951" lon="143.704703">
<ele>187</ele>
<time>2025-07-25T02:52:40Z</time></trkpt>
<trkpt lat="-38.484951" lon="143.704703">
<ele>187</ele>
<time>2025-07-25T02:52:40Z</time></trkpt>
<trkpt lat="-38.484908" lon="143.70467">
<ele>188</ele>
<time>2025-07-25T02:52:41Z</time></trkpt>
<trkpt lat="-38.484547" lon="143.704673">
<ele>192</ele>
<time>2025-07-25T02:52:49Z</time></trkpt>
<trkpt lat="-38.48427" lon="143.70463">
<ele>196</ele>
<time>2025-07-25T02:52:54Z</time></trkpt>
<trkpt lat="-38.483934" lon="143.704522">
<ele>197</ele>
<time>2025-07-25T02:53:01Z</time></trkpt>
<trkpt lat="-38.483766" lon="143.704158">
<ele>197</ele>
<time>2025-07-25T02:53:08Z</time></trkpt>
<trkpt lat="-38.483581" lon="143.703965">
<ele>196</ele>
<time>2025-07-25T02:53:13Z</time></trkpt>
<trkpt lat="-38.483581" lon="143.703857">
<ele>196</ele>
<time>2025-07-25T02:53:14Z</time></trkpt>
<trkpt lat="-38.483799" lon="143.7039">
<ele>197</ele>
<time>2025-07-25T02:53:19Z</time></trkpt>
<trkpt lat="-38.483858" lon="143.703675">
<ele>197</ele>
<time>2025-07-25T02:53:23Z</time></trkpt>
<trkpt lat="-38.483956" lon="143.703452">
<ele>197</ele>
<time>2025-07-25T02:53:27Z</time></trkpt>
<trkpt lat="-38.483956" lon="143.703452">
<ele>197</ele>
<time>2025-07-25T02:53:27Z</time></trkpt>
<trkpt lat="-38.484144" lon="143.703085">
<ele>196</ele>
<time>2025-07-25T02:53:33Z</time></trkpt>
<trkpt lat="-38.484432" lon="143.702972">
<ele>191</ele>
<time>2025-07-25T02:53:39Z</time></trkpt>
<trkpt lat="-38.48452" lon="143.702787">
<ele>189</ele>
<time>2025-07-25T02:53:43Z</time></trkpt>
<trkpt lat="-38.484539" lon="143.702642">
<ele>189</ele>
<time>2025-07-25T02:53:45Z</time></trkpt>
<trkpt lat="-38.484371" lon="143.702489">
<ele>191</ele>
<time>2025-07-25T02:53:49Z</time></trkpt>
<trkpt lat="-38.484127" lon="143.702495">
<ele>194</ele>
<time>2025-07-25T02:53:54Z</time></trkpt>
<trkpt lat="-38.484068" lon="143.702623">
<ele>195</ele>
<time>2025-07-25T02:53:56Z</time></trkpt>
<trkpt lat="-38.48406" lon="143.702988">
<ele>196</ele>
<time>2025-07-25T02:54:02Z</time></trkpt>
<trkpt lat="-38.483909" lon="143.703149">
<ele>197</ele>
<time>2025-07-25T02:54:06Z</time></trkpt>
<trkpt lat="-38.483682" lon="143.702999">
<ele>196</ele>
<time>2025-07-25T02:54:11Z</time></trkpt>
<trkpt lat="-38.483531" lon="143.702645">
<ele>196</ele>
<time>2025-07-25T02:54:18Z</time></trkpt>
<trkpt lat="-38.483715" lon="143.702452">
<ele>196</ele>
<time>2025-07-25T02:54:22Z</time></trkpt>
<trkpt lat="-38.483934" lon="143.70242">
<ele>195</ele>
<time>2025-07-25T02:54:27Z</time></trkpt>
<trkpt lat="-38.484051" lon="143.702216">
<ele>194</ele>
<time>2025-07-25T02:54:31Z</time></trkpt>
<trkpt lat="-38.48416" lon="143.701969">
<ele>194</ele>
<time>2025-07-25T02:54:35Z</time></trkpt>
<trkpt lat="-38.484312" lon="143.701905">
<ele>192</ele>
<time>2025-07-25T02:54:38Z</time></trkpt>
<trkpt lat="-38.484228" lon="143.701636">
<ele>193</ele>
<time>2025-07-25T02:54:43Z</time></trkpt>
<trkpt lat="-38.483959" lon="143.701572">
<ele>195</ele>
<time>2025-07-25T02:54:48Z</time></trkpt>
<trkpt lat="-38.483766" lon="143.701422">
<ele>197</ele>
<time>2025-07-25T02:54:53Z</time></trkpt>
<trkpt lat="-38.483785" lon="143.701306">
<ele>197</ele>
<time>2025-07-25T02:54:55Z</time></trkpt>
<trkpt lat="-38.484034" lon="143.701229">
<ele>196</ele>
<time>2025-07-25T02:55:00Z</time></trkpt>
<trkpt lat="-38.484535" lon="143.70147">
<ele>188</ele>
<time>2025-07-25T02:55:11Z</time></trkpt>
<trkpt lat="-38.484549" lon="143.701647">
<ele>188</ele>
<time>2025-07-25T02:55:13Z</time></trkpt>
<trkpt lat="-38.484425" lon="143.701794">
<ele>190</ele>
<time>2025-07-25T02:55:17Z</time></trkpt>
<trkpt lat="-38.484558" lon="143.701969">
<ele>188</ele>
<time>2025-07-25T02:55:21Z</time></trkpt>
<trkpt lat="-38.484879" lon="143.701877">
<ele>182</ele>
<time>2025-07-25T02:55:27Z</time></trkpt>
<trkpt lat="-38.485024" lon="143.701749">
<ele>180</ele>
<time>2025-07-25T02:55:31Z</time></trkpt>
<trkpt lat="-38.484975" lon="143.7014">
<ele>180</ele>
<time>2025-07-25T02:55:36Z</time></trkpt>
<trkpt lat="-38.484883" lon="143.701">
<ele>182</ele>
<time>2025-07-25T02:55:43Z</time></trkpt>
<trkpt lat="-38.484707" lon="143.700823">
<ele>186</ele>
<time>2025-07-25T02:55:47Z</time></trkpt>
<trkpt lat="-38.484438" lon="143.70067">
<ele>192</ele>
<time>2025-07-25T02:55:53Z</time></trkpt>
<trkpt lat="-38.484291" lon="143.700504">
<ele>195</ele>
<time>2025-07-25T02:55:57Z</time></trkpt>
<trkpt lat="-38.484213" lon="143.700322">
<ele>197</ele>
<time>2025-07-25T02:56:00Z</time></trkpt>
<trkpt lat="-38.484518" lon="143.699957">
<ele>192</ele>
<time>2025-07-25T02:56:09Z</time></trkpt>
<trkpt lat="-38.484569" lon="143.699877">
<ele>191</ele>
<time>2025-07-25T02:56:10Z</time></trkpt>
<trkpt lat="-38.484569" lon="143.699877">
<ele>191</ele>
<time>2025-07-25T02:56:10Z</time></trkpt>
<trkpt lat="-38.484791" lon="143.699528">
<ele>189</ele>
<time>2025-07-25T02:56:18Z</time></trkpt>
<trkpt lat="-38.484841" lon="143.699286">
<ele>190</ele>
<time>2025-07-25T02:56:21Z</time></trkpt>
<trkpt lat="-38.484969" lon="143.699064">
<ele>189</ele>
<time>2025-07-25T02:56:26Z</time></trkpt>
<trkpt lat="-38.485188" lon="143.699002">
<ele>186</ele>
<time>2025-07-25T02:56:30Z</time></trkpt>
<trkpt lat="-38.485236" lon="143.699195">
<ele>184</ele>
<time>2025-07-25T02:56:33Z</time></trkpt>
<trkpt lat="-38.485179" lon="143.699442">
<ele>184</ele>
<time>2025-07-25T02:56:37Z</time></trkpt>
<trkpt lat="-38.485376" lon="143.699571">
<ele>180</ele>
<time>2025-07-25T02:56:42Z</time></trkpt>
<trkpt lat="-38.485467" lon="143.699501">
<ele>178</ele>
<time>2025-07-25T02:56:44Z</time></trkpt>
<trkpt lat="-38.485448" lon="143.699297">
<ele>180</ele>
<time>2025-07-25T02:56:47Z</time></trkpt>
<trkpt lat="-38.485803" lon="143.699192">
<ele>173</ele>
<time>2025-07-25T02:56:55Z</time></trkpt>
<trkpt lat="-38.485906" lon="143.698997">
<ele>173</ele>
<time>2025-07-25T02:56:58Z</time></trkpt>
<trkpt lat="-38.486017" lon="143.699066">
<ele>172</ele>
<time>2025-07-25T02:57:01Z</time></trkpt>
<trkpt lat="-38.485941" lon="143.699203">
<ele>172</ele>
<time>2025-07-25T02:57:03Z</time></trkpt>
<trkpt lat="-38.486183" lon="143.6993">
<ele>170</ele>
<time>2025-07-25T02:57:08Z</time></trkpt>
<trkpt lat="-38.486355" lon="143.699469">
<ele>168</ele>
<time>2025-07-25T02:57:13Z</time></trkpt>
<trkpt lat="-38.486596" lon="143.699651">
<ele>166</ele>
<time>2025-07-25T02:57:18Z</time></trkpt>
<trkpt lat="-38.487014" lon="143.699597">
<ele>168</ele>
<time>2025-07-25T02:57:27Z</time></trkpt>
<trkpt lat="-38.48719" lon="143.699327">
<ele>169</ele>
<time>2025-07-25T02:57:32Z</time></trkpt>
<trkpt lat="-38.487428" lon="143.699206">
<ele>171</ele>
<time>2025-07-25T02:57:37Z</time></trkpt>
<trkpt lat="-38.487671" lon="143.698694">
<ele>173</ele>
<time>2025-07-25T02:57:47Z</time></trkpt>
<trkpt lat="-38.48773" lon="143.698739">
<ele>173</ele>
<time>2025-07-25T02:57:48Z</time></trkpt>
<trkpt lat="-38.487751" lon="143.699015">
<ele>173</ele>
<time>2025-07-25T02:57:53Z</time></trkpt>
<trkpt lat="-38.487814" lon="143.699265">
<ele>174</ele>
<time>2025-07-25T02:57:57Z</time></trkpt>
<trkpt lat="-38.48794" lon="143.699405">
<ele>175</ele>
<time>2025-07-25T02:58:00Z</time></trkpt>
<trkpt lat="-38.488124" lon="143.69948">
<ele>177</ele>
<time>2025-07-25T02:58:04Z</time></trkpt>
<trkpt lat="-38.488192" lon="143.699373">
<ele>178</ele>
<time>2025-07-25T02:58:06Z</time></trkpt>
<trkpt lat="-38.488082" lon="143.699019">
<ele>177</ele>
<time>2025-07-25T02:58:12Z</time></trkpt>
<trkpt lat="-38.488032" lon="143.698632">
<ele>176</ele>
<time>2025-07-25T02:58:18Z</time></trkpt>
<trkpt lat="-38.48807" lon="143.698479">
<ele>176</ele>
<time>2025-07-25T02:58:21Z</time></trkpt>
<trkpt lat="-38.488335" lon="143.698586">
<ele>178</ele>
<time>2025-07-25T02:58:26Z</time></trkpt>
<trkpt lat="-38.488297" lon="143.698865">
<ele>178</ele>
<time>2025-07-25T02:58:31Z</time></trkpt>
<trkpt lat="-38.488364" lon="143.699074">
<ele>179</ele>
<time>2025-07-25T02:58:34Z</time></trkpt>
<trkpt lat="-38.488389" lon="143.699241">
<ele>179</ele>
<time>2025-07-25T02:58:37Z</time></trkpt>
<trkpt lat="-38.488503" lon="143.699504">
<ele>180</ele>
<time>2025-07-25T02:58:42Z</time></trkpt>
<trkpt lat="-38.488309" lon="143.699734">
<ele>179</ele>
<time>2025-07-25T02:58:47Z</time></trkpt>
<trkpt lat="-38.488264" lon="143.700379">
<ele>179</ele>
<time>2025-07-25T02:58:57Z</time></trkpt>
<trkpt lat="-38.488264" lon="143.700379">
<ele>179</ele>
<time>2025-07-25T02:58:57Z</time></trkpt>
<trkpt lat="-38.488276" lon="143.701097">
<ele>178</ele>
<time>2025-07-25T02:59:08Z</time></trkpt>
<trkpt lat="-38.488263" lon="143.701322">
<ele>177</ele>
<time>2025-07-25T02:59:12Z</time></trkpt>
<trkpt lat="-38.488104" lon="143.701376">
<ele>175</ele>
<time>2025-07-25T02:59:15Z</time></trkpt>
<trkpt lat="-38.487944" lon="143.701623">
<ele>173</ele>
<time>2025-07-25T02:59:20Z</time></trkpt>
<trkpt lat="-38.488058" lon="143.702009">
<ele>172</ele>
<time>2025-07-25T02:59:27Z</time></trkpt>
<trkpt lat="-38.487885" lon="143.702175">
<ele>171</ele>
<time>2025-07-25T02:59:31Z</time></trkpt>
<trkpt lat="-38.487717" lon="143.702588">
<ele>169</ele>
<time>2025-07-25T02:59:38Z</time></trkpt>
<trkpt lat="-38.487763" lon="143.702731">
<ele>169</ele>
<time>2025-07-25T02:59:41Z</time></trkpt>
<trkpt lat="-38.487842" lon="143.702849">
<ele>170</ele>
<time>2025-07-25T02:59:43Z</time></trkpt>
<trkpt lat="-38.487842" lon="143.702849">
<ele>170</ele>
<time>2025-07-25T02:59:43Z</time></trkpt>
<trkpt lat="-38.487934" lon="143.702925">
<ele>170</ele>
<time>2025-07-25T02:59:45Z</time></trkpt>
<trkpt lat="-38.488062" lon="143.702742">
<ele>170</ele>
<time>2025-07-25T02:59:49Z</time></trkpt>
<trkpt lat="-38.488062" lon="143.702742">
<ele>170</ele>
<time>2025-07-25T02:59:49Z</time></trkpt>
<trkpt lat="-38.4882943" lon="143.7021934">
<ele>172</ele>
<time>2025-07-25T02:59:59Z</time></trkpt>
<trkpt lat="-38.488338" lon="143.702087">
<ele>172</ele>
<time>2025-07-25T03:00:01Z</time></trkpt>
<trkpt lat="-38.488994" lon="143.700968">
<ele>180</ele>
<time>2025-07-25T03:00:23Z</time></trkpt>
<trkpt lat="-38.489287" lon="143.700167">
<ele>182</ele>
<time>2025-07-25T03:00:37Z</time></trkpt>
<trkpt lat="-38.49017" lon="143.699166">
<ele>187</ele>
<time>2025-07-25T03:01:00Z</time></trkpt>
<trkpt lat="-38.49048" lon="143.698364">
<ele>186</ele>
<time>2025-07-25T03:01:14Z</time></trkpt>
<trkpt lat="-38.490849" lon="143.697721">
<ele>186</ele>
<time>2025-07-25T03:01:27Z</time></trkpt>
<trkpt lat="-38.49134" lon="143.697122">
<ele>190</ele>
<time>2025-07-25T03:01:41Z</time></trkpt>
<trkpt lat="-38.49134" lon="143.697122">
<ele>190</ele>
<time>2025-07-25T03:01:41Z</time></trkpt>
<trkpt lat="-38.491748" lon="143.696698">
<ele>195</ele>
<time>2025-07-25T03:01:51Z</time></trkpt>
<trkpt lat="-38.492227" lon="143.696409">
<ele>200</ele>
<time>2025-07-25T03:02:02Z</time></trkpt>
<trkpt lat="-38.493608" lon="143.695971">
<ele>203</ele>
<time>2025-07-25T03:02:30Z</time></trkpt>
<trkpt lat="-38.493713" lon="143.696675">
<ele>206</ele>
<time>2025-07-25T03:02:41Z</time></trkpt>
<trkpt lat="-38.493894" lon="143.698363">
<ele>213</ele>
<time>2025-07-25T03:03:08Z</time></trkpt>
<trkpt lat="-38.493894" lon="143.698363">
<ele>213</ele>
<time>2025-07-25T03:03:08Z</time></trkpt>
<trkpt lat="-38.493913" lon="143.69854">
<ele>213</ele>
<time>2025-07-25T03:03:11Z</time></trkpt>
<trkpt lat="-38.493984" lon="143.698614">
<ele>214</ele>
<time>2025-07-25T03:03:13Z</time></trkpt>
<trkpt lat="-38.494528" lon="143.698489">
<ele>211</ele>
<time>2025-07-25T03:03:24Z</time></trkpt>
<trkpt lat="-38.495117" lon="143.698176">
<ele>205</ele>
<time>2025-07-25T03:03:37Z</time></trkpt>
<trkpt lat="-38.496901" lon="143.69785">
<ele>178</ele>
<time>2025-07-25T03:04:13Z</time></trkpt>
<trkpt lat="-38.497704" lon="143.698294">
<ele>174</ele>
<time>2025-07-25T03:04:30Z</time></trkpt>
<trkpt lat="-38.498234" lon="143.698463">
<ele>169</ele>
<time>2025-07-25T03:04:41Z</time></trkpt>
<trkpt lat="-38.498733" lon="143.698646">
<ele>165</ele>
<time>2025-07-25T03:04:52Z</time></trkpt>
<trkpt lat="-38.499029" lon="143.698789">
<ele>164</ele>
<time>2025-07-25T03:04:58Z</time></trkpt>
<trkpt lat="-38.499498" lon="143.69894">
<ele>162</ele>
<time>2025-07-25T03:05:08Z</time></trkpt>
<trkpt lat="-38.500326" lon="143.699412">
<ele>165</ele>
<time>2025-07-25T03:05:26Z</time></trkpt>
<trkpt lat="-38.500908" lon="143.699605">
<ele>169</ele>
<time>2025-07-25T03:05:38Z</time></trkpt>
<trkpt lat="-38.501497" lon="143.699562">
<ele>168</ele>
<time>2025-07-25T03:05:50Z</time></trkpt>
<trkpt lat="-38.502721" lon="143.699272">
<ele>175</ele>
<time>2025-07-25T03:06:15Z</time></trkpt>
<trkpt lat="-38.503073" lon="143.699164">
<ele>181</ele>
<time>2025-07-25T03:06:22Z</time></trkpt>
<trkpt lat="-38.504029" lon="143.698986">
<ele>188</ele>
<time>2025-07-25T03:06:41Z</time></trkpt>
<trkpt lat="-38.504029" lon="143.698986">
<ele>188</ele>
<time>2025-07-25T03:06:41Z</time></trkpt>
<trkpt lat="-38.504341" lon="143.698928">
<ele>190</ele>
<time>2025-07-25T03:06:48Z</time></trkpt>
<trkpt lat="-38.504754" lon="143.699133">
<ele>196</ele>
<time>2025-07-25T03:06:56Z</time></trkpt>
<trkpt lat="-38.50504" lon="143.699306">
<ele>201</ele>
<time>2025-07-25T03:07:03Z</time></trkpt>
<trkpt lat="-38.505376" lon="143.698983">
<ele>205</ele>
<time>2025-07-25T03:07:11Z</time></trkpt>
<trkpt lat="-38.505779" lon="143.698725">
<ele>211</ele>
<time>2025-07-25T03:07:20Z</time></trkpt>
<trkpt lat="-38.505958" lon="143.698584">
<ele>212</ele>
<time>2025-07-25T03:07:24Z</time></trkpt>
<trkpt lat="-38.506176" lon="143.69881">
<ele>216</ele>
<time>2025-07-25T03:07:30Z</time></trkpt>
<trkpt lat="-38.506252" lon="143.699164">
<ele>221</ele>
<time>2025-07-25T03:07:36Z</time></trkpt>
<trkpt lat="-38.50668" lon="143.699636">
<ele>230</ele>
<time>2025-07-25T03:07:47Z</time></trkpt>
<trkpt lat="-38.507116" lon="143.699947">
<ele>238</ele>
<time>2025-07-25T03:07:57Z</time></trkpt>
<trkpt lat="-38.507276" lon="143.700333">
<ele>242</ele>
<time>2025-07-25T03:08:04Z</time></trkpt>
<trkpt lat="-38.507911" lon="143.700683">
<ele>250</ele>
<time>2025-07-25T03:08:18Z</time></trkpt>
<trkpt lat="-38.507924" lon="143.701087">
<ele>251</ele>
<time>2025-07-25T03:08:24Z</time></trkpt>
<trkpt lat="-38.507924" lon="143.701087">
<ele>251</ele>
<time>2025-07-25T03:08:24Z</time></trkpt>
<trkpt lat="-38.50796" lon="143.701558">
<ele>251</ele>
<time>2025-07-25T03:08:32Z</time></trkpt>
<trkpt lat="-38.507532" lon="143.701462">
<ele>249</ele>
<time>2025-07-25T03:08:40Z</time></trkpt>
<trkpt lat="-38.507404" lon="143.701633">
<ele>247</ele>
<time>2025-07-25T03:08:44Z</time></trkpt>
<trkpt lat="-38.50685" lon="143.701526">
<ele>238</ele>
<time>2025-07-25T03:08:55Z</time></trkpt>
<trkpt lat="-38.506607" lon="143.701526">
<ele>235</ele>
<time>2025-07-25T03:09:00Z</time></trkpt>
<trkpt lat="-38.506464" lon="143.701472">
<ele>234</ele>
<time>2025-07-25T03:09:03Z</time></trkpt>
<trkpt lat="-38.506313" lon="143.701493">
<ele>233</ele>
<time>2025-07-25T03:09:06Z</time></trkpt>
<trkpt lat="-38.506288" lon="143.701579">
<ele>234</ele>
<time>2025-07-25T03:09:08Z</time></trkpt>
<trkpt lat="-38.505972" lon="143.701611">
<ele>232</ele>
<time>2025-07-25T03:09:14Z</time></trkpt>
<trkpt lat="-38.505762" lon="143.701515">
<ele>230</ele>
<time>2025-07-25T03:09:18Z</time></trkpt>
<trkpt lat="-38.505594" lon="143.701719">
<ele>230</ele>
<time>2025-07-25T03:09:23Z</time></trkpt>
<trkpt lat="-38.505759" lon="143.701923">
<ele>232</ele>
<time>2025-07-25T03:09:28Z</time></trkpt>
<trkpt lat="-38.505527" lon="143.701987">
<ele>230</ele>
<time>2025-07-25T03:09:32Z</time></trkpt>
<trkpt lat="-38.505275" lon="143.701869">
<ele>227</ele>
<time>2025-07-25T03:09:38Z</time></trkpt>
<trkpt lat="-38.505137" lon="143.70188">
<ele>226</ele>
<time>2025-07-25T03:09:41Z</time></trkpt>
<trkpt lat="-38.505129" lon="143.702008">
<ele>226</ele>
<time>2025-07-25T03:09:43Z</time></trkpt>
<trkpt lat="-38.505005" lon="143.702038">
<ele>225</ele>
<time>2025-07-25T03:09:45Z</time></trkpt>
<trkpt lat="-38.505005" lon="143.702038">
<ele>225</ele>
<time>2025-07-25T03:09:45Z</time></trkpt>
<trkpt lat="-38.504906" lon="143.702062">
<ele>223</ele>
<time>2025-07-25T03:09:47Z</time></trkpt>
<trkpt lat="-38.50481" lon="143.701976">
<ele>221</ele>
<time>2025-07-25T03:09:50Z</time></trkpt>
<trkpt lat="-38.504743" lon="143.702234">
<ele>221</ele>
<time>2025-07-25T03:09:54Z</time></trkpt>
<trkpt lat="-38.504618" lon="143.702246">
<ele>219</ele>
<time>2025-07-25T03:09:56Z</time></trkpt>
<trkpt lat="-38.504589" lon="143.7035">
<ele>221</ele>
<time>2025-07-25T03:10:16Z</time></trkpt>
<trkpt lat="-38.504526" lon="143.704004">
<ele>218</ele>
<time>2025-07-25T03:10:24Z</time></trkpt>
<trkpt lat="-38.504531" lon="143.70399">
<ele>218</ele>
<time>2025-07-25T03:10:24Z</time></trkpt>
<trkpt lat="-38.504531" lon="143.70399">
<ele>218</ele>
<time>2025-07-25T03:10:24Z</time></trkpt>
<trkpt lat="-38.504526" lon="143.704004">
<ele>218</ele>
<time>2025-07-25T03:10:24Z</time></trkpt>
<trkpt lat="-38.504519" lon="143.704088">
<ele>217</ele>
<time>2025-07-25T03:10:26Z</time></trkpt>
<trkpt lat="-38.504419" lon="143.704032">
<ele>218</ele>
<time>2025-07-25T03:10:28Z</time></trkpt>
<trkpt lat="-38.50427" lon="143.704047">
<ele>219</ele>
<time>2025-07-25T03:10:31Z</time></trkpt>
<trkpt lat="-38.504054" lon="143.704218">
<ele>220</ele>
<time>2025-07-25T03:10:36Z</time></trkpt>
<trkpt lat="-38.503702" lon="143.704347">
<ele>222</ele>
<time>2025-07-25T03:10:43Z</time></trkpt>
<trkpt lat="-38.503299" lon="143.704551">
<ele>225</ele>
<time>2025-07-25T03:10:52Z</time></trkpt>
<trkpt lat="-38.502933" lon="143.70464">
<ele>225</ele>
<time>2025-07-25T03:11:00Z</time></trkpt>
<trkpt lat="-38.502723" lon="143.705004">
<ele>230</ele>
<time>2025-07-25T03:11:07Z</time></trkpt>
<trkpt lat="-38.502606" lon="143.705358">
<ele>234</ele>
<time>2025-07-25T03:11:13Z</time></trkpt>
<trkpt lat="-38.502522" lon="143.705691">
<ele>237</ele>
<time>2025-07-25T03:11:18Z</time></trkpt>
<trkpt lat="-38.502451" lon="143.705796">
<ele>238</ele>
<time>2025-07-25T03:11:20Z</time></trkpt>
<trkpt lat="-38.502543" lon="143.706107">
<ele>240</ele>
<time>2025-07-25T03:11:26Z</time></trkpt>
<trkpt lat="-38.502142" lon="143.707505">
<ele>243</ele>
<time>2025-07-25T03:11:49Z</time></trkpt>
<trkpt lat="-38.502142" lon="143.707505">
<ele>243</ele>
<time>2025-07-25T03:11:49Z</time></trkpt>
<trkpt lat="-38.502001" lon="143.707998">
<ele>243</ele>
<time>2025-07-25T03:11:57Z</time></trkpt>
<trkpt lat="-38.502009" lon="143.708277">
<ele>243</ele>
<time>2025-07-25T03:12:01Z</time></trkpt>
<trkpt lat="-38.502221" lon="143.708753">
<ele>242</ele>
<time>2025-07-25T03:12:10Z</time></trkpt>
<trkpt lat="-38.502121" lon="143.70871">
<ele>242</ele>
<time>2025-07-25T03:12:12Z</time></trkpt>
<trkpt lat="-38.502054" lon="143.708581">
<ele>242</ele>
<time>2025-07-25T03:12:15Z</time></trkpt>
<trkpt lat="-38.501877" lon="143.70842">
<ele>243</ele>
<time>2025-07-25T03:12:19Z</time></trkpt>
<trkpt lat="-38.501776" lon="143.708495">
<ele>243</ele>
<time>2025-07-25T03:12:21Z</time></trkpt>
<trkpt lat="-38.501676" lon="143.708452">
<ele>243</ele>
<time>2025-07-25T03:12:23Z</time></trkpt>
<trkpt lat="-38.50155" lon="143.708645">
<ele>242</ele>
<time>2025-07-25T03:12:27Z</time></trkpt>
<trkpt lat="-38.50155" lon="143.708817">
<ele>241</ele>
<time>2025-07-25T03:12:30Z</time></trkpt>
<trkpt lat="-38.50134" lon="143.709032">
<ele>240</ele>
<time>2025-07-25T03:12:35Z</time></trkpt>
<trkpt lat="-38.50134" lon="143.70915">
<ele>240</ele>
<time>2025-07-25T03:12:37Z</time></trkpt>
<trkpt lat="-38.501214" lon="143.709482">
<ele>240</ele>
<time>2025-07-25T03:12:43Z</time></trkpt>
<trkpt lat="-38.501306" lon="143.709654">
<ele>240</ele>
<time>2025-07-25T03:12:46Z</time></trkpt>
<trkpt lat="-38.50118" lon="143.709793">
<ele>240</ele>
<time>2025-07-25T03:12:50Z</time></trkpt>
<trkpt lat="-38.50092" lon="143.709804">
<ele>240</ele>
<time>2025-07-25T03:12:55Z</time></trkpt>
<trkpt lat="-38.500828" lon="143.709675">
<ele>240</ele>
<time>2025-07-25T03:12:58Z</time></trkpt>
<trkpt lat="-38.500769" lon="143.70974">
<ele>240</ele>
<time>2025-07-25T03:12:59Z</time></trkpt>
<trkpt lat="-38.500635" lon="143.709761">
<ele>239</ele>
<time>2025-07-25T03:13:02Z</time></trkpt>
<trkpt lat="-38.500458" lon="143.709665">
<ele>239</ele>
<time>2025-07-25T03:13:06Z</time></trkpt>
<trkpt lat="-38.500416" lon="143.709525">
<ele>238</ele>
<time>2025-07-25T03:13:08Z</time></trkpt>
<trkpt lat="-38.500341" lon="143.709579">
<ele>238</ele>
<time>2025-07-25T03:13:10Z</time></trkpt>
<trkpt lat="-38.500322" lon="143.709882">
<ele>239</ele>
<time>2025-07-25T03:13:15Z</time></trkpt>
<trkpt lat="-38.500322" lon="143.709882">
<ele>239</ele>
<time>2025-07-25T03:13:15Z</time></trkpt>
<trkpt lat="-38.500316" lon="143.709976">
<ele>239</ele>
<time>2025-07-25T03:13:16Z</time></trkpt>
<trkpt lat="-38.500433" lon="143.710029">
<ele>239</ele>
<time>2025-07-25T03:13:19Z</time></trkpt>
<trkpt lat="-38.500483" lon="143.709965">
<ele>239</ele>
<time>2025-07-25T03:13:20Z</time></trkpt>
<trkpt lat="-38.500626" lon="143.709954">
<ele>239</ele>
<time>2025-07-25T03:13:23Z</time></trkpt>
<trkpt lat="-38.500761" lon="143.710051">
<ele>240</ele>
<time>2025-07-25T03:13:26Z</time></trkpt>
<trkpt lat="-38.500828" lon="143.710308">
<ele>241</ele>
<time>2025-07-25T03:13:30Z</time></trkpt>
<trkpt lat="-38.500786" lon="143.710426">
<ele>241</ele>
<time>2025-07-25T03:13:32Z</time></trkpt>
<trkpt lat="-38.500278" lon="143.710242">
<ele>240</ele>
<time>2025-07-25T03:13:43Z</time></trkpt>
<trkpt lat="-38.500034" lon="143.71002">
<ele>238</ele>
<time>2025-07-25T03:13:49Z</time></trkpt>
<trkpt lat="-38.49985" lon="143.709903">
<ele>238</ele>
<time>2025-07-25T03:13:53Z</time></trkpt>
<trkpt lat="-38.499942" lon="143.709304">
<ele>236</ele>
<time>2025-07-25T03:14:03Z</time></trkpt>
<trkpt lat="-38.500023" lon="143.708887">
<ele>234</ele>
<time>2025-07-25T03:14:09Z</time></trkpt>
<trkpt lat="-38.499717" lon="143.708991">
<ele>233</ele>
<time>2025-07-25T03:14:16Z</time></trkpt>
<trkpt lat="-38.49984" lon="143.708535">
<ele>230</ele>
<time>2025-07-25T03:14:23Z</time></trkpt>
<trkpt lat="-38.499667" lon="143.708665">
<ele>230</ele>
<time>2025-07-25T03:14:27Z</time></trkpt>
<trkpt lat="-38.499493" lon="143.708882">
<ele>231</ele>
<time>2025-07-25T03:14:32Z</time></trkpt>
<trkpt lat="-38.499493" lon="143.709104">
<ele>233</ele>
<time>2025-07-25T03:14:36Z</time></trkpt>
<trkpt lat="-38.499585" lon="143.709325">
<ele>235</ele>
<time>2025-07-25T03:14:39Z</time></trkpt>
<trkpt lat="-38.499514" lon="143.709507">
<ele>235</ele>
<time>2025-07-25T03:14:43Z</time></trkpt>
<trkpt lat="-38.499391" lon="143.709664">
<ele>236</ele>
<time>2025-07-25T03:14:46Z</time></trkpt>
<trkpt lat="-38.499289" lon="143.709559">
<ele>235</ele>
<time>2025-07-25T03:14:49Z</time></trkpt>
<trkpt lat="-38.49935" lon="143.709364">
<ele>234</ele>
<time>2025-07-25T03:14:52Z</time></trkpt>
<trkpt lat="-38.499269" lon="143.709182">
<ele>233</ele>
<time>2025-07-25T03:14:55Z</time></trkpt>
<trkpt lat="-38.4993" lon="143.708973">
<ele>231</ele>
<time>2025-07-25T03:14:59Z</time></trkpt>
<trkpt lat="-38.499279" lon="143.708739">
<ele>229</ele>
<time>2025-07-25T03:15:02Z</time></trkpt>
<trkpt lat="-38.499116" lon="143.70853">
<ele>226</ele>
<time>2025-07-25T03:15:07Z</time></trkpt>
<trkpt lat="-38.498979" lon="143.708154">
<ele>222</ele>
<time>2025-07-25T03:15:13Z</time></trkpt>
<trkpt lat="-38.498979" lon="143.70788">
<ele>220</ele>
<time>2025-07-25T03:15:18Z</time></trkpt>
<trkpt lat="-38.49904" lon="143.707776">
<ele>219</ele>
<time>2025-07-25T03:15:20Z</time></trkpt>
<trkpt lat="-38.49903" lon="143.707554">
<ele>217</ele>
<time>2025-07-25T03:15:23Z</time></trkpt>
<trkpt lat="-38.499152" lon="143.707137">
<ele>214</ele>
<time>2025-07-25T03:15:30Z</time></trkpt>
<trkpt lat="-38.498999" lon="143.706877">
<ele>213</ele>
<time>2025-07-25T03:15:35Z</time></trkpt>
<trkpt lat="-38.498826" lon="143.706786">
<ele>213</ele>
<time>2025-07-25T03:15:39Z</time></trkpt>
<trkpt lat="-38.498571" lon="143.706825">
<ele>214</ele>
<time>2025-07-25T03:15:44Z</time></trkpt>
<trkpt lat="-38.49849" lon="143.706981">
<ele>215</ele>
<time>2025-07-25T03:15:47Z</time></trkpt>
<trkpt lat="-38.498388" lon="143.707059">
<ele>215</ele>
<time>2025-07-25T03:15:50Z</time></trkpt>
<trkpt lat="-38.498296" lon="143.706799">
<ele>215</ele>
<time>2025-07-25T03:15:54Z</time></trkpt>
<trkpt lat="-38.498123" lon="143.706655">
<ele>215</ele>
<time>2025-07-25T03:15:58Z</time></trkpt>
<trkpt lat="-38.497888" lon="143.706574">
<ele>215</ele>
<time>2025-07-25T03:16:03Z</time></trkpt>
<trkpt lat="-38.497816" lon="143.706223">
<ele>213</ele>
<time>2025-07-25T03:16:09Z</time></trkpt>
<trkpt lat="-38.497837" lon="143.705962">
<ele>212</ele>
<time>2025-07-25T03:16:13Z</time></trkpt>
<trkpt lat="-38.497806" lon="143.705793">
<ele>211</ele>
<time>2025-07-25T03:16:16Z</time></trkpt>
<trkpt lat="-38.497827" lon="143.705415">
<ele>209</ele>
<time>2025-07-25T03:16:22Z</time></trkpt>
<trkpt lat="-38.497643" lon="143.705415">
<ele>209</ele>
<time>2025-07-25T03:16:25Z</time></trkpt>
<trkpt lat="-38.497386" lon="143.705297">
<ele>209</ele>
<time>2025-07-25T03:16:31Z</time></trkpt>
<trkpt lat="-38.497188" lon="143.704817">
<ele>206</ele>
<time>2025-07-25T03:16:39Z</time></trkpt>
<trkpt lat="-38.497188" lon="143.704817">
<ele>206</ele>
<time>2025-07-25T03:16:39Z</time></trkpt>
<trkpt lat="-38.49712" lon="143.704554">
<ele>205</ele>
<time>2025-07-25T03:16:44Z</time></trkpt>
<trkpt lat="-38.496927" lon="143.704463">
<ele>205</ele>
<time>2025-07-25T03:16:48Z</time></trkpt>
<trkpt lat="-38.496737" lon="143.70451">
<ele>206</ele>
<time>2025-07-25T03:16:52Z</time></trkpt>
<trkpt lat="-38.496845" lon="143.704033">
<ele>203</ele>
<time>2025-07-25T03:16:59Z</time></trkpt>
<trkpt lat="-38.496833" lon="143.703803">
<ele>203</ele>
<time>2025-07-25T03:17:03Z</time></trkpt>
<trkpt lat="-38.496723" lon="143.70363">
<ele>204</ele>
<time>2025-07-25T03:17:06Z</time></trkpt>
<trkpt lat="-38.496743" lon="143.703408">
<ele>203</ele>
<time>2025-07-25T03:17:10Z</time></trkpt>
<trkpt lat="-38.496855" lon="143.70333">
<ele>203</ele>
<time>2025-07-25T03:17:13Z</time></trkpt>
<trkpt lat="-38.497029" lon="143.703304">
<ele>201</ele>
<time>2025-07-25T03:17:16Z</time></trkpt>
<trkpt lat="-38.497151" lon="143.703304">
<ele>201</ele>
<time>2025-07-25T03:17:18Z</time></trkpt>
<trkpt lat="-38.497263" lon="143.703395">
<ele>200</ele>
<time>2025-07-25T03:17:21Z</time></trkpt>
<trkpt lat="-38.497457" lon="143.703343">
<ele>198</ele>
<time>2025-07-25T03:17:25Z</time></trkpt>
<trkpt lat="-38.497579" lon="143.702978">
<ele>198</ele>
<time>2025-07-25T03:17:31Z</time></trkpt>
<trkpt lat="-38.497457" lon="143.702691">
<ele>200</ele>
<time>2025-07-25T03:17:36Z</time></trkpt>
<trkpt lat="-38.497386" lon="143.702444">
<ele>201</ele>
<time>2025-07-25T03:17:41Z</time></trkpt>
<trkpt lat="-38.497447" lon="143.701884">
<ele>202</ele>
<time>2025-07-25T03:17:49Z</time></trkpt>
<trkpt lat="-38.497498" lon="143.701519">
<ele>203</ele>
<time>2025-07-25T03:17:55Z</time></trkpt>
<trkpt lat="-38.497763" lon="143.701376">
<ele>202</ele>
<time>2025-07-25T03:18:01Z</time></trkpt>
<trkpt lat="-38.497528" lon="143.700985">
<ele>204</ele>
<time>2025-07-25T03:18:09Z</time></trkpt>
<trkpt lat="-38.497375" lon="143.701128">
<ele>204</ele>
<time>2025-07-25T03:18:13Z</time></trkpt>
<trkpt lat="-38.497406" lon="143.701411">
<ele>204</ele>
<time>2025-07-25T03:18:17Z</time></trkpt>
<trkpt lat="-38.497304" lon="143.701463">
<ele>203</ele>
<time>2025-07-25T03:18:19Z</time></trkpt>
<trkpt lat="-38.497294" lon="143.701698">
<ele>203</ele>
<time>2025-07-25T03:18:23Z</time></trkpt>
<trkpt lat="-38.497171" lon="143.701893">
<ele>203</ele>
<time>2025-07-25T03:18:27Z</time></trkpt>
<trkpt lat="-38.497029" lon="143.701815">
<ele>203</ele>
<time>2025-07-25T03:18:30Z</time></trkpt>
<trkpt lat="-38.496988" lon="143.701567">
<ele>203</ele>
<time>2025-07-25T03:18:34Z</time></trkpt>
<trkpt lat="-38.497141" lon="143.701463">
<ele>203</ele>
<time>2025-07-25T03:18:37Z</time></trkpt>
<trkpt lat="-38.497221" lon="143.701126">
<ele>204</ele>
<time>2025-07-25T03:18:43Z</time></trkpt>
<trkpt lat="-38.497221" lon="143.701126">
<ele>204</ele>
<time>2025-07-25T03:18:43Z</time></trkpt>
<trkpt lat="-38.497202" lon="143.700668">
<ele>203</ele>
<time>2025-07-25T03:18:50Z</time></trkpt>
<trkpt lat="-38.49708" lon="143.700356">
<ele>201</ele>
<time>2025-07-25T03:18:56Z</time></trkpt>
<trkpt lat="-38.497243" lon="143.700213">
<ele>200</ele>
<time>2025-07-25T03:19:00Z</time></trkpt>
<trkpt lat="-38.497427" lon="143.700095">
<ele>200</ele>
<time>2025-07-25T03:19:04Z</time></trkpt>
<trkpt lat="-38.497212" lon="143.69977">
<ele>196</ele>
<time>2025-07-25T03:19:10Z</time></trkpt>
<trkpt lat="-38.49711" lon="143.699874">
<ele>197</ele>
<time>2025-07-25T03:19:13Z</time></trkpt>
<trkpt lat="-38.496805" lon="143.699939">
<ele>198</ele>
<time>2025-07-25T03:19:19Z</time></trkpt>
<trkpt lat="-38.496896" lon="143.699757">
<ele>196</ele>
<time>2025-07-25T03:19:23Z</time></trkpt>
<trkpt lat="-38.497376" lon="143.699483">
<ele>192</ele>
<time>2025-07-25T03:19:33Z</time></trkpt>
<trkpt lat="-38.497029" lon="143.699457">
<ele>192</ele>
<time>2025-07-25T03:19:40Z</time></trkpt>
<trkpt lat="-38.497427" lon="143.699249">
<ele>188</ele>
<time>2025-07-25T03:19:49Z</time></trkpt>
<trkpt lat="-38.497263" lon="143.699079">
<ele>187</ele>
<time>2025-07-25T03:19:53Z</time></trkpt>
<trkpt lat="-38.496937" lon="143.698988">
<ele>188</ele>
<time>2025-07-25T03:20:00Z</time></trkpt>
<trkpt lat="-38.496629" lon="143.69895">
<ele>189</ele>
<time>2025-07-25T03:20:06Z</time></trkpt>
<trkpt lat="-38.496629" lon="143.69895">
<ele>189</ele>
<time>2025-07-25T03:20:06Z</time></trkpt>
<trkpt lat="-38.496579" lon="143.698944">
<ele>190</ele>
<time>2025-07-25T03:20:07Z</time></trkpt>
<trkpt lat="-38.496395" lon="143.699062">
<ele>192</ele>
<time>2025-07-25T03:20:11Z</time></trkpt>
<trkpt lat="-38.496364" lon="143.699348">
<ele>194</ele>
<time>2025-07-25T03:20:15Z</time></trkpt>
<trkpt lat="-38.49615" lon="143.699869">
<ele>199</ele>
<time>2025-07-25T03:20:25Z</time></trkpt>
<trkpt lat="-38.496008" lon="143.699895">
<ele>199</ele>
<time>2025-07-25T03:20:28Z</time></trkpt>
<trkpt lat="-38.495997" lon="143.700117">
<ele>200</ele>
<time>2025-07-25T03:20:31Z</time></trkpt>
<trkpt lat="-38.496191" lon="143.700208">
<ele>201</ele>
<time>2025-07-25T03:20:35Z</time></trkpt>
<trkpt lat="-38.496364" lon="143.699999">
<ele>199</ele>
<time>2025-07-25T03:20:40Z</time></trkpt>
<trkpt lat="-38.496507" lon="143.700029">
<ele>199</ele>
<time>2025-07-25T03:20:43Z</time></trkpt>
<trkpt lat="-38.496375" lon="143.700198">
<ele>200</ele>
<time>2025-07-25T03:20:47Z</time></trkpt>
<trkpt lat="-38.496089" lon="143.700458">
<ele>202</ele>
<time>2025-07-25T03:20:54Z</time></trkpt>
<trkpt lat="-38.495916" lon="143.700406">
<ele>202</ele>
<time>2025-07-25T03:20:57Z</time></trkpt>
<trkpt lat="-38.495691" lon="143.70038">
<ele>203</ele>
<time>2025-07-25T03:21:02Z</time></trkpt>
<trkpt lat="-38.495539" lon="143.70055">
<ele>206</ele>
<time>2025-07-25T03:21:06Z</time></trkpt>
<trkpt lat="-38.495355" lon="143.700576">
<ele>208</ele>
<time>2025-07-25T03:21:09Z</time></trkpt>
<trkpt lat="-38.495406" lon="143.700758">
<ele>207</ele>
<time>2025-07-25T03:21:13Z</time></trkpt>
<trkpt lat="-38.495406" lon="143.70098">
<ele>208</ele>
<time>2025-07-25T03:21:16Z</time></trkpt>
<trkpt lat="-38.495488" lon="143.700993">
<ele>207</ele>
<time>2025-07-25T03:21:18Z</time></trkpt>
<trkpt lat="-38.49559" lon="143.70081">
<ele>206</ele>
<time>2025-07-25T03:21:21Z</time></trkpt>
<trkpt lat="-38.495671" lon="143.700745">
<ele>205</ele>
<time>2025-07-25T03:21:23Z</time></trkpt>
<trkpt lat="-38.495691" lon="143.70055">
<ele>204</ele>
<time>2025-07-25T03:21:26Z</time></trkpt>
<trkpt lat="-38.495865" lon="143.700576">
<ele>203</ele>
<time>2025-07-25T03:21:30Z</time></trkpt>
<trkpt lat="-38.495875" lon="143.700732">
<ele>203</ele>
<time>2025-07-25T03:21:32Z</time></trkpt>
<trkpt lat="-38.495742" lon="143.700875">
<ele>205</ele>
<time>2025-07-25T03:21:36Z</time></trkpt>
<trkpt lat="-38.495732" lon="143.701032">
<ele>205</ele>
<time>2025-07-25T03:21:38Z</time></trkpt>
<trkpt lat="-38.495793" lon="143.701227">
<ele>206</ele>
<time>2025-07-25T03:21:41Z</time></trkpt>
<trkpt lat="-38.495998" lon="143.701539">
<ele>206</ele>
<time>2025-07-25T03:21:48Z</time></trkpt>
<trkpt lat="-38.495906" lon="143.701669">
<ele>207</ele>
<time>2025-07-25T03:21:51Z</time></trkpt>
<trkpt lat="-38.495763" lon="143.701617">
<ele>207</ele>
<time>2025-07-25T03:21:53Z</time></trkpt>
<trkpt lat="-38.495661" lon="143.701734">
<ele>207</ele>
<time>2025-07-25T03:21:56Z</time></trkpt>
<trkpt lat="-38.495529" lon="143.701708">
<ele>208</ele>
<time>2025-07-25T03:21:59Z</time></trkpt>
<trkpt lat="-38.49561" lon="143.701369">
<ele>207</ele>
<time>2025-07-25T03:22:04Z</time></trkpt>
<trkpt lat="-38.495518" lon="143.701187">
<ele>207</ele>
<time>2025-07-25T03:22:08Z</time></trkpt>
<trkpt lat="-38.495376" lon="143.701409">
<ele>208</ele>
<time>2025-07-25T03:22:12Z</time></trkpt>
<trkpt lat="-38.495264" lon="143.701252">
<ele>209</ele>
<time>2025-07-25T03:22:16Z</time></trkpt>
<trkpt lat="-38.495233" lon="143.700848">
<ele>209</ele>
<time>2025-07-25T03:22:22Z</time></trkpt>
<trkpt lat="-38.49509" lon="143.700705">
<ele>210</ele>
<time>2025-07-25T03:22:26Z</time></trkpt>
<trkpt lat="-38.49493" lon="143.700641">
<ele>212</ele>
<time>2025-07-25T03:22:29Z</time></trkpt>
<trkpt lat="-38.495153" lon="143.701223">
<ele>209</ele>
<time>2025-07-25T03:22:39Z</time></trkpt>
<trkpt lat="-38.495153" lon="143.701223">
<ele>209</ele>
<time>2025-07-25T03:22:39Z</time></trkpt>
<trkpt lat="-38.495272" lon="143.7015">
<ele>208</ele>
<time>2025-07-25T03:22:44Z</time></trkpt>
<trkpt lat="-38.495924" lon="143.70256">
<ele>206</ele>
<time>2025-07-25T03:23:05Z</time></trkpt>
<trkpt lat="-38.496355" lon="143.703526">
<ele>204</ele>
<time>2025-07-25T03:23:23Z</time></trkpt>
<trkpt lat="-38.496576" lon="143.704166">
<ele>204</ele>
<time>2025-07-25T03:23:34Z</time></trkpt>
<trkpt lat="-38.496821" lon="143.70469">
<ele>206</ele>
<time>2025-07-25T03:23:43Z</time></trkpt>
<trkpt lat="-38.497087" lon="143.705382">
<ele>210</ele>
<time>2025-07-25T03:23:55Z</time></trkpt>
<trkpt lat="-38.497463" lon="143.70615">
<ele>214</ele>
<time>2025-07-25T03:24:10Z</time></trkpt>
<trkpt lat="-38.497687" lon="143.706541">
<ele>216</ele>
<time>2025-07-25T03:24:17Z</time></trkpt>
<trkpt lat="-38.497687" lon="143.706541">
<ele>216</ele>
<time>2025-07-25T03:24:17Z</time></trkpt>
<trkpt lat="-38.498021" lon="143.707127">
<ele>216</ele>
<time>2025-07-25T03:24:29Z</time></trkpt>
<trkpt lat="-38.498646" lon="143.708143">
<ele>221</ele>
<time>2025-07-25T03:24:49Z</time></trkpt>
<trkpt lat="-38.498794" lon="143.708443">
<ele>224</ele>
<time>2025-07-25T03:24:54Z</time></trkpt>
<trkpt lat="-38.498951" lon="143.709101">
<ele>231</ele>
<time>2025-07-25T03:25:05Z</time></trkpt>
<trkpt lat="-38.499013" lon="143.70965">
<ele>235</ele>
<time>2025-07-25T03:25:14Z</time></trkpt>
<trkpt lat="-38.499037" lon="143.710231">
<ele>240</ele>
<time>2025-07-25T03:25:23Z</time></trkpt>
<trkpt lat="-38.499013" lon="143.710847">
<ele>244</ele>
<time>2025-07-25T03:25:33Z</time></trkpt>
<trkpt lat="-38.498989" lon="143.711033">
<ele>245</ele>
<time>2025-07-25T03:25:36Z</time></trkpt>
<trkpt lat="-38.500859" lon="143.710892">
<ele>243</ele>
<time>2025-07-25T03:26:13Z</time></trkpt>
<trkpt lat="-38.501054" lon="143.710813">
<ele>242</ele>
<time>2025-07-25T03:26:17Z</time></trkpt>
<trkpt lat="-38.501283" lon="143.71046">
<ele>241</ele>
<time>2025-07-25T03:26:24Z</time></trkpt>
<trkpt lat="-38.501414" lon="143.710171">
<ele>240</ele>
<time>2025-07-25T03:26:30Z</time></trkpt>
<trkpt lat="-38.501414" lon="143.710171">
<ele>240</ele>
<time>2025-07-25T03:26:30Z</time></trkpt>
<trkpt lat="-38.501904" lon="143.709087">
<ele>241</ele>
<time>2025-07-25T03:26:49Z</time></trkpt>
<trkpt lat="-38.501984" lon="143.708875">
<ele>242</ele>
<time>2025-07-25T03:26:53Z</time></trkpt>
<trkpt lat="-38.502221" lon="143.708753">
<ele>242</ele>
<time>2025-07-25T03:26:58Z</time></trkpt>
<trkpt lat="-38.502499" lon="143.708624">
<ele>242</ele>
<time>2025-07-25T03:27:04Z</time></trkpt>
<trkpt lat="-38.502616" lon="143.708517">
<ele>242</ele>
<time>2025-07-25T03:27:07Z</time></trkpt>
<trkpt lat="-38.502725" lon="143.708474">
<ele>242</ele>
<time>2025-07-25T03:27:09Z</time></trkpt>
<trkpt lat="-38.502792" lon="143.708645">
<ele>242</ele>
<time>2025-07-25T03:27:12Z</time></trkpt>
<trkpt lat="-38.5027" lon="143.708742">
<ele>242</ele>
<time>2025-07-25T03:27:15Z</time></trkpt>
<trkpt lat="-38.502683" lon="143.708935">
<ele>241</ele>
<time>2025-07-25T03:27:18Z</time></trkpt>
<trkpt lat="-38.5027" lon="143.708999">
<ele>241</ele>
<time>2025-07-25T03:27:19Z</time></trkpt>
<trkpt lat="-38.502784" lon="143.709032">
<ele>241</ele>
<time>2025-07-25T03:27:20Z</time></trkpt>
<trkpt lat="-38.502952" lon="143.708903">
<ele>241</ele>
<time>2025-07-25T03:27:24Z</time></trkpt>
<trkpt lat="-38.503063" lon="143.708717">
<ele>242</ele>
<time>2025-07-25T03:27:28Z</time></trkpt>
<trkpt lat="-38.503063" lon="143.708717">
<ele>242</ele>
<time>2025-07-25T03:27:28Z</time></trkpt>
<trkpt lat="-38.503086" lon="143.708678">
<ele>242</ele>
<time>2025-07-25T03:27:29Z</time></trkpt>
<trkpt lat="-38.503246" lon="143.708538">
<ele>242</ele>
<time>2025-07-25T03:27:33Z</time></trkpt>
<trkpt lat="-38.503405" lon="143.70856">
<ele>241</ele>
<time>2025-07-25T03:27:36Z</time></trkpt>
<trkpt lat="-38.50354" lon="143.708688">
<ele>239</ele>
<time>2025-07-25T03:27:39Z</time></trkpt>
<trkpt lat="-38.503464" lon="143.709042">
<ele>239</ele>
<time>2025-07-25T03:27:45Z</time></trkpt>
<trkpt lat="-38.503456" lon="143.709246">
<ele>239</ele>
<time>2025-07-25T03:27:48Z</time></trkpt>
<trkpt lat="-38.503565" lon="143.709493">
<ele>238</ele>
<time>2025-07-25T03:27:53Z</time></trkpt>
<trkpt lat="-38.503515" lon="143.70974">
<ele>238</ele>
<time>2025-07-25T03:27:57Z</time></trkpt>
<trkpt lat="-38.50364" lon="143.710341">
<ele>238</ele>
<time>2025-07-25T03:28:06Z</time></trkpt>
<trkpt lat="-38.503733" lon="143.710491">
<ele>238</ele>
<time>2025-07-25T03:28:09Z</time></trkpt>
<trkpt lat="-38.503825" lon="143.710577">
<ele>238</ele>
<time>2025-07-25T03:28:12Z</time></trkpt>
<trkpt lat="-38.503884" lon="143.710995">
<ele>239</ele>
<time>2025-07-25T03:28:18Z</time></trkpt>
<trkpt lat="-38.503934" lon="143.711703">
<ele>239</ele>
<time>2025-07-25T03:28:30Z</time></trkpt>
<trkpt lat="-38.503859" lon="143.7118">
<ele>239</ele>
<time>2025-07-25T03:28:32Z</time></trkpt>
<trkpt lat="-38.503724" lon="143.711757">
<ele>240</ele>
<time>2025-07-25T03:28:34Z</time></trkpt>
<trkpt lat="-38.503305" lon="143.711338">
<ele>243</ele>
<time>2025-07-25T03:28:45Z</time></trkpt>
<trkpt lat="-38.503086" lon="143.71122">
<ele>242</ele>
<time>2025-07-25T03:28:50Z</time></trkpt>
<trkpt lat="-38.502918" lon="143.711156">
<ele>242</ele>
<time>2025-07-25T03:28:53Z</time></trkpt>
<trkpt lat="-38.502683" lon="143.711349">
<ele>241</ele>
<time>2025-07-25T03:28:59Z</time></trkpt>
<trkpt lat="-38.502625" lon="143.711649">
<ele>240</ele>
<time>2025-07-25T03:29:04Z</time></trkpt>
<trkpt lat="-38.502683" lon="143.711832">
<ele>241</ele>
<time>2025-07-25T03:29:07Z</time></trkpt>
<trkpt lat="-38.502692" lon="143.712122">
<ele>241</ele>
<time>2025-07-25T03:29:12Z</time></trkpt>
<trkpt lat="-38.502734" lon="143.71225">
<ele>241</ele>
<time>2025-07-25T03:29:14Z</time></trkpt>
<trkpt lat="-38.502927" lon="143.712594">
<ele>241</ele>
<time>2025-07-25T03:29:20Z</time></trkpt>
<trkpt lat="-38.502918" lon="143.712744">
<ele>241</ele>
<time>2025-07-25T03:29:23Z</time></trkpt>
<trkpt lat="-38.502818" lon="143.71283">
<ele>241</ele>
<time>2025-07-25T03:29:25Z</time></trkpt>
<trkpt lat="-38.502121" lon="143.713066">
<ele>243</ele>
<time>2025-07-25T03:29:40Z</time></trkpt>
<trkpt lat="-38.501919" lon="143.713076">
<ele>242</ele>
<time>2025-07-25T03:29:44Z</time></trkpt>
<trkpt lat="-38.501634" lon="143.712905">
<ele>241</ele>
<time>2025-07-25T03:29:50Z</time></trkpt>
<trkpt lat="-38.501533" lon="143.712776">
<ele>241</ele>
<time>2025-07-25T03:29:53Z</time></trkpt>
<trkpt lat="-38.50134" lon="143.712787">
<ele>242</ele>
<time>2025-07-25T03:29:57Z</time></trkpt>
<trkpt lat="-38.501248" lon="143.71269">
<ele>242</ele>
<time>2025-07-25T03:29:59Z</time></trkpt>
<trkpt lat="-38.5011894" lon="143.7125698">
<ele>242</ele>
<time>2025-07-25T03:30:01Z</time></trkpt>
<trkpt lat="-38.501151" lon="143.712491">
<ele>242</ele>
<time>2025-07-25T03:30:03Z</time></trkpt>
<trkpt lat="-38.501634" lon="143.712905">
<ele>241</ele>
<time>2025-07-25T03:30:14Z</time></trkpt>
<trkpt lat="-38.501533" lon="143.712776">
<ele>241</ele>
<time>2025-07-25T03:30:17Z</time></trkpt>
<trkpt lat="-38.50134" lon="143.712787">
<ele>242</ele>
<time>2025-07-25T03:30:21Z</time></trkpt>
<trkpt lat="-38.501248" lon="143.71269">
<ele>242</ele>
<time>2025-07-25T03:30:23Z</time></trkpt>
<trkpt lat="-38.501002" lon="143.712183">
<ele>243</ele>
<time>2025-07-25T03:30:33Z</time></trkpt>
<trkpt lat="-38.501002" lon="143.712183">
<ele>243</ele>
<time>2025-07-25T03:30:33Z</time></trkpt>
<trkpt lat="-38.500962" lon="143.7121">
<ele>243</ele>
<time>2025-07-25T03:30:34Z</time></trkpt>
<trkpt lat="-38.50092" lon="143.711993">
<ele>243</ele>
<time>2025-07-25T03:30:36Z</time></trkpt>
<trkpt lat="-38.500836" lon="143.712003">
<ele>243</ele>
<time>2025-07-25T03:30:38Z</time></trkpt>
<trkpt lat="-38.500577" lon="143.712394">
<ele>244</ele>
<time>2025-07-25T03:30:46Z</time></trkpt>
<trkpt lat="-38.500604" lon="143.712679">
<ele>244</ele>
<time>2025-07-25T03:30:50Z</time></trkpt>
<trkpt lat="-38.500604" lon="143.712679">
<ele>244</ele>
<time>2025-07-25T03:30:50Z</time></trkpt>
<trkpt lat="-38.500817" lon="143.713353">
<ele>243</ele>
<time>2025-07-25T03:31:02Z</time></trkpt>
<trkpt lat="-38.50089" lon="143.713869">
<ele>243</ele>
<time>2025-07-25T03:31:10Z</time></trkpt>
<trkpt lat="-38.500941" lon="143.714637">
<ele>241</ele>
<time>2025-07-25T03:31:22Z</time></trkpt>
<trkpt lat="-38.500838" lon="143.714684">
<ele>241</ele>
<time>2025-07-25T03:31:24Z</time></trkpt>
<trkpt lat="-38.500795" lon="143.714837">
<ele>241</ele>
<time>2025-07-25T03:31:27Z</time></trkpt>
<trkpt lat="-38.500794" lon="143.714947">
<ele>240</ele>
<time>2025-07-25T03:31:29Z</time></trkpt>
<trkpt lat="-38.500645" lon="143.715189">
<ele>239</ele>
<time>2025-07-25T03:31:33Z</time></trkpt>
<trkpt lat="-38.500643" lon="143.715322">
<ele>237</ele>
<time>2025-07-25T03:31:36Z</time></trkpt>
<trkpt lat="-38.500584" lon="143.71545">
<ele>236</ele>
<time>2025-07-25T03:31:38Z</time></trkpt>
<trkpt lat="-38.500613" lon="143.71551">
<ele>235</ele>
<time>2025-07-25T03:31:39Z</time></trkpt>
<trkpt lat="-38.500714" lon="143.715517">
<ele>234</ele>
<time>2025-07-25T03:31:41Z</time></trkpt>
<trkpt lat="-38.500802" lon="143.715475">
<ele>234</ele>
<time>2025-07-25T03:31:43Z</time></trkpt>
<trkpt lat="-38.500943" lon="143.715515">
<ele>232</ele>
<time>2025-07-25T03:31:46Z</time></trkpt>
<trkpt lat="-38.501126" lon="143.715633">
<ele>229</ele>
<time>2025-07-25T03:31:50Z</time></trkpt>
<trkpt lat="-38.501135" lon="143.715663">
<ele>228</ele>
<time>2025-07-25T03:31:50Z</time></trkpt>
<trkpt lat="-38.501134" lon="143.715663">
<ele>228</ele>
<time>2025-07-25T03:31:50Z</time></trkpt>
<trkpt lat="-38.501169" lon="143.715781">
<ele>226</ele>
<time>2025-07-25T03:31:52Z</time></trkpt>
<trkpt lat="-38.501182" lon="143.716156">
<ele>223</ele>
<time>2025-07-25T03:31:58Z</time></trkpt>
<trkpt lat="-38.501256" lon="143.716747">
<ele>219</ele>
<time>2025-07-25T03:32:08Z</time></trkpt>
<trkpt lat="-38.501293" lon="143.717522">
<ele>214</ele>
<time>2025-07-25T03:32:20Z</time></trkpt>
<trkpt lat="-38.501036" lon="143.717849">
<ele>214</ele>
<time>2025-07-25T03:32:27Z</time></trkpt>
<trkpt lat="-38.500887" lon="143.718071">
<ele>214</ele>
<time>2025-07-25T03:32:32Z</time></trkpt>
<trkpt lat="-38.500795" lon="143.718247">
<ele>214</ele>
<time>2025-07-25T03:32:35Z</time></trkpt>
<trkpt lat="-38.500768" lon="143.718493">
<ele>214</ele>
<time>2025-07-25T03:32:39Z</time></trkpt>
<trkpt lat="-38.501379" lon="143.719311">
<ele>208</ele>
<time>2025-07-25T03:32:57Z</time></trkpt>
<trkpt lat="-38.501561" lon="143.719649">
<ele>207</ele>
<time>2025-07-25T03:33:03Z</time></trkpt>
<trkpt lat="-38.501542" lon="143.719705">
<ele>207</ele>
<time>2025-07-25T03:33:04Z</time></trkpt>
<trkpt lat="-38.501462" lon="143.719734">
<ele>209</ele>
<time>2025-07-25T03:33:06Z</time></trkpt>
<trkpt lat="-38.501381" lon="143.719818">
<ele>210</ele>
<time>2025-07-25T03:33:08Z</time></trkpt>
<trkpt lat="-38.501311" lon="143.719936">
<ele>211</ele>
<time>2025-07-25T03:33:10Z</time></trkpt>
<trkpt lat="-38.50122" lon="143.720044">
<ele>212</ele>
<time>2025-07-25T03:33:13Z</time></trkpt>
<trkpt lat="-38.50122" lon="143.720044">
<ele>212</ele>
<time>2025-07-25T03:33:13Z</time></trkpt>
<trkpt lat="-38.501178" lon="143.720092">
<ele>212</ele>
<time>2025-07-25T03:33:14Z</time></trkpt>
<trkpt lat="-38.500992" lon="143.720146">
<ele>214</ele>
<time>2025-07-25T03:33:18Z</time></trkpt>
<trkpt lat="-38.500907" lon="143.720199">
<ele>215</ele>
<time>2025-07-25T03:33:19Z</time></trkpt>
<trkpt lat="-38.50086" lon="143.720278">
<ele>215</ele>
<time>2025-07-25T03:33:21Z</time></trkpt>
<trkpt lat="-38.500835" lon="143.720397">
<ele>215</ele>
<time>2025-07-25T03:33:23Z</time></trkpt>
<trkpt lat="-38.500835" lon="143.720735">
<ele>213</ele>
<time>2025-07-25T03:33:28Z</time></trkpt>
<trkpt lat="-38.500839" lon="143.720797">
<ele>212</ele>
<time>2025-07-25T03:33:29Z</time></trkpt>
<trkpt lat="-38.500859" lon="143.720846">
<ele>212</ele>
<time>2025-07-25T03:33:30Z</time></trkpt>
<trkpt lat="-38.500991" lon="143.72091">
<ele>210</ele>
<time>2025-07-25T03:33:33Z</time></trkpt>
<trkpt lat="-38.501024" lon="143.72091">
<ele>210</ele>
<time>2025-07-25T03:33:34Z</time></trkpt>
<trkpt lat="-38.501128" lon="143.720851">
<ele>210</ele>
<time>2025-07-25T03:33:36Z</time></trkpt>
<trkpt lat="-38.501146" lon="143.720857">
<ele>210</ele>
<time>2025-07-25T03:33:36Z</time></trkpt>
<trkpt lat="-38.501172" lon="143.720906">
<ele>209</ele>
<time>2025-07-25T03:33:37Z</time></trkpt>
<trkpt lat="-38.501135" lon="143.721027">
<ele>208</ele>
<time>2025-07-25T03:33:39Z</time></trkpt>
<trkpt lat="-38.50106" lon="143.721142">
<ele>207</ele>
<time>2025-07-25T03:33:42Z</time></trkpt>
<trkpt lat="-38.50106" lon="143.721142">
<ele>207</ele>
<time>2025-07-25T03:33:42Z</time></trkpt>
<trkpt lat="-38.501065" lon="143.72118">
<ele>207</ele>
<time>2025-07-25T03:33:42Z</time></trkpt>
<trkpt lat="-38.501112" lon="143.72121">
<ele>206</ele>
<time>2025-07-25T03:33:43Z</time></trkpt>
<trkpt lat="-38.50117" lon="143.721215">
<ele>206</ele>
<time>2025-07-25T03:33:44Z</time></trkpt>
<trkpt lat="-38.501236" lon="143.721142">
<ele>206</ele>
<time>2025-07-25T03:33:46Z</time></trkpt>
<trkpt lat="-38.501298" lon="143.721125">
<ele>206</ele>
<time>2025-07-25T03:33:47Z</time></trkpt>
<trkpt lat="-38.501344" lon="143.721151">
<ele>205</ele>
<time>2025-07-25T03:33:48Z</time></trkpt>
<trkpt lat="-38.501377" lon="143.721205">
<ele>205</ele>
<time>2025-07-25T03:33:49Z</time></trkpt>
<trkpt lat="-38.501373" lon="143.721264">
<ele>204</ele>
<time>2025-07-25T03:33:50Z</time></trkpt>
<trkpt lat="-38.501338" lon="143.721314">
<ele>204</ele>
<time>2025-07-25T03:33:51Z</time></trkpt>
<trkpt lat="-38.501214" lon="143.721347">
<ele>204</ele>
<time>2025-07-25T03:33:54Z</time></trkpt>
<trkpt lat="-38.501134" lon="143.721431">
<ele>204</ele>
<time>2025-07-25T03:33:56Z</time></trkpt>
<trkpt lat="-38.501113" lon="143.721495">
<ele>203</ele>
<time>2025-07-25T03:33:57Z</time></trkpt>
<trkpt lat="-38.501122" lon="143.721575">
<ele>203</ele>
<time>2025-07-25T03:33:58Z</time></trkpt>
<trkpt lat="-38.501221" lon="143.721669">
<ele>201</ele>
<time>2025-07-25T03:34:01Z</time></trkpt>
<trkpt lat="-38.501252" lon="143.721652">
<ele>201</ele>
<time>2025-07-25T03:34:02Z</time></trkpt>
<trkpt lat="-38.501309" lon="143.721668">
<ele>201</ele>
<time>2025-07-25T03:34:03Z</time></trkpt>
<trkpt lat="-38.501406" lon="143.721746">
<ele>200</ele>
<time>2025-07-25T03:34:05Z</time></trkpt>
<trkpt lat="-38.501463" lon="143.721904">
<ele>198</ele>
<time>2025-07-25T03:34:08Z</time></trkpt>
<trkpt lat="-38.501536" lon="143.721966">
<ele>198</ele>
<time>2025-07-25T03:34:10Z</time></trkpt>
<trkpt lat="-38.501635" lon="143.72197">
<ele>197</ele>
<time>2025-07-25T03:34:11Z</time></trkpt>
<trkpt lat="-38.501714" lon="143.721924">
<ele>197</ele>
<time>2025-07-25T03:34:13Z</time></trkpt>
<trkpt lat="-38.501783" lon="143.721908">
<ele>197</ele>
<time>2025-07-25T03:34:15Z</time></trkpt>
<trkpt lat="-38.501848" lon="143.721937">
<ele>196</ele>
<time>2025-07-25T03:34:16Z</time></trkpt>
<trkpt lat="-38.501848" lon="143.721937">
<ele>196</ele>
<time>2025-07-25T03:34:16Z</time></trkpt>
<trkpt lat="-38.501969" lon="143.721992">
<ele>195</ele>
<time>2025-07-25T03:34:19Z</time></trkpt>
<trkpt lat="-38.502073" lon="143.722008">
<ele>195</ele>
<time>2025-07-25T03:34:21Z</time></trkpt>
<trkpt lat="-38.502357" lon="143.722498">
<ele>191</ele>
<time>2025-07-25T03:34:30Z</time></trkpt>
<trkpt lat="-38.502506" lon="143.722633">
<ele>190</ele>
<time>2025-07-25T03:34:34Z</time></trkpt>
<trkpt lat="-38.50261" lon="143.722833">
<ele>189</ele>
<time>2025-07-25T03:34:38Z</time></trkpt>
<trkpt lat="-38.502623" lon="143.72293">
<ele>188</ele>
<time>2025-07-25T03:34:39Z</time></trkpt>
<trkpt lat="-38.50265" lon="143.722986">
<ele>188</ele>
<time>2025-07-25T03:34:40Z</time></trkpt>
<trkpt lat="-38.502701" lon="143.723002">
<ele>187</ele>
<time>2025-07-25T03:34:41Z</time></trkpt>
<trkpt lat="-38.502701" lon="143.723002">
<ele>187</ele>
<time>2025-07-25T03:34:41Z</time></trkpt>
<trkpt lat="-38.502738" lon="143.723014">
<ele>187</ele>
<time>2025-07-25T03:34:42Z</time></trkpt>
<trkpt lat="-38.502858" lon="143.723207">
<ele>185</ele>
<time>2025-07-25T03:34:46Z</time></trkpt>
<trkpt lat="-38.502858" lon="143.723359">
<ele>184</ele>
<time>2025-07-25T03:34:48Z</time></trkpt>
<trkpt lat="-38.502886" lon="143.723408">
<ele>184</ele>
<time>2025-07-25T03:34:49Z</time></trkpt>
<trkpt lat="-38.502893" lon="143.723478">
<ele>184</ele>
<time>2025-07-25T03:34:50Z</time></trkpt>
<trkpt lat="-38.503024" lon="143.723361">
<ele>183</ele>
<time>2025-07-25T03:34:54Z</time></trkpt>
<trkpt lat="-38.503148" lon="143.723585">
<ele>182</ele>
<time>2025-07-25T03:34:58Z</time></trkpt>
<trkpt lat="-38.503187" lon="143.72355">
<ele>182</ele>
<time>2025-07-25T03:34:59Z</time></trkpt>
<trkpt lat="-38.503296" lon="143.723653">
<ele>181</ele>
<time>2025-07-25T03:35:02Z</time></trkpt>
<trkpt lat="-38.503396" lon="143.723624">
<ele>180</ele>
<time>2025-07-25T03:35:04Z</time></trkpt>
<trkpt lat="-38.5036736" lon="143.723662">
<ele>180</ele>
<time>2025-07-25T03:35:09Z</time></trkpt>
<trkpt lat="-38.503953" lon="143.723748">
<ele>179</ele>
<time>2025-07-25T03:35:15Z</time></trkpt>
<trkpt lat="-38.503963" lon="143.723823">
<ele>179</ele>
<time>2025-07-25T03:35:16Z</time></trkpt>
<trkpt lat="-38.5040831" lon="143.7240243">
<ele>179</ele>
<time>2025-07-25T03:35:20Z</time></trkpt>
<trkpt lat="-38.5042678" lon="143.724153">
<ele>179</ele>
<time>2025-07-25T03:35:24Z</time></trkpt>
<trkpt lat="-38.5048386" lon="143.7235737">
<ele>176</ele>
<time>2025-07-25T03:35:39Z</time></trkpt>
<trkpt lat="-38.5056278" lon="143.7243462">
<ele>175</ele>
<time>2025-07-25T03:35:59Z</time></trkpt>
<trkpt lat="-38.5051579" lon="143.7248611">
<ele>177</ele>
<time>2025-07-25T03:36:11Z</time></trkpt>
<trkpt lat="-38.5043185" lon="143.7257838">
<ele>179</ele>
<time>2025-07-25T03:36:33Z</time></trkpt>
<trkpt lat="-38.5043014" lon="143.7266636">
<ele>179</ele>
<time>2025-07-25T03:36:47Z</time></trkpt>
<trkpt lat="-38.5046875" lon="143.7273932">
<ele>175</ele>
<time>2025-07-25T03:37:01Z</time></trkpt>
<trkpt lat="-38.504973" lon="143.7271142">
<ele>175</ele>
<time>2025-07-25T03:37:08Z</time></trkpt>
<trkpt lat="-38.5054096" lon="143.7265992">
<ele>173</ele>
<time>2025-07-25T03:37:20Z</time></trkpt>
<trkpt lat="-38.5054936" lon="143.7271357">
<ele>171</ele>
<time>2025-07-25T03:37:29Z</time></trkpt>
<trkpt lat="-38.5057622" lon="143.7278008">
<ele>170</ele>
<time>2025-07-25T03:37:40Z</time></trkpt>
<trkpt lat="-38.5066352" lon="143.7272859">
<ele>169</ele>
<time>2025-07-25T03:38:00Z</time></trkpt>
<trkpt lat="-38.5063837" lon="143.7269855">
<ele>169</ele>
<time>2025-07-25T03:38:07Z</time></trkpt>
<trkpt lat="-38.5060982" lon="143.7265778">
<ele>170</ele>
<time>2025-07-25T03:38:15Z</time></trkpt>
</trkseg>
</trk>
</gpx>